<?xml version="1.0" encoding="UTF-8" standalone="no" ?>
<gpx xmlns="http://www.topografix.com/GPX/1/1" xmlns:xsi="http://www.w3.org/2001/XMLSchema-instance" xsi:schemaLocation="http://www.topografix.com/GPX/1/1 http://www.topografix.com/GPX/1/1/gpx.xsd" version="1.1" creator="VisuGPX - https://www.visugpx.com">
  <metadata>
    <name>Aubrac (Nasbinals)</name>
    <desc><![CDATA[File with points/tracks from LocusWorld/]]></desc>
  </metadata>
  <trk>
    <name><![CDATA[2021-11-19 10:19]]></name>
    <extensions>
      <line xmlns="http://www.topografix.com/GPX/gpx_style/0/2">
        <color>FF0000</color>
        <opacity>0.78</opacity>
        <width>3.0</width>
      </line>
    </extensions>
    <trkseg>
      <trkpt lat="44.64781" lon="3.06505">
        <ele>1226.36</ele>
        <time>2021-11-19T09:19:31.000Z</time>
      </trkpt>
      <trkpt lat="44.64784" lon="3.06511">
        <ele>1219.96</ele>
        <time>2021-11-19T09:19:41.000Z</time>
      </trkpt>
      <trkpt lat="44.64785" lon="3.0651">
        <ele>1223.64</ele>
        <time>2021-11-19T09:21:44.000Z</time>
      </trkpt>
      <trkpt lat="44.64783" lon="3.06507">
        <ele>1214.35</ele>
        <time>2021-11-19T09:21:54.000Z</time>
      </trkpt>
      <trkpt lat="44.64782" lon="3.06507">
        <ele>1227.23</ele>
        <time>2021-11-19T09:22:17.000Z</time>
      </trkpt>
      <trkpt lat="44.64781" lon="3.06507">
        <ele>1228.37</ele>
        <time>2021-11-19T09:28:22.000Z</time>
      </trkpt>
      <trkpt lat="44.6478" lon="3.06507">
        <ele>1219.44</ele>
        <time>2021-11-19T09:28:32.000Z</time>
      </trkpt>
      <trkpt lat="44.6478" lon="3.06508">
        <ele>1237.26</ele>
        <time>2021-11-19T09:29:01.000Z</time>
      </trkpt>
      <trkpt lat="44.6478" lon="3.06509">
        <ele>1231.31</ele>
        <time>2021-11-19T09:29:40.000Z</time>
      </trkpt>
      <trkpt lat="44.64781" lon="3.06508">
        <ele>1214.89</ele>
        <time>2021-11-19T09:29:56.000Z</time>
      </trkpt>
      <trkpt lat="44.64782" lon="3.06509">
        <ele>1225.59</ele>
        <time>2021-11-19T09:30:18.000Z</time>
      </trkpt>
      <trkpt lat="44.64794" lon="3.06506">
        <ele>1240.37</ele>
        <time>2021-11-19T09:30:27.460Z</time>
      </trkpt>
      <trkpt lat="44.64805" lon="3.06512">
        <ele>1229.7</ele>
        <time>2021-11-19T09:30:37.080Z</time>
      </trkpt>
      <trkpt lat="44.64807" lon="3.06522">
        <ele>1213.46</ele>
        <time>2021-11-19T09:30:47.000Z</time>
      </trkpt>
      <trkpt lat="44.648" lon="3.06533">
        <ele>1216.05</ele>
        <time>2021-11-19T09:30:56.141Z</time>
      </trkpt>
      <trkpt lat="44.64793" lon="3.06543">
        <ele>1227.09</ele>
        <time>2021-11-19T09:31:05.660Z</time>
      </trkpt>
      <trkpt lat="44.64787" lon="3.06554">
        <ele>1216.88</ele>
        <time>2021-11-19T09:31:15.261Z</time>
      </trkpt>
      <trkpt lat="44.64782" lon="3.06567">
        <ele>1234.92</ele>
        <time>2021-11-19T09:31:24.401Z</time>
      </trkpt>
      <trkpt lat="44.64777" lon="3.06577">
        <ele>1224.55</ele>
        <time>2021-11-19T09:31:33.439Z</time>
      </trkpt>
      <trkpt lat="44.64769" lon="3.06588">
        <ele>1198.75</ele>
        <time>2021-11-19T09:31:42.919Z</time>
      </trkpt>
      <trkpt lat="44.64763" lon="3.06594">
        <ele>1215.03</ele>
        <time>2021-11-19T09:31:52.000Z</time>
      </trkpt>
      <trkpt lat="44.64759" lon="3.06598">
        <ele>1226.15</ele>
        <time>2021-11-19T09:32:02.119Z</time>
      </trkpt>
      <trkpt lat="44.64751" lon="3.06612">
        <ele>1191.89</ele>
        <time>2021-11-19T09:32:11.366Z</time>
      </trkpt>
      <trkpt lat="44.64748" lon="3.06618">
        <ele>1216.2</ele>
        <time>2021-11-19T09:32:21.000Z</time>
      </trkpt>
      <trkpt lat="44.64747" lon="3.06623">
        <ele>1204.92</ele>
        <time>2021-11-19T09:32:31.189Z</time>
      </trkpt>
      <trkpt lat="44.64741" lon="3.06635">
        <ele>1217.97</ele>
        <time>2021-11-19T09:32:41.000Z</time>
      </trkpt>
      <trkpt lat="44.64735" lon="3.0665">
        <ele>1218.07</ele>
        <time>2021-11-19T09:32:50.719Z</time>
      </trkpt>
      <trkpt lat="44.64729" lon="3.06665">
        <ele>1225.39</ele>
        <time>2021-11-19T09:33:00.041Z</time>
      </trkpt>
      <trkpt lat="44.64723" lon="3.06679">
        <ele>1201.18</ele>
        <time>2021-11-19T09:33:09.441Z</time>
      </trkpt>
      <trkpt lat="44.64717" lon="3.06692">
        <ele>1215.61</ele>
        <time>2021-11-19T09:33:18.937Z</time>
      </trkpt>
      <trkpt lat="44.64713" lon="3.06704">
        <ele>1234.53</ele>
        <time>2021-11-19T09:33:28.000Z</time>
      </trkpt>
      <trkpt lat="44.64707" lon="3.06717">
        <ele>1204.76</ele>
        <time>2021-11-19T09:33:38.000Z</time>
      </trkpt>
      <trkpt lat="44.64699" lon="3.06731">
        <ele>1210.78</ele>
        <time>2021-11-19T09:33:47.335Z</time>
      </trkpt>
      <trkpt lat="44.64693" lon="3.06745">
        <ele>1202.2</ele>
        <time>2021-11-19T09:33:58.000Z</time>
      </trkpt>
      <trkpt lat="44.64693" lon="3.06746">
        <ele>1225</ele>
        <time>2021-11-19T09:34:09.000Z</time>
      </trkpt>
      <trkpt lat="44.64691" lon="3.06748">
        <ele>1206.96</ele>
        <time>2021-11-19T09:34:21.005Z</time>
      </trkpt>
      <trkpt lat="44.64685" lon="3.06767">
        <ele>1222.32</ele>
        <time>2021-11-19T09:34:30.089Z</time>
      </trkpt>
      <trkpt lat="44.6468" lon="3.06779">
        <ele>1221.47</ele>
        <time>2021-11-19T09:34:40.000Z</time>
      </trkpt>
      <trkpt lat="44.64672" lon="3.06796">
        <ele>1211.07</ele>
        <time>2021-11-19T09:34:50.136Z</time>
      </trkpt>
      <trkpt lat="44.64669" lon="3.06808">
        <ele>1218.44</ele>
        <time>2021-11-19T09:34:59.176Z</time>
      </trkpt>
      <trkpt lat="44.64663" lon="3.06821">
        <ele>1208.64</ele>
        <time>2021-11-19T09:35:09.000Z</time>
      </trkpt>
      <trkpt lat="44.64656" lon="3.06835">
        <ele>1205.7</ele>
        <time>2021-11-19T09:35:19.000Z</time>
      </trkpt>
      <trkpt lat="44.64651" lon="3.06853">
        <ele>1217.6</ele>
        <time>2021-11-19T09:35:28.605Z</time>
      </trkpt>
      <trkpt lat="44.64647" lon="3.06867">
        <ele>1213.01</ele>
        <time>2021-11-19T09:35:39.000Z</time>
      </trkpt>
      <trkpt lat="44.64643" lon="3.06881">
        <ele>1213.04</ele>
        <time>2021-11-19T09:35:49.000Z</time>
      </trkpt>
      <trkpt lat="44.64637" lon="3.069">
        <ele>1209.03</ele>
        <time>2021-11-19T09:35:59.062Z</time>
      </trkpt>
      <trkpt lat="44.64631" lon="3.06911">
        <ele>1214.07</ele>
        <time>2021-11-19T09:36:08.242Z</time>
      </trkpt>
      <trkpt lat="44.64624" lon="3.06923">
        <ele>1218.86</ele>
        <time>2021-11-19T09:36:18.145Z</time>
      </trkpt>
      <trkpt lat="44.64621" lon="3.06939">
        <ele>1203.45</ele>
        <time>2021-11-19T09:36:27.951Z</time>
      </trkpt>
      <trkpt lat="44.64623" lon="3.06954">
        <ele>1209.8</ele>
        <time>2021-11-19T09:36:37.008Z</time>
      </trkpt>
      <trkpt lat="44.64631" lon="3.06967">
        <ele>1217.05</ele>
        <time>2021-11-19T09:36:48.000Z</time>
      </trkpt>
      <trkpt lat="44.6464" lon="3.06979">
        <ele>1198.72</ele>
        <time>2021-11-19T09:36:57.390Z</time>
      </trkpt>
      <trkpt lat="44.64644" lon="3.06991">
        <ele>1210.9</ele>
        <time>2021-11-19T09:37:06.409Z</time>
      </trkpt>
      <trkpt lat="44.64646" lon="3.06999">
        <ele>1208.47</ele>
        <time>2021-11-19T09:37:16.000Z</time>
      </trkpt>
      <trkpt lat="44.64646" lon="3.06998">
        <ele>1217.46</ele>
        <time>2021-11-19T09:37:26.000Z</time>
      </trkpt>
      <trkpt lat="44.64647" lon="3.07">
        <ele>1215.33</ele>
        <time>2021-11-19T09:37:55.000Z</time>
      </trkpt>
      <trkpt lat="44.64655" lon="3.07016">
        <ele>1214.08</ele>
        <time>2021-11-19T09:38:07.000Z</time>
      </trkpt>
      <trkpt lat="44.64658" lon="3.07019">
        <ele>1222.83</ele>
        <time>2021-11-19T09:38:17.000Z</time>
      </trkpt>
      <trkpt lat="44.64667" lon="3.07033">
        <ele>1193.81</ele>
        <time>2021-11-19T09:38:27.010Z</time>
      </trkpt>
      <trkpt lat="44.64671" lon="3.07042">
        <ele>1218.35</ele>
        <time>2021-11-19T09:38:36.636Z</time>
      </trkpt>
      <trkpt lat="44.64672" lon="3.07046">
        <ele>1224.82</ele>
        <time>2021-11-19T09:38:46.000Z</time>
      </trkpt>
      <trkpt lat="44.64671" lon="3.07045">
        <ele>1205.41</ele>
        <time>2021-11-19T09:38:56.000Z</time>
      </trkpt>
      <trkpt lat="44.64671" lon="3.07048">
        <ele>1211.22</ele>
        <time>2021-11-19T09:39:06.000Z</time>
      </trkpt>
      <trkpt lat="44.64672" lon="3.0705">
        <ele>1219.11</ele>
        <time>2021-11-19T09:39:17.000Z</time>
      </trkpt>
      <trkpt lat="44.64672" lon="3.07052">
        <ele>1203.91</ele>
        <time>2021-11-19T09:39:28.000Z</time>
      </trkpt>
      <trkpt lat="44.64669" lon="3.07056">
        <ele>1203.73</ele>
        <time>2021-11-19T09:39:38.000Z</time>
      </trkpt>
      <trkpt lat="44.64669" lon="3.07054">
        <ele>1214.74</ele>
        <time>2021-11-19T09:39:48.000Z</time>
      </trkpt>
      <trkpt lat="44.64669" lon="3.07055">
        <ele>1208.35</ele>
        <time>2021-11-19T09:40:01.000Z</time>
      </trkpt>
      <trkpt lat="44.64671" lon="3.07065">
        <ele>1216.29</ele>
        <time>2021-11-19T09:40:11.000Z</time>
      </trkpt>
      <trkpt lat="44.64674" lon="3.07079">
        <ele>1199.78</ele>
        <time>2021-11-19T09:40:20.401Z</time>
      </trkpt>
      <trkpt lat="44.64674" lon="3.07091">
        <ele>1207.69</ele>
        <time>2021-11-19T09:40:30.281Z</time>
      </trkpt>
      <trkpt lat="44.64667" lon="3.07082">
        <ele>1199.84</ele>
        <time>2021-11-19T09:40:39.361Z</time>
      </trkpt>
      <trkpt lat="44.64661" lon="3.07072">
        <ele>1208.75</ele>
        <time>2021-11-19T09:40:49.402Z</time>
      </trkpt>
      <trkpt lat="44.64659" lon="3.07071">
        <ele>1209.92</ele>
        <time>2021-11-19T09:40:59.000Z</time>
      </trkpt>
      <trkpt lat="44.64657" lon="3.07069">
        <ele>1204.7</ele>
        <time>2021-11-19T09:41:09.000Z</time>
      </trkpt>
      <trkpt lat="44.64655" lon="3.07068">
        <ele>1225.8</ele>
        <time>2021-11-19T09:41:19.000Z</time>
      </trkpt>
      <trkpt lat="44.64647" lon="3.07075">
        <ele>1222.65</ele>
        <time>2021-11-19T09:41:28.341Z</time>
      </trkpt>
      <trkpt lat="44.64646" lon="3.07085">
        <ele>1203.41</ele>
        <time>2021-11-19T09:41:40.000Z</time>
      </trkpt>
      <trkpt lat="44.64649" lon="3.07091">
        <ele>1200.4</ele>
        <time>2021-11-19T09:41:49.841Z</time>
      </trkpt>
      <trkpt lat="44.64651" lon="3.07092">
        <ele>1190.18</ele>
        <time>2021-11-19T09:42:00.000Z</time>
      </trkpt>
      <trkpt lat="44.64654" lon="3.07094">
        <ele>1206.57</ele>
        <time>2021-11-19T09:42:10.000Z</time>
      </trkpt>
      <trkpt lat="44.64655" lon="3.07095">
        <ele>1195.89</ele>
        <time>2021-11-19T09:42:24.000Z</time>
      </trkpt>
      <trkpt lat="44.64656" lon="3.07098">
        <ele>1192.64</ele>
        <time>2021-11-19T09:42:33.721Z</time>
      </trkpt>
      <trkpt lat="44.64657" lon="3.071">
        <ele>1204.22</ele>
        <time>2021-11-19T09:42:43.000Z</time>
      </trkpt>
      <trkpt lat="44.64658" lon="3.07103">
        <ele>1182.62</ele>
        <time>2021-11-19T09:42:54.000Z</time>
      </trkpt>
      <trkpt lat="44.64659" lon="3.07102">
        <ele>1200.63</ele>
        <time>2021-11-19T09:43:15.482Z</time>
      </trkpt>
      <trkpt lat="44.64658" lon="3.07103">
        <ele>1181.18</ele>
        <time>2021-11-19T09:43:33.261Z</time>
      </trkpt>
      <trkpt lat="44.64657" lon="3.07109">
        <ele>1211.69</ele>
        <time>2021-11-19T09:43:42.961Z</time>
      </trkpt>
      <trkpt lat="44.64646" lon="3.07117">
        <ele>1187.14</ele>
        <time>2021-11-19T09:43:52.322Z</time>
      </trkpt>
      <trkpt lat="44.64639" lon="3.07123">
        <ele>1182.75</ele>
        <time>2021-11-19T09:44:01.441Z</time>
      </trkpt>
      <trkpt lat="44.64631" lon="3.07129">
        <ele>1200.85</ele>
        <time>2021-11-19T09:44:10.801Z</time>
      </trkpt>
      <trkpt lat="44.64623" lon="3.07127">
        <ele>1189.69</ele>
        <time>2021-11-19T09:44:19.882Z</time>
      </trkpt>
      <trkpt lat="44.64616" lon="3.07129">
        <ele>1200.86</ele>
        <time>2021-11-19T09:44:29.422Z</time>
      </trkpt>
      <trkpt lat="44.64611" lon="3.07126">
        <ele>1194.18</ele>
        <time>2021-11-19T09:44:39.000Z</time>
      </trkpt>
      <trkpt lat="44.64608" lon="3.07118">
        <ele>1181.66</ele>
        <time>2021-11-19T09:44:49.000Z</time>
      </trkpt>
      <trkpt lat="44.64606" lon="3.07113">
        <ele>1198.4</ele>
        <time>2021-11-19T09:44:59.322Z</time>
      </trkpt>
      <trkpt lat="44.64603" lon="3.07109">
        <ele>1200.25</ele>
        <time>2021-11-19T09:45:08.422Z</time>
      </trkpt>
      <trkpt lat="44.64601" lon="3.07104">
        <ele>1184.55</ele>
        <time>2021-11-19T09:45:19.000Z</time>
      </trkpt>
      <trkpt lat="44.646" lon="3.07093">
        <ele>1174.91</ele>
        <time>2021-11-19T09:45:28.222Z</time>
      </trkpt>
      <trkpt lat="44.64602" lon="3.07086">
        <ele>1193.76</ele>
        <time>2021-11-19T09:45:39.000Z</time>
      </trkpt>
      <trkpt lat="44.64602" lon="3.07083">
        <ele>1196.22</ele>
        <time>2021-11-19T09:45:48.341Z</time>
      </trkpt>
      <trkpt lat="44.64599" lon="3.0708">
        <ele>1188.07</ele>
        <time>2021-11-19T09:45:58.242Z</time>
      </trkpt>
      <trkpt lat="44.64596" lon="3.0708">
        <ele>1189.62</ele>
        <time>2021-11-19T09:46:08.023Z</time>
      </trkpt>
      <trkpt lat="44.64593" lon="3.07075">
        <ele>1174.89</ele>
        <time>2021-11-19T09:46:19.000Z</time>
      </trkpt>
      <trkpt lat="44.64592" lon="3.07073">
        <ele>1187.1</ele>
        <time>2021-11-19T09:46:30.000Z</time>
      </trkpt>
      <trkpt lat="44.6459" lon="3.07069">
        <ele>1175.27</ele>
        <time>2021-11-19T09:46:41.000Z</time>
      </trkpt>
      <trkpt lat="44.64591" lon="3.07068">
        <ele>1178.4</ele>
        <time>2021-11-19T09:46:50.443Z</time>
      </trkpt>
      <trkpt lat="44.64592" lon="3.07067">
        <ele>1197.66</ele>
        <time>2021-11-19T09:47:00.000Z</time>
      </trkpt>
      <trkpt lat="44.64595" lon="3.07065">
        <ele>1188.93</ele>
        <time>2021-11-19T09:47:09.322Z</time>
      </trkpt>
      <trkpt lat="44.64599" lon="3.07063">
        <ele>1179.03</ele>
        <time>2021-11-19T09:47:19.000Z</time>
      </trkpt>
      <trkpt lat="44.64603" lon="3.07062">
        <ele>1172.13</ele>
        <time>2021-11-19T09:47:29.000Z</time>
      </trkpt>
      <trkpt lat="44.64604" lon="3.07062">
        <ele>1194.36</ele>
        <time>2021-11-19T09:47:39.000Z</time>
      </trkpt>
      <trkpt lat="44.64605" lon="3.07061">
        <ele>1196.88</ele>
        <time>2021-11-19T09:48:40.000Z</time>
      </trkpt>
      <trkpt lat="44.64603" lon="3.07062">
        <ele>1178.96</ele>
        <time>2021-11-19T09:48:54.000Z</time>
      </trkpt>
      <trkpt lat="44.64599" lon="3.07061">
        <ele>1182.33</ele>
        <time>2021-11-19T09:49:04.000Z</time>
      </trkpt>
      <trkpt lat="44.64596" lon="3.07063">
        <ele>1189.34</ele>
        <time>2021-11-19T09:49:14.000Z</time>
      </trkpt>
      <trkpt lat="44.64591" lon="3.07072">
        <ele>1186.52</ele>
        <time>2021-11-19T09:49:24.000Z</time>
      </trkpt>
      <trkpt lat="44.64586" lon="3.0708">
        <ele>1187.8</ele>
        <time>2021-11-19T09:49:34.000Z</time>
      </trkpt>
      <trkpt lat="44.64579" lon="3.07084">
        <ele>1173.76</ele>
        <time>2021-11-19T09:49:43.260Z</time>
      </trkpt>
      <trkpt lat="44.64576" lon="3.07083">
        <ele>1172.7</ele>
        <time>2021-11-19T09:49:53.000Z</time>
      </trkpt>
      <trkpt lat="44.64577" lon="3.07078">
        <ele>1187.24</ele>
        <time>2021-11-19T09:50:03.000Z</time>
      </trkpt>
      <trkpt lat="44.64582" lon="3.07072">
        <ele>1181.66</ele>
        <time>2021-11-19T09:50:13.102Z</time>
      </trkpt>
      <trkpt lat="44.64583" lon="3.0707">
        <ele>1171.38</ele>
        <time>2021-11-19T09:50:24.000Z</time>
      </trkpt>
      <trkpt lat="44.64583" lon="3.07067">
        <ele>1193.79</ele>
        <time>2021-11-19T09:50:35.000Z</time>
      </trkpt>
      <trkpt lat="44.64582" lon="3.07063">
        <ele>1193.36</ele>
        <time>2021-11-19T09:50:45.000Z</time>
      </trkpt>
      <trkpt lat="44.6458" lon="3.0706">
        <ele>1182.97</ele>
        <time>2021-11-19T09:50:55.000Z</time>
      </trkpt>
      <trkpt lat="44.64578" lon="3.07057">
        <ele>1191.03</ele>
        <time>2021-11-19T09:51:05.000Z</time>
      </trkpt>
      <trkpt lat="44.64578" lon="3.07051">
        <ele>1175.05</ele>
        <time>2021-11-19T09:51:15.000Z</time>
      </trkpt>
      <trkpt lat="44.6458" lon="3.07046">
        <ele>1171.85</ele>
        <time>2021-11-19T09:51:25.000Z</time>
      </trkpt>
      <trkpt lat="44.6458" lon="3.07045">
        <ele>1178.83</ele>
        <time>2021-11-19T09:51:35.000Z</time>
      </trkpt>
      <trkpt lat="44.64579" lon="3.07045">
        <ele>1178.11</ele>
        <time>2021-11-19T09:51:45.000Z</time>
      </trkpt>
      <trkpt lat="44.64579" lon="3.07044">
        <ele>1194.2</ele>
        <time>2021-11-19T09:52:04.000Z</time>
      </trkpt>
      <trkpt lat="44.64579" lon="3.07042">
        <ele>1203.04</ele>
        <time>2021-11-19T09:52:14.000Z</time>
      </trkpt>
      <trkpt lat="44.64578" lon="3.07042">
        <ele>1189.43</ele>
        <time>2021-11-19T09:54:50.000Z</time>
      </trkpt>
      <trkpt lat="44.64575" lon="3.07043">
        <ele>1191.33</ele>
        <time>2021-11-19T09:55:01.000Z</time>
      </trkpt>
      <trkpt lat="44.64573" lon="3.07044">
        <ele>1192.5</ele>
        <time>2021-11-19T09:55:12.000Z</time>
      </trkpt>
      <trkpt lat="44.64572" lon="3.07046">
        <ele>1183.36</ele>
        <time>2021-11-19T09:55:23.000Z</time>
      </trkpt>
      <trkpt lat="44.64573" lon="3.07054">
        <ele>1179.9</ele>
        <time>2021-11-19T09:55:34.000Z</time>
      </trkpt>
      <trkpt lat="44.64574" lon="3.0706">
        <ele>1181.13</ele>
        <time>2021-11-19T09:55:44.000Z</time>
      </trkpt>
      <trkpt lat="44.64576" lon="3.07062">
        <ele>1173.07</ele>
        <time>2021-11-19T09:55:54.361Z</time>
      </trkpt>
      <trkpt lat="44.64578" lon="3.07064">
        <ele>1189.61</ele>
        <time>2021-11-19T09:56:04.000Z</time>
      </trkpt>
      <trkpt lat="44.6458" lon="3.07065">
        <ele>1176.2</ele>
        <time>2021-11-19T09:56:13.021Z</time>
      </trkpt>
      <trkpt lat="44.64581" lon="3.07067">
        <ele>1199.72</ele>
        <time>2021-11-19T09:56:22.161Z</time>
      </trkpt>
      <trkpt lat="44.64582" lon="3.07069">
        <ele>1189.3</ele>
        <time>2021-11-19T09:56:32.000Z</time>
      </trkpt>
      <trkpt lat="44.64582" lon="3.07071">
        <ele>1196.7</ele>
        <time>2021-11-19T09:56:43.000Z</time>
      </trkpt>
      <trkpt lat="44.64578" lon="3.07073">
        <ele>1187.86</ele>
        <time>2021-11-19T09:56:52.142Z</time>
      </trkpt>
      <trkpt lat="44.64576" lon="3.07078">
        <ele>1171.91</ele>
        <time>2021-11-19T09:57:02.000Z</time>
      </trkpt>
      <trkpt lat="44.64581" lon="3.07086">
        <ele>1183.81</ele>
        <time>2021-11-19T09:57:12.001Z</time>
      </trkpt>
      <trkpt lat="44.64582" lon="3.07086">
        <ele>1178.03</ele>
        <time>2021-11-19T09:57:22.000Z</time>
      </trkpt>
      <trkpt lat="44.6458" lon="3.07095">
        <ele>1168.36</ele>
        <time>2021-11-19T09:57:32.000Z</time>
      </trkpt>
      <trkpt lat="44.64581" lon="3.07096">
        <ele>1183.86</ele>
        <time>2021-11-19T09:57:42.000Z</time>
      </trkpt>
      <trkpt lat="44.64581" lon="3.07097">
        <ele>1191.83</ele>
        <time>2021-11-19T09:57:58.000Z</time>
      </trkpt>
      <trkpt lat="44.64579" lon="3.07113">
        <ele>1194.21</ele>
        <time>2021-11-19T09:58:07.181Z</time>
      </trkpt>
      <trkpt lat="44.64581" lon="3.07124">
        <ele>1190.34</ele>
        <time>2021-11-19T09:58:18.000Z</time>
      </trkpt>
      <trkpt lat="44.64581" lon="3.07127">
        <ele>1191.56</ele>
        <time>2021-11-19T09:58:30.742Z</time>
      </trkpt>
      <trkpt lat="44.64586" lon="3.07139">
        <ele>1197.74</ele>
        <time>2021-11-19T09:58:39.982Z</time>
      </trkpt>
      <trkpt lat="44.64594" lon="3.07151">
        <ele>1197.06</ele>
        <time>2021-11-19T09:58:49.241Z</time>
      </trkpt>
      <trkpt lat="44.64599" lon="3.07164">
        <ele>1180.45</ele>
        <time>2021-11-19T09:58:59.000Z</time>
      </trkpt>
      <trkpt lat="44.64602" lon="3.07182">
        <ele>1192.98</ele>
        <time>2021-11-19T09:59:08.316Z</time>
      </trkpt>
      <trkpt lat="44.64602" lon="3.07194">
        <ele>1195.5</ele>
        <time>2021-11-19T09:59:18.000Z</time>
      </trkpt>
      <trkpt lat="44.64598" lon="3.07207">
        <ele>1183.94</ele>
        <time>2021-11-19T09:59:28.000Z</time>
      </trkpt>
      <trkpt lat="44.64596" lon="3.07219">
        <ele>1185.72</ele>
        <time>2021-11-19T09:59:39.000Z</time>
      </trkpt>
      <trkpt lat="44.64594" lon="3.07231">
        <ele>1197.88</ele>
        <time>2021-11-19T09:59:49.000Z</time>
      </trkpt>
      <trkpt lat="44.64594" lon="3.07246">
        <ele>1174.6</ele>
        <time>2021-11-19T09:59:58.402Z</time>
      </trkpt>
      <trkpt lat="44.64594" lon="3.07259">
        <ele>1193.32</ele>
        <time>2021-11-19T10:00:08.475Z</time>
      </trkpt>
      <trkpt lat="44.64596" lon="3.07268">
        <ele>1192.94</ele>
        <time>2021-11-19T10:00:18.041Z</time>
      </trkpt>
      <trkpt lat="44.64598" lon="3.07278">
        <ele>1169.08</ele>
        <time>2021-11-19T10:00:29.000Z</time>
      </trkpt>
      <trkpt lat="44.64601" lon="3.07276">
        <ele>1182.43</ele>
        <time>2021-11-19T10:00:39.000Z</time>
      </trkpt>
      <trkpt lat="44.646" lon="3.07282">
        <ele>1167.63</ele>
        <time>2021-11-19T10:00:49.000Z</time>
      </trkpt>
      <trkpt lat="44.64599" lon="3.07283">
        <ele>1193.36</ele>
        <time>2021-11-19T10:01:06.000Z</time>
      </trkpt>
      <trkpt lat="44.64598" lon="3.07281">
        <ele>1170.42</ele>
        <time>2021-11-19T10:01:16.000Z</time>
      </trkpt>
      <trkpt lat="44.646" lon="3.07282">
        <ele>1177.97</ele>
        <time>2021-11-19T10:01:35.000Z</time>
      </trkpt>
      <trkpt lat="44.646" lon="3.07285">
        <ele>1179.54</ele>
        <time>2021-11-19T10:01:45.000Z</time>
      </trkpt>
      <trkpt lat="44.64601" lon="3.07283">
        <ele>1173.41</ele>
        <time>2021-11-19T10:01:58.000Z</time>
      </trkpt>
      <trkpt lat="44.64604" lon="3.07279">
        <ele>1183.9</ele>
        <time>2021-11-19T10:02:07.689Z</time>
      </trkpt>
      <trkpt lat="44.64605" lon="3.0728">
        <ele>1163.64</ele>
        <time>2021-11-19T10:02:18.000Z</time>
      </trkpt>
      <trkpt lat="44.64606" lon="3.07281">
        <ele>1167.56</ele>
        <time>2021-11-19T10:02:28.000Z</time>
      </trkpt>
      <trkpt lat="44.64608" lon="3.07281">
        <ele>1166.71</ele>
        <time>2021-11-19T10:02:45.000Z</time>
      </trkpt>
      <trkpt lat="44.64607" lon="3.07277">
        <ele>1189.59</ele>
        <time>2021-11-19T10:02:55.000Z</time>
      </trkpt>
      <trkpt lat="44.64606" lon="3.07277">
        <ele>1170.94</ele>
        <time>2021-11-19T10:04:21.000Z</time>
      </trkpt>
      <trkpt lat="44.64605" lon="3.07278">
        <ele>1176.25</ele>
        <time>2021-11-19T10:04:50.000Z</time>
      </trkpt>
      <trkpt lat="44.64604" lon="3.07279">
        <ele>1165.39</ele>
        <time>2021-11-19T10:05:18.000Z</time>
      </trkpt>
      <trkpt lat="44.64609" lon="3.07275">
        <ele>1163.54</ele>
        <time>2021-11-19T10:05:28.000Z</time>
      </trkpt>
      <trkpt lat="44.64611" lon="3.07275">
        <ele>1175.02</ele>
        <time>2021-11-19T10:05:38.000Z</time>
      </trkpt>
      <trkpt lat="44.64611" lon="3.07277">
        <ele>1179.34</ele>
        <time>2021-11-19T10:05:55.000Z</time>
      </trkpt>
      <trkpt lat="44.6461" lon="3.07277">
        <ele>1179.09</ele>
        <time>2021-11-19T10:06:05.000Z</time>
      </trkpt>
      <trkpt lat="44.64615" lon="3.0727">
        <ele>1172.31</ele>
        <time>2021-11-19T10:06:14.326Z</time>
      </trkpt>
      <trkpt lat="44.64621" lon="3.07266">
        <ele>1184.9</ele>
        <time>2021-11-19T10:06:24.000Z</time>
      </trkpt>
      <trkpt lat="44.64623" lon="3.07264">
        <ele>1177.86</ele>
        <time>2021-11-19T10:06:39.224Z</time>
      </trkpt>
      <trkpt lat="44.64627" lon="3.07258">
        <ele>1167.83</ele>
        <time>2021-11-19T10:06:49.000Z</time>
      </trkpt>
      <trkpt lat="44.64632" lon="3.07256">
        <ele>1165.33</ele>
        <time>2021-11-19T10:06:59.319Z</time>
      </trkpt>
      <trkpt lat="44.6464" lon="3.07248">
        <ele>1176.15</ele>
        <time>2021-11-19T10:07:09.346Z</time>
      </trkpt>
      <trkpt lat="44.64651" lon="3.0725">
        <ele>1172.72</ele>
        <time>2021-11-19T10:07:18.388Z</time>
      </trkpt>
      <trkpt lat="44.64663" lon="3.07253">
        <ele>1172.19</ele>
        <time>2021-11-19T10:07:27.760Z</time>
      </trkpt>
      <trkpt lat="44.64672" lon="3.07258">
        <ele>1181.64</ele>
        <time>2021-11-19T10:07:38.000Z</time>
      </trkpt>
      <trkpt lat="44.64678" lon="3.07258">
        <ele>1162.87</ele>
        <time>2021-11-19T10:07:48.000Z</time>
      </trkpt>
      <trkpt lat="44.64685" lon="3.07254">
        <ele>1182.95</ele>
        <time>2021-11-19T10:07:59.000Z</time>
      </trkpt>
      <trkpt lat="44.64692" lon="3.07248">
        <ele>1186.46</ele>
        <time>2021-11-19T10:08:09.000Z</time>
      </trkpt>
      <trkpt lat="44.64693" lon="3.07247">
        <ele>1175.89</ele>
        <time>2021-11-19T10:08:23.000Z</time>
      </trkpt>
      <trkpt lat="44.64691" lon="3.07251">
        <ele>1175.83</ele>
        <time>2021-11-19T10:08:33.000Z</time>
      </trkpt>
      <trkpt lat="44.64692" lon="3.0725">
        <ele>1168.04</ele>
        <time>2021-11-19T10:09:21.000Z</time>
      </trkpt>
      <trkpt lat="44.64704" lon="3.07248">
        <ele>1182.48</ele>
        <time>2021-11-19T10:09:30.282Z</time>
      </trkpt>
      <trkpt lat="44.64719" lon="3.07245">
        <ele>1181.94</ele>
        <time>2021-11-19T10:09:39.769Z</time>
      </trkpt>
      <trkpt lat="44.64732" lon="3.07247">
        <ele>1177.57</ele>
        <time>2021-11-19T10:09:49.259Z</time>
      </trkpt>
      <trkpt lat="44.64741" lon="3.07254">
        <ele>1175.19</ele>
        <time>2021-11-19T10:09:58.648Z</time>
      </trkpt>
      <trkpt lat="44.64749" lon="3.07269">
        <ele>1187.16</ele>
        <time>2021-11-19T10:10:08.000Z</time>
      </trkpt>
      <trkpt lat="44.64759" lon="3.07283">
        <ele>1176.3</ele>
        <time>2021-11-19T10:10:17.609Z</time>
      </trkpt>
      <trkpt lat="44.64769" lon="3.07289">
        <ele>1174.28</ele>
        <time>2021-11-19T10:10:27.000Z</time>
      </trkpt>
      <trkpt lat="44.64782" lon="3.07295">
        <ele>1163.32</ele>
        <time>2021-11-19T10:10:36.616Z</time>
      </trkpt>
      <trkpt lat="44.64794" lon="3.07292">
        <ele>1171.99</ele>
        <time>2021-11-19T10:10:46.415Z</time>
      </trkpt>
      <trkpt lat="44.64805" lon="3.07301">
        <ele>1167.76</ele>
        <time>2021-11-19T10:10:56.304Z</time>
      </trkpt>
      <trkpt lat="44.6481" lon="3.07314">
        <ele>1177.61</ele>
        <time>2021-11-19T10:11:06.000Z</time>
      </trkpt>
      <trkpt lat="44.64815" lon="3.07329">
        <ele>1181.93</ele>
        <time>2021-11-19T10:11:15.455Z</time>
      </trkpt>
      <trkpt lat="44.64822" lon="3.07343">
        <ele>1177.42</ele>
        <time>2021-11-19T10:11:25.339Z</time>
      </trkpt>
      <trkpt lat="44.64828" lon="3.07357">
        <ele>1164.6</ele>
        <time>2021-11-19T10:11:35.119Z</time>
      </trkpt>
      <trkpt lat="44.64835" lon="3.07368">
        <ele>1170.52</ele>
        <time>2021-11-19T10:11:44.425Z</time>
      </trkpt>
      <trkpt lat="44.64842" lon="3.07382">
        <ele>1173.44</ele>
        <time>2021-11-19T10:11:54.200Z</time>
      </trkpt>
      <trkpt lat="44.64846" lon="3.07394">
        <ele>1168.83</ele>
        <time>2021-11-19T10:12:05.000Z</time>
      </trkpt>
      <trkpt lat="44.64853" lon="3.0741">
        <ele>1176.28</ele>
        <time>2021-11-19T10:12:15.137Z</time>
      </trkpt>
      <trkpt lat="44.64859" lon="3.07422">
        <ele>1167.96</ele>
        <time>2021-11-19T10:12:24.475Z</time>
      </trkpt>
      <trkpt lat="44.64861" lon="3.07425">
        <ele>1174.48</ele>
        <time>2021-11-19T10:12:34.000Z</time>
      </trkpt>
      <trkpt lat="44.64861" lon="3.07424">
        <ele>1180.55</ele>
        <time>2021-11-19T10:12:48.000Z</time>
      </trkpt>
      <trkpt lat="44.64861" lon="3.07426">
        <ele>1168.31</ele>
        <time>2021-11-19T10:13:25.000Z</time>
      </trkpt>
      <trkpt lat="44.64869" lon="3.07438">
        <ele>1154.15</ele>
        <time>2021-11-19T10:13:34.283Z</time>
      </trkpt>
      <trkpt lat="44.64874" lon="3.07453">
        <ele>1174.18</ele>
        <time>2021-11-19T10:13:43.316Z</time>
      </trkpt>
      <trkpt lat="44.64883" lon="3.07463">
        <ele>1174.48</ele>
        <time>2021-11-19T10:13:52.878Z</time>
      </trkpt>
      <trkpt lat="44.64889" lon="3.07479">
        <ele>1166.98</ele>
        <time>2021-11-19T10:14:02.395Z</time>
      </trkpt>
      <trkpt lat="44.64893" lon="3.0749">
        <ele>1170.18</ele>
        <time>2021-11-19T10:14:11.456Z</time>
      </trkpt>
      <trkpt lat="44.64898" lon="3.07504">
        <ele>1162.98</ele>
        <time>2021-11-19T10:14:20.957Z</time>
      </trkpt>
      <trkpt lat="44.64904" lon="3.07517">
        <ele>1156.54</ele>
        <time>2021-11-19T10:14:30.456Z</time>
      </trkpt>
      <trkpt lat="44.64909" lon="3.07531">
        <ele>1158.91</ele>
        <time>2021-11-19T10:14:39.843Z</time>
      </trkpt>
      <trkpt lat="44.64914" lon="3.07542">
        <ele>1159.82</ele>
        <time>2021-11-19T10:14:50.000Z</time>
      </trkpt>
      <trkpt lat="44.64919" lon="3.07558">
        <ele>1166.6</ele>
        <time>2021-11-19T10:15:00.000Z</time>
      </trkpt>
      <trkpt lat="44.64924" lon="3.07577">
        <ele>1158.88</ele>
        <time>2021-11-19T10:15:09.047Z</time>
      </trkpt>
      <trkpt lat="44.64929" lon="3.07593">
        <ele>1172.42</ele>
        <time>2021-11-19T10:15:18.349Z</time>
      </trkpt>
      <trkpt lat="44.64934" lon="3.0761">
        <ele>1164.58</ele>
        <time>2021-11-19T10:15:27.758Z</time>
      </trkpt>
      <trkpt lat="44.6494" lon="3.07627">
        <ele>1163.2</ele>
        <time>2021-11-19T10:15:39.000Z</time>
      </trkpt>
      <trkpt lat="44.64948" lon="3.07645">
        <ele>1150.74</ele>
        <time>2021-11-19T10:15:48.047Z</time>
      </trkpt>
      <trkpt lat="44.64954" lon="3.07661">
        <ele>1150.39</ele>
        <time>2021-11-19T10:15:57.625Z</time>
      </trkpt>
      <trkpt lat="44.64959" lon="3.07677">
        <ele>1161.74</ele>
        <time>2021-11-19T10:16:07.276Z</time>
      </trkpt>
      <trkpt lat="44.64964" lon="3.07694">
        <ele>1145.75</ele>
        <time>2021-11-19T10:16:16.994Z</time>
      </trkpt>
      <trkpt lat="44.64969" lon="3.07714">
        <ele>1145.55</ele>
        <time>2021-11-19T10:16:27.573Z</time>
      </trkpt>
      <trkpt lat="44.64973" lon="3.07731">
        <ele>1154.74</ele>
        <time>2021-11-19T10:16:36.967Z</time>
      </trkpt>
      <trkpt lat="44.64975" lon="3.07745">
        <ele>1161.37</ele>
        <time>2021-11-19T10:16:46.000Z</time>
      </trkpt>
      <trkpt lat="44.64979" lon="3.07765">
        <ele>1156.25</ele>
        <time>2021-11-19T10:16:55.184Z</time>
      </trkpt>
      <trkpt lat="44.64983" lon="3.07786">
        <ele>1157.69</ele>
        <time>2021-11-19T10:17:05.086Z</time>
      </trkpt>
      <trkpt lat="44.64986" lon="3.07801">
        <ele>1157.47</ele>
        <time>2021-11-19T10:17:14.433Z</time>
      </trkpt>
      <trkpt lat="44.6499" lon="3.07818">
        <ele>1151.05</ele>
        <time>2021-11-19T10:17:23.690Z</time>
      </trkpt>
      <trkpt lat="44.64992" lon="3.07833">
        <ele>1152</ele>
        <time>2021-11-19T10:17:33.000Z</time>
      </trkpt>
      <trkpt lat="44.64994" lon="3.07853">
        <ele>1160.09</ele>
        <time>2021-11-19T10:17:42.343Z</time>
      </trkpt>
      <trkpt lat="44.64996" lon="3.07871">
        <ele>1153.85</ele>
        <time>2021-11-19T10:17:53.000Z</time>
      </trkpt>
      <trkpt lat="44.64999" lon="3.07893">
        <ele>1166.95</ele>
        <time>2021-11-19T10:18:02.645Z</time>
      </trkpt>
      <trkpt lat="44.65001" lon="3.07912">
        <ele>1157.01</ele>
        <time>2021-11-19T10:18:12.568Z</time>
      </trkpt>
      <trkpt lat="44.65" lon="3.07931">
        <ele>1150.1</ele>
        <time>2021-11-19T10:18:21.829Z</time>
      </trkpt>
      <trkpt lat="44.65005" lon="3.07948">
        <ele>1153.87</ele>
        <time>2021-11-19T10:18:31.149Z</time>
      </trkpt>
      <trkpt lat="44.65009" lon="3.07965">
        <ele>1156.88</ele>
        <time>2021-11-19T10:18:42.000Z</time>
      </trkpt>
      <trkpt lat="44.65014" lon="3.07985">
        <ele>1161.01</ele>
        <time>2021-11-19T10:18:51.432Z</time>
      </trkpt>
      <trkpt lat="44.65019" lon="3.08001">
        <ele>1162.95</ele>
        <time>2021-11-19T10:19:00.801Z</time>
      </trkpt>
      <trkpt lat="44.65025" lon="3.08017">
        <ele>1155.57</ele>
        <time>2021-11-19T10:19:10.222Z</time>
      </trkpt>
      <trkpt lat="44.6503" lon="3.08032">
        <ele>1167.99</ele>
        <time>2021-11-19T10:19:19.224Z</time>
      </trkpt>
      <trkpt lat="44.65034" lon="3.08049">
        <ele>1158.18</ele>
        <time>2021-11-19T10:19:29.282Z</time>
      </trkpt>
      <trkpt lat="44.65031" lon="3.08065">
        <ele>1160.72</ele>
        <time>2021-11-19T10:19:38.283Z</time>
      </trkpt>
      <trkpt lat="44.65028" lon="3.0808">
        <ele>1152.18</ele>
        <time>2021-11-19T10:19:47.322Z</time>
      </trkpt>
      <trkpt lat="44.65022" lon="3.08095">
        <ele>1154.58</ele>
        <time>2021-11-19T10:19:56.568Z</time>
      </trkpt>
      <trkpt lat="44.65015" lon="3.08108">
        <ele>1157.66</ele>
        <time>2021-11-19T10:20:06.069Z</time>
      </trkpt>
      <trkpt lat="44.6501" lon="3.08122">
        <ele>1169.73</ele>
        <time>2021-11-19T10:20:15.070Z</time>
      </trkpt>
      <trkpt lat="44.65006" lon="3.08135">
        <ele>1149.57</ele>
        <time>2021-11-19T10:20:25.000Z</time>
      </trkpt>
      <trkpt lat="44.64998" lon="3.08147">
        <ele>1164.68</ele>
        <time>2021-11-19T10:20:34.553Z</time>
      </trkpt>
      <trkpt lat="44.65007" lon="3.08166">
        <ele>1147.86</ele>
        <time>2021-11-19T10:20:46.000Z</time>
      </trkpt>
      <trkpt lat="44.65016" lon="3.08177">
        <ele>1162.36</ele>
        <time>2021-11-19T10:20:55.125Z</time>
      </trkpt>
      <trkpt lat="44.65024" lon="3.08187">
        <ele>1148.54</ele>
        <time>2021-11-19T10:21:04.204Z</time>
      </trkpt>
      <trkpt lat="44.65029" lon="3.08202">
        <ele>1148.34</ele>
        <time>2021-11-19T10:21:13.355Z</time>
      </trkpt>
      <trkpt lat="44.65033" lon="3.08214">
        <ele>1161.17</ele>
        <time>2021-11-19T10:21:22.937Z</time>
      </trkpt>
      <trkpt lat="44.65041" lon="3.0822">
        <ele>1149.88</ele>
        <time>2021-11-19T10:21:32.000Z</time>
      </trkpt>
      <trkpt lat="44.65044" lon="3.08227">
        <ele>1152.82</ele>
        <time>2021-11-19T10:21:42.000Z</time>
      </trkpt>
      <trkpt lat="44.65053" lon="3.08242">
        <ele>1154.72</ele>
        <time>2021-11-19T10:21:52.000Z</time>
      </trkpt>
      <trkpt lat="44.65063" lon="3.08256">
        <ele>1146.18</ele>
        <time>2021-11-19T10:22:01.564Z</time>
      </trkpt>
      <trkpt lat="44.6507" lon="3.0827">
        <ele>1157.88</ele>
        <time>2021-11-19T10:22:11.326Z</time>
      </trkpt>
      <trkpt lat="44.65076" lon="3.08284">
        <ele>1162.14</ele>
        <time>2021-11-19T10:22:20.629Z</time>
      </trkpt>
      <trkpt lat="44.65078" lon="3.08302">
        <ele>1156.89</ele>
        <time>2021-11-19T10:22:30.294Z</time>
      </trkpt>
      <trkpt lat="44.65081" lon="3.08319">
        <ele>1161.26</ele>
        <time>2021-11-19T10:22:40.073Z</time>
      </trkpt>
      <trkpt lat="44.65084" lon="3.08334">
        <ele>1142.41</ele>
        <time>2021-11-19T10:22:49.445Z</time>
      </trkpt>
      <trkpt lat="44.65087" lon="3.0835">
        <ele>1154.19</ele>
        <time>2021-11-19T10:23:01.000Z</time>
      </trkpt>
      <trkpt lat="44.6509" lon="3.08369">
        <ele>1155.77</ele>
        <time>2021-11-19T10:23:10.057Z</time>
      </trkpt>
      <trkpt lat="44.65093" lon="3.08383">
        <ele>1151.39</ele>
        <time>2021-11-19T10:23:20.000Z</time>
      </trkpt>
      <trkpt lat="44.65095" lon="3.084">
        <ele>1154.07</ele>
        <time>2021-11-19T10:23:30.000Z</time>
      </trkpt>
      <trkpt lat="44.65098" lon="3.08418">
        <ele>1150.73</ele>
        <time>2021-11-19T10:23:39.015Z</time>
      </trkpt>
      <trkpt lat="44.65101" lon="3.08434">
        <ele>1152.19</ele>
        <time>2021-11-19T10:23:49.066Z</time>
      </trkpt>
      <trkpt lat="44.65105" lon="3.08449">
        <ele>1170</ele>
        <time>2021-11-19T10:23:58.442Z</time>
      </trkpt>
      <trkpt lat="44.65106" lon="3.08465">
        <ele>1154.7</ele>
        <time>2021-11-19T10:24:09.000Z</time>
      </trkpt>
      <trkpt lat="44.65114" lon="3.08482">
        <ele>1151.73</ele>
        <time>2021-11-19T10:24:18.230Z</time>
      </trkpt>
      <trkpt lat="44.65122" lon="3.08493">
        <ele>1147.76</ele>
        <time>2021-11-19T10:24:28.229Z</time>
      </trkpt>
      <trkpt lat="44.65129" lon="3.08502">
        <ele>1153.2</ele>
        <time>2021-11-19T10:24:37.289Z</time>
      </trkpt>
      <trkpt lat="44.65135" lon="3.08511">
        <ele>1154.15</ele>
        <time>2021-11-19T10:24:48.000Z</time>
      </trkpt>
      <trkpt lat="44.65137" lon="3.08513">
        <ele>1165.21</ele>
        <time>2021-11-19T10:24:58.000Z</time>
      </trkpt>
      <trkpt lat="44.65136" lon="3.08519">
        <ele>1168.41</ele>
        <time>2021-11-19T10:25:10.000Z</time>
      </trkpt>
      <trkpt lat="44.65136" lon="3.08517">
        <ele>1154.11</ele>
        <time>2021-11-19T10:25:28.000Z</time>
      </trkpt>
      <trkpt lat="44.65138" lon="3.08517">
        <ele>1165.61</ele>
        <time>2021-11-19T10:26:08.000Z</time>
      </trkpt>
      <trkpt lat="44.65148" lon="3.08526">
        <ele>1152.53</ele>
        <time>2021-11-19T10:26:17.652Z</time>
      </trkpt>
      <trkpt lat="44.65157" lon="3.08532">
        <ele>1166.91</ele>
        <time>2021-11-19T10:26:28.000Z</time>
      </trkpt>
      <trkpt lat="44.65158" lon="3.08535">
        <ele>1172.6</ele>
        <time>2021-11-19T10:26:37.051Z</time>
      </trkpt>
      <trkpt lat="44.65165" lon="3.08538">
        <ele>1153.53</ele>
        <time>2021-11-19T10:26:46.252Z</time>
      </trkpt>
      <trkpt lat="44.65174" lon="3.08549">
        <ele>1157.36</ele>
        <time>2021-11-19T10:26:55.331Z</time>
      </trkpt>
      <trkpt lat="44.65177" lon="3.08556">
        <ele>1167.94</ele>
        <time>2021-11-19T10:27:05.000Z</time>
      </trkpt>
      <trkpt lat="44.65181" lon="3.08559">
        <ele>1148.8</ele>
        <time>2021-11-19T10:27:14.071Z</time>
      </trkpt>
      <trkpt lat="44.65193" lon="3.08568">
        <ele>1140.89</ele>
        <time>2021-11-19T10:27:23.376Z</time>
      </trkpt>
      <trkpt lat="44.65199" lon="3.0858">
        <ele>1143.64</ele>
        <time>2021-11-19T10:27:34.000Z</time>
      </trkpt>
      <trkpt lat="44.65211" lon="3.08591">
        <ele>1153.49</ele>
        <time>2021-11-19T10:27:43.366Z</time>
      </trkpt>
      <trkpt lat="44.65221" lon="3.08602">
        <ele>1174.98</ele>
        <time>2021-11-19T10:27:52.430Z</time>
      </trkpt>
      <trkpt lat="44.65229" lon="3.08612">
        <ele>1154.79</ele>
        <time>2021-11-19T10:28:01.647Z</time>
      </trkpt>
      <trkpt lat="44.65238" lon="3.08623">
        <ele>1150.71</ele>
        <time>2021-11-19T10:28:10.726Z</time>
      </trkpt>
      <trkpt lat="44.65248" lon="3.08633">
        <ele>1143.68</ele>
        <time>2021-11-19T10:28:20.386Z</time>
      </trkpt>
      <trkpt lat="44.65258" lon="3.08643">
        <ele>1150.67</ele>
        <time>2021-11-19T10:28:32.000Z</time>
      </trkpt>
      <trkpt lat="44.65269" lon="3.08653">
        <ele>1141.76</ele>
        <time>2021-11-19T10:28:41.006Z</time>
      </trkpt>
      <trkpt lat="44.6528" lon="3.08661">
        <ele>1153.74</ele>
        <time>2021-11-19T10:28:50.186Z</time>
      </trkpt>
      <trkpt lat="44.6529" lon="3.08668">
        <ele>1163.68</ele>
        <time>2021-11-19T10:28:59.346Z</time>
      </trkpt>
      <trkpt lat="44.65302" lon="3.08674">
        <ele>1169.18</ele>
        <time>2021-11-19T10:29:09.146Z</time>
      </trkpt>
      <trkpt lat="44.65313" lon="3.08681">
        <ele>1138.48</ele>
        <time>2021-11-19T10:29:18.346Z</time>
      </trkpt>
      <trkpt lat="44.6532" lon="3.08683">
        <ele>1157.45</ele>
        <time>2021-11-19T10:29:28.000Z</time>
      </trkpt>
      <trkpt lat="44.65324" lon="3.08687">
        <ele>1162.74</ele>
        <time>2021-11-19T10:29:38.146Z</time>
      </trkpt>
      <trkpt lat="44.65333" lon="3.08692">
        <ele>1149.74</ele>
        <time>2021-11-19T10:29:47.347Z</time>
      </trkpt>
      <trkpt lat="44.65341" lon="3.08695">
        <ele>1155.17</ele>
        <time>2021-11-19T10:29:57.000Z</time>
      </trkpt>
      <trkpt lat="44.65351" lon="3.08702">
        <ele>1151.22</ele>
        <time>2021-11-19T10:30:06.245Z</time>
      </trkpt>
      <trkpt lat="44.65361" lon="3.08707">
        <ele>1154</ele>
        <time>2021-11-19T10:30:15.306Z</time>
      </trkpt>
      <trkpt lat="44.65369" lon="3.08716">
        <ele>1155.52</ele>
        <time>2021-11-19T10:30:25.326Z</time>
      </trkpt>
      <trkpt lat="44.65379" lon="3.08725">
        <ele>1151.87</ele>
        <time>2021-11-19T10:30:34.466Z</time>
      </trkpt>
      <trkpt lat="44.65387" lon="3.08732">
        <ele>1155.35</ele>
        <time>2021-11-19T10:30:44.206Z</time>
      </trkpt>
      <trkpt lat="44.65394" lon="3.08739">
        <ele>1160.84</ele>
        <time>2021-11-19T10:30:53.266Z</time>
      </trkpt>
      <trkpt lat="44.65399" lon="3.08753">
        <ele>1154.89</ele>
        <time>2021-11-19T10:31:02.645Z</time>
      </trkpt>
      <trkpt lat="44.65407" lon="3.08764">
        <ele>1148.98</ele>
        <time>2021-11-19T10:31:11.977Z</time>
      </trkpt>
      <trkpt lat="44.65413" lon="3.08774">
        <ele>1141.85</ele>
        <time>2021-11-19T10:31:21.000Z</time>
      </trkpt>
      <trkpt lat="44.6542" lon="3.08788">
        <ele>1153.98</ele>
        <time>2021-11-19T10:31:32.000Z</time>
      </trkpt>
      <trkpt lat="44.65427" lon="3.08803">
        <ele>1139.05</ele>
        <time>2021-11-19T10:31:41.206Z</time>
      </trkpt>
      <trkpt lat="44.65438" lon="3.08812">
        <ele>1147.45</ele>
        <time>2021-11-19T10:31:52.000Z</time>
      </trkpt>
      <trkpt lat="44.65446" lon="3.08823">
        <ele>1155.25</ele>
        <time>2021-11-19T10:32:01.416Z</time>
      </trkpt>
      <trkpt lat="44.65456" lon="3.08834">
        <ele>1140.46</ele>
        <time>2021-11-19T10:32:10.627Z</time>
      </trkpt>
      <trkpt lat="44.65464" lon="3.08845">
        <ele>1149.45</ele>
        <time>2021-11-19T10:32:19.926Z</time>
      </trkpt>
      <trkpt lat="44.65472" lon="3.08854">
        <ele>1150.63</ele>
        <time>2021-11-19T10:32:29.186Z</time>
      </trkpt>
      <trkpt lat="44.65481" lon="3.08866">
        <ele>1149.96</ele>
        <time>2021-11-19T10:32:39.123Z</time>
      </trkpt>
      <trkpt lat="44.65489" lon="3.08873">
        <ele>1144.04</ele>
        <time>2021-11-19T10:32:49.000Z</time>
      </trkpt>
      <trkpt lat="44.65498" lon="3.08883">
        <ele>1143.78</ele>
        <time>2021-11-19T10:32:58.385Z</time>
      </trkpt>
      <trkpt lat="44.65502" lon="3.08895">
        <ele>1142.45</ele>
        <time>2021-11-19T10:33:07.745Z</time>
      </trkpt>
      <trkpt lat="44.65508" lon="3.08907">
        <ele>1144.05</ele>
        <time>2021-11-19T10:33:18.000Z</time>
      </trkpt>
      <trkpt lat="44.65515" lon="3.08923">
        <ele>1155.97</ele>
        <time>2021-11-19T10:33:27.447Z</time>
      </trkpt>
      <trkpt lat="44.65516" lon="3.0894">
        <ele>1142.91</ele>
        <time>2021-11-19T10:33:36.628Z</time>
      </trkpt>
      <trkpt lat="44.65515" lon="3.08956">
        <ele>1153.77</ele>
        <time>2021-11-19T10:33:46.050Z</time>
      </trkpt>
      <trkpt lat="44.65514" lon="3.08971">
        <ele>1136.33</ele>
        <time>2021-11-19T10:33:55.788Z</time>
      </trkpt>
      <trkpt lat="44.65513" lon="3.08985">
        <ele>1146.16</ele>
        <time>2021-11-19T10:34:04.889Z</time>
      </trkpt>
      <trkpt lat="44.6551" lon="3.08998">
        <ele>1158.55</ele>
        <time>2021-11-19T10:34:14.268Z</time>
      </trkpt>
      <trkpt lat="44.65509" lon="3.09013">
        <ele>1147</ele>
        <time>2021-11-19T10:34:23.828Z</time>
      </trkpt>
      <trkpt lat="44.65507" lon="3.09024">
        <ele>1154.97</ele>
        <time>2021-11-19T10:34:34.000Z</time>
      </trkpt>
      <trkpt lat="44.65505" lon="3.09025">
        <ele>1141.67</ele>
        <time>2021-11-19T10:34:44.000Z</time>
      </trkpt>
      <trkpt lat="44.65505" lon="3.09024">
        <ele>1169.28</ele>
        <time>2021-11-19T10:34:54.000Z</time>
      </trkpt>
      <trkpt lat="44.65506" lon="3.09026">
        <ele>1138.99</ele>
        <time>2021-11-19T10:36:06.000Z</time>
      </trkpt>
      <trkpt lat="44.65502" lon="3.09044">
        <ele>1155.89</ele>
        <time>2021-11-19T10:36:15.188Z</time>
      </trkpt>
      <trkpt lat="44.65499" lon="3.09059">
        <ele>1145.61</ele>
        <time>2021-11-19T10:36:26.000Z</time>
      </trkpt>
      <trkpt lat="44.65495" lon="3.09078">
        <ele>1159.42</ele>
        <time>2021-11-19T10:36:36.108Z</time>
      </trkpt>
      <trkpt lat="44.65491" lon="3.09089">
        <ele>1149.62</ele>
        <time>2021-11-19T10:36:46.000Z</time>
      </trkpt>
      <trkpt lat="44.65491" lon="3.09091">
        <ele>1155.03</ele>
        <time>2021-11-19T10:37:02.000Z</time>
      </trkpt>
      <trkpt lat="44.65484" lon="3.09109">
        <ele>1154.41</ele>
        <time>2021-11-19T10:37:11.248Z</time>
      </trkpt>
      <trkpt lat="44.65479" lon="3.09124">
        <ele>1161.03</ele>
        <time>2021-11-19T10:37:20.571Z</time>
      </trkpt>
      <trkpt lat="44.65476" lon="3.09139">
        <ele>1155.97</ele>
        <time>2021-11-19T10:37:30.209Z</time>
      </trkpt>
      <trkpt lat="44.65471" lon="3.09152">
        <ele>1151.81</ele>
        <time>2021-11-19T10:37:40.000Z</time>
      </trkpt>
      <trkpt lat="44.65463" lon="3.0917">
        <ele>1161.38</ele>
        <time>2021-11-19T10:37:50.216Z</time>
      </trkpt>
      <trkpt lat="44.65457" lon="3.09185">
        <ele>1154.16</ele>
        <time>2021-11-19T10:38:01.000Z</time>
      </trkpt>
      <trkpt lat="44.6545" lon="3.09201">
        <ele>1153.19</ele>
        <time>2021-11-19T10:38:10.116Z</time>
      </trkpt>
      <trkpt lat="44.65445" lon="3.09214">
        <ele>1156.71</ele>
        <time>2021-11-19T10:38:19.389Z</time>
      </trkpt>
      <trkpt lat="44.65436" lon="3.0923">
        <ele>1167.24</ele>
        <time>2021-11-19T10:38:29.057Z</time>
      </trkpt>
      <trkpt lat="44.65428" lon="3.09241">
        <ele>1154.22</ele>
        <time>2021-11-19T10:38:38.382Z</time>
      </trkpt>
      <trkpt lat="44.6542" lon="3.09255">
        <ele>1170.67</ele>
        <time>2021-11-19T10:38:48.222Z</time>
      </trkpt>
      <trkpt lat="44.65412" lon="3.09267">
        <ele>1163.09</ele>
        <time>2021-11-19T10:38:59.000Z</time>
      </trkpt>
      <trkpt lat="44.65402" lon="3.09285">
        <ele>1168.36</ele>
        <time>2021-11-19T10:39:09.010Z</time>
      </trkpt>
      <trkpt lat="44.65395" lon="3.09298">
        <ele>1153.32</ele>
        <time>2021-11-19T10:39:18.261Z</time>
      </trkpt>
      <trkpt lat="44.65389" lon="3.09312">
        <ele>1171.95</ele>
        <time>2021-11-19T10:39:29.000Z</time>
      </trkpt>
      <trkpt lat="44.65381" lon="3.09328">
        <ele>1168.82</ele>
        <time>2021-11-19T10:39:40.000Z</time>
      </trkpt>
      <trkpt lat="44.65373" lon="3.09345">
        <ele>1150.55</ele>
        <time>2021-11-19T10:39:49.301Z</time>
      </trkpt>
      <trkpt lat="44.65368" lon="3.0936">
        <ele>1157.34</ele>
        <time>2021-11-19T10:39:59.121Z</time>
      </trkpt>
      <trkpt lat="44.65362" lon="3.09375">
        <ele>1172.86</ele>
        <time>2021-11-19T10:40:08.442Z</time>
      </trkpt>
      <trkpt lat="44.65357" lon="3.0939">
        <ele>1171.39</ele>
        <time>2021-11-19T10:40:18.461Z</time>
      </trkpt>
      <trkpt lat="44.65355" lon="3.09405">
        <ele>1180.7</ele>
        <time>2021-11-19T10:40:27.821Z</time>
      </trkpt>
      <trkpt lat="44.65351" lon="3.09421">
        <ele>1159.16</ele>
        <time>2021-11-19T10:40:37.161Z</time>
      </trkpt>
      <trkpt lat="44.65348" lon="3.09438">
        <ele>1159.36</ele>
        <time>2021-11-19T10:40:47.182Z</time>
      </trkpt>
      <trkpt lat="44.65345" lon="3.09453">
        <ele>1163.34</ele>
        <time>2021-11-19T10:40:56.501Z</time>
      </trkpt>
      <trkpt lat="44.65342" lon="3.09469">
        <ele>1167.88</ele>
        <time>2021-11-19T10:41:05.902Z</time>
      </trkpt>
      <trkpt lat="44.65339" lon="3.09483">
        <ele>1171.91</ele>
        <time>2021-11-19T10:41:15.262Z</time>
      </trkpt>
      <trkpt lat="44.65334" lon="3.09498">
        <ele>1171.18</ele>
        <time>2021-11-19T10:41:24.542Z</time>
      </trkpt>
      <trkpt lat="44.65331" lon="3.09514">
        <ele>1181.08</ele>
        <time>2021-11-19T10:41:33.762Z</time>
      </trkpt>
      <trkpt lat="44.65328" lon="3.09528">
        <ele>1174.05</ele>
        <time>2021-11-19T10:41:42.941Z</time>
      </trkpt>
      <trkpt lat="44.65326" lon="3.09543">
        <ele>1164.97</ele>
        <time>2021-11-19T10:41:53.000Z</time>
      </trkpt>
      <trkpt lat="44.65324" lon="3.09561">
        <ele>1178</ele>
        <time>2021-11-19T10:42:04.000Z</time>
      </trkpt>
      <trkpt lat="44.65324" lon="3.09581">
        <ele>1170.94</ele>
        <time>2021-11-19T10:42:13.342Z</time>
      </trkpt>
      <trkpt lat="44.65325" lon="3.09598">
        <ele>1169.46</ele>
        <time>2021-11-19T10:42:23.121Z</time>
      </trkpt>
      <trkpt lat="44.65328" lon="3.09613">
        <ele>1155.82</ele>
        <time>2021-11-19T10:42:32.282Z</time>
      </trkpt>
      <trkpt lat="44.65328" lon="3.09628">
        <ele>1157.33</ele>
        <time>2021-11-19T10:42:43.000Z</time>
      </trkpt>
      <trkpt lat="44.65329" lon="3.09644">
        <ele>1169.35</ele>
        <time>2021-11-19T10:42:53.000Z</time>
      </trkpt>
      <trkpt lat="44.65329" lon="3.09662">
        <ele>1153.64</ele>
        <time>2021-11-19T10:43:02.441Z</time>
      </trkpt>
      <trkpt lat="44.65329" lon="3.09677">
        <ele>1165.53</ele>
        <time>2021-11-19T10:43:12.322Z</time>
      </trkpt>
      <trkpt lat="44.65328" lon="3.09694">
        <ele>1161.85</ele>
        <time>2021-11-19T10:43:22.241Z</time>
      </trkpt>
      <trkpt lat="44.65328" lon="3.09709">
        <ele>1154.98</ele>
        <time>2021-11-19T10:43:31.502Z</time>
      </trkpt>
      <trkpt lat="44.65326" lon="3.09725">
        <ele>1159.41</ele>
        <time>2021-11-19T10:43:41.321Z</time>
      </trkpt>
      <trkpt lat="44.65323" lon="3.09742">
        <ele>1163.91</ele>
        <time>2021-11-19T10:43:51.062Z</time>
      </trkpt>
      <trkpt lat="44.65318" lon="3.09757">
        <ele>1151.37</ele>
        <time>2021-11-19T10:44:00.281Z</time>
      </trkpt>
      <trkpt lat="44.65314" lon="3.09772">
        <ele>1152.85</ele>
        <time>2021-11-19T10:44:09.442Z</time>
      </trkpt>
      <trkpt lat="44.65309" lon="3.09787">
        <ele>1165.51</ele>
        <time>2021-11-19T10:44:18.662Z</time>
      </trkpt>
      <trkpt lat="44.65304" lon="3.09804">
        <ele>1160.11</ele>
        <time>2021-11-19T10:44:27.902Z</time>
      </trkpt>
      <trkpt lat="44.65299" lon="3.09818">
        <ele>1170.28</ele>
        <time>2021-11-19T10:44:37.082Z</time>
      </trkpt>
      <trkpt lat="44.65294" lon="3.09832">
        <ele>1161.16</ele>
        <time>2021-11-19T10:44:46.422Z</time>
      </trkpt>
      <trkpt lat="44.6529" lon="3.09846">
        <ele>1180.77</ele>
        <time>2021-11-19T10:44:55.942Z</time>
      </trkpt>
      <trkpt lat="44.65287" lon="3.0986">
        <ele>1160.29</ele>
        <time>2021-11-19T10:45:04.985Z</time>
      </trkpt>
      <trkpt lat="44.65282" lon="3.09875">
        <ele>1175.59</ele>
        <time>2021-11-19T10:45:16.000Z</time>
      </trkpt>
      <trkpt lat="44.6528" lon="3.0989">
        <ele>1161.53</ele>
        <time>2021-11-19T10:45:26.000Z</time>
      </trkpt>
      <trkpt lat="44.65276" lon="3.09908">
        <ele>1168.81</ele>
        <time>2021-11-19T10:45:35.441Z</time>
      </trkpt>
      <trkpt lat="44.65273" lon="3.09923">
        <ele>1163.29</ele>
        <time>2021-11-19T10:45:44.861Z</time>
      </trkpt>
      <trkpt lat="44.65272" lon="3.09938">
        <ele>1158.12</ele>
        <time>2021-11-19T10:45:53.942Z</time>
      </trkpt>
      <trkpt lat="44.65269" lon="3.09951">
        <ele>1161.3</ele>
        <time>2021-11-19T10:46:05.000Z</time>
      </trkpt>
      <trkpt lat="44.6527" lon="3.09949">
        <ele>1163.7</ele>
        <time>2021-11-19T10:46:15.000Z</time>
      </trkpt>
      <trkpt lat="44.65269" lon="3.09957">
        <ele>1176.32</ele>
        <time>2021-11-19T10:46:24.641Z</time>
      </trkpt>
      <trkpt lat="44.65266" lon="3.09974">
        <ele>1165.48</ele>
        <time>2021-11-19T10:46:34.142Z</time>
      </trkpt>
      <trkpt lat="44.65261" lon="3.09991">
        <ele>1165.84</ele>
        <time>2021-11-19T10:46:44.382Z</time>
      </trkpt>
      <trkpt lat="44.65257" lon="3.10006">
        <ele>1178.89</ele>
        <time>2021-11-19T10:46:53.942Z</time>
      </trkpt>
      <trkpt lat="44.65252" lon="3.10018">
        <ele>1174.28</ele>
        <time>2021-11-19T10:47:03.062Z</time>
      </trkpt>
      <trkpt lat="44.65245" lon="3.10028">
        <ele>1162.2</ele>
        <time>2021-11-19T10:47:12.146Z</time>
      </trkpt>
      <trkpt lat="44.65239" lon="3.10039">
        <ele>1164.94</ele>
        <time>2021-11-19T10:47:22.000Z</time>
      </trkpt>
      <trkpt lat="44.65233" lon="3.10051">
        <ele>1175.05</ele>
        <time>2021-11-19T10:47:31.062Z</time>
      </trkpt>
      <trkpt lat="44.65224" lon="3.1006">
        <ele>1189.6</ele>
        <time>2021-11-19T10:47:40.341Z</time>
      </trkpt>
      <trkpt lat="44.65216" lon="3.10067">
        <ele>1163.1</ele>
        <time>2021-11-19T10:47:49.464Z</time>
      </trkpt>
      <trkpt lat="44.65206" lon="3.10075">
        <ele>1176.69</ele>
        <time>2021-11-19T10:47:59.061Z</time>
      </trkpt>
      <trkpt lat="44.65196" lon="3.10085">
        <ele>1175.41</ele>
        <time>2021-11-19T10:48:09.161Z</time>
      </trkpt>
      <trkpt lat="44.65187" lon="3.10089">
        <ele>1175.21</ele>
        <time>2021-11-19T10:48:19.000Z</time>
      </trkpt>
      <trkpt lat="44.65176" lon="3.101">
        <ele>1186.53</ele>
        <time>2021-11-19T10:48:28.062Z</time>
      </trkpt>
      <trkpt lat="44.65167" lon="3.10108">
        <ele>1178.05</ele>
        <time>2021-11-19T10:48:39.000Z</time>
      </trkpt>
      <trkpt lat="44.65157" lon="3.10118">
        <ele>1171.85</ele>
        <time>2021-11-19T10:48:48.221Z</time>
      </trkpt>
      <trkpt lat="44.65147" lon="3.10127">
        <ele>1173.3</ele>
        <time>2021-11-19T10:48:58.402Z</time>
      </trkpt>
      <trkpt lat="44.65137" lon="3.10136">
        <ele>1180.15</ele>
        <time>2021-11-19T10:49:07.861Z</time>
      </trkpt>
      <trkpt lat="44.65128" lon="3.10145">
        <ele>1182.83</ele>
        <time>2021-11-19T10:49:19.000Z</time>
      </trkpt>
      <trkpt lat="44.65118" lon="3.10154">
        <ele>1173.39</ele>
        <time>2021-11-19T10:49:29.000Z</time>
      </trkpt>
      <trkpt lat="44.65108" lon="3.10165">
        <ele>1183.02</ele>
        <time>2021-11-19T10:49:38.322Z</time>
      </trkpt>
      <trkpt lat="44.65105" lon="3.10177">
        <ele>1176.73</ele>
        <time>2021-11-19T10:49:50.000Z</time>
      </trkpt>
      <trkpt lat="44.65103" lon="3.10191">
        <ele>1197.52</ele>
        <time>2021-11-19T10:49:59.322Z</time>
      </trkpt>
      <trkpt lat="44.65105" lon="3.10202">
        <ele>1168.31</ele>
        <time>2021-11-19T10:50:09.000Z</time>
      </trkpt>
      <trkpt lat="44.65103" lon="3.10202">
        <ele>1175.93</ele>
        <time>2021-11-19T10:50:19.000Z</time>
      </trkpt>
      <trkpt lat="44.65104" lon="3.10204">
        <ele>1179.74</ele>
        <time>2021-11-19T10:50:33.000Z</time>
      </trkpt>
      <trkpt lat="44.65104" lon="3.10218">
        <ele>1161.54</ele>
        <time>2021-11-19T10:50:42.141Z</time>
      </trkpt>
      <trkpt lat="44.65106" lon="3.10229">
        <ele>1173.9</ele>
        <time>2021-11-19T10:50:51.161Z</time>
      </trkpt>
      <trkpt lat="44.6511" lon="3.10241">
        <ele>1189.03</ele>
        <time>2021-11-19T10:51:02.000Z</time>
      </trkpt>
      <trkpt lat="44.65112" lon="3.10255">
        <ele>1182.73</ele>
        <time>2021-11-19T10:51:13.000Z</time>
      </trkpt>
      <trkpt lat="44.65115" lon="3.1027">
        <ele>1180.58</ele>
        <time>2021-11-19T10:51:24.000Z</time>
      </trkpt>
      <trkpt lat="44.6512" lon="3.10283">
        <ele>1174.02</ele>
        <time>2021-11-19T10:51:33.161Z</time>
      </trkpt>
      <trkpt lat="44.65123" lon="3.10293">
        <ele>1178.73</ele>
        <time>2021-11-19T10:51:44.000Z</time>
      </trkpt>
      <trkpt lat="44.65124" lon="3.10309">
        <ele>1184.26</ele>
        <time>2021-11-19T10:51:53.242Z</time>
      </trkpt>
      <trkpt lat="44.65127" lon="3.10321">
        <ele>1194.56</ele>
        <time>2021-11-19T10:52:02.462Z</time>
      </trkpt>
      <trkpt lat="44.65131" lon="3.10333">
        <ele>1196.35</ele>
        <time>2021-11-19T10:52:12.022Z</time>
      </trkpt>
      <trkpt lat="44.65133" lon="3.10345">
        <ele>1179.42</ele>
        <time>2021-11-19T10:52:22.000Z</time>
      </trkpt>
      <trkpt lat="44.65136" lon="3.10359">
        <ele>1179.43</ele>
        <time>2021-11-19T10:52:32.000Z</time>
      </trkpt>
      <trkpt lat="44.65142" lon="3.10372">
        <ele>1195.95</ele>
        <time>2021-11-19T10:52:42.000Z</time>
      </trkpt>
      <trkpt lat="44.65143" lon="3.10386">
        <ele>1198.93</ele>
        <time>2021-11-19T10:52:51.261Z</time>
      </trkpt>
      <trkpt lat="44.65142" lon="3.10399">
        <ele>1203.67</ele>
        <time>2021-11-19T10:53:00.902Z</time>
      </trkpt>
      <trkpt lat="44.65143" lon="3.10414">
        <ele>1189.13</ele>
        <time>2021-11-19T10:53:10.082Z</time>
      </trkpt>
      <trkpt lat="44.6514" lon="3.10426">
        <ele>1189.33</ele>
        <time>2021-11-19T10:53:20.000Z</time>
      </trkpt>
      <trkpt lat="44.65134" lon="3.10438">
        <ele>1183.01</ele>
        <time>2021-11-19T10:53:30.000Z</time>
      </trkpt>
      <trkpt lat="44.6513" lon="3.1045">
        <ele>1196.48</ele>
        <time>2021-11-19T10:53:40.000Z</time>
      </trkpt>
      <trkpt lat="44.65126" lon="3.10464">
        <ele>1201.11</ele>
        <time>2021-11-19T10:53:51.000Z</time>
      </trkpt>
      <trkpt lat="44.6512" lon="3.10477">
        <ele>1195.78</ele>
        <time>2021-11-19T10:54:00.121Z</time>
      </trkpt>
      <trkpt lat="44.65113" lon="3.10488">
        <ele>1191.09</ele>
        <time>2021-11-19T10:54:10.403Z</time>
      </trkpt>
      <trkpt lat="44.65106" lon="3.10496">
        <ele>1189.42</ele>
        <time>2021-11-19T10:54:20.001Z</time>
      </trkpt>
      <trkpt lat="44.65101" lon="3.10508">
        <ele>1199.62</ele>
        <time>2021-11-19T10:54:29.421Z</time>
      </trkpt>
      <trkpt lat="44.65097" lon="3.10515">
        <ele>1209.09</ele>
        <time>2021-11-19T10:54:39.000Z</time>
      </trkpt>
      <trkpt lat="44.65091" lon="3.10526">
        <ele>1201.97</ele>
        <time>2021-11-19T10:54:50.000Z</time>
      </trkpt>
      <trkpt lat="44.65087" lon="3.10535">
        <ele>1214.2</ele>
        <time>2021-11-19T10:55:00.000Z</time>
      </trkpt>
      <trkpt lat="44.6508" lon="3.10547">
        <ele>1213.33</ele>
        <time>2021-11-19T10:55:09.002Z</time>
      </trkpt>
      <trkpt lat="44.65077" lon="3.10558">
        <ele>1197.28</ele>
        <time>2021-11-19T10:55:19.122Z</time>
      </trkpt>
      <trkpt lat="44.65075" lon="3.1057">
        <ele>1196.98</ele>
        <time>2021-11-19T10:55:29.000Z</time>
      </trkpt>
      <trkpt lat="44.65074" lon="3.10584">
        <ele>1197.06</ele>
        <time>2021-11-19T10:55:38.141Z</time>
      </trkpt>
      <trkpt lat="44.6507" lon="3.10595">
        <ele>1211.8</ele>
        <time>2021-11-19T10:55:47.661Z</time>
      </trkpt>
      <trkpt lat="44.65072" lon="3.10599">
        <ele>1214.08</ele>
        <time>2021-11-19T10:55:57.000Z</time>
      </trkpt>
      <trkpt lat="44.65068" lon="3.10612">
        <ele>1207.03</ele>
        <time>2021-11-19T10:56:06.741Z</time>
      </trkpt>
      <trkpt lat="44.65066" lon="3.10614">
        <ele>1196.76</ele>
        <time>2021-11-19T10:56:16.000Z</time>
      </trkpt>
      <trkpt lat="44.65068" lon="3.10618">
        <ele>1198.32</ele>
        <time>2021-11-19T10:56:26.000Z</time>
      </trkpt>
      <trkpt lat="44.65069" lon="3.10622">
        <ele>1213.53</ele>
        <time>2021-11-19T10:56:36.000Z</time>
      </trkpt>
      <trkpt lat="44.6507" lon="3.10633">
        <ele>1214.33</ele>
        <time>2021-11-19T10:56:46.000Z</time>
      </trkpt>
      <trkpt lat="44.65068" lon="3.10635">
        <ele>1209.72</ele>
        <time>2021-11-19T10:56:56.000Z</time>
      </trkpt>
      <trkpt lat="44.6507" lon="3.10633">
        <ele>1207.7</ele>
        <time>2021-11-19T10:57:06.000Z</time>
      </trkpt>
      <trkpt lat="44.6507" lon="3.10634">
        <ele>1213.81</ele>
        <time>2021-11-19T10:58:10.000Z</time>
      </trkpt>
      <trkpt lat="44.65071" lon="3.10635">
        <ele>1219.52</ele>
        <time>2021-11-19T10:58:20.000Z</time>
      </trkpt>
      <trkpt lat="44.65072" lon="3.10635">
        <ele>1204.02</ele>
        <time>2021-11-19T10:59:45.000Z</time>
      </trkpt>
      <trkpt lat="44.65074" lon="3.10633">
        <ele>1197.88</ele>
        <time>2021-11-19T10:59:55.000Z</time>
      </trkpt>
      <trkpt lat="44.65073" lon="3.10627">
        <ele>1201.79</ele>
        <time>2021-11-19T11:00:05.000Z</time>
      </trkpt>
      <trkpt lat="44.65072" lon="3.10628">
        <ele>1218.48</ele>
        <time>2021-11-19T11:00:15.000Z</time>
      </trkpt>
      <trkpt lat="44.65072" lon="3.10627">
        <ele>1205.21</ele>
        <time>2021-11-19T11:00:43.000Z</time>
      </trkpt>
      <trkpt lat="44.65073" lon="3.10628">
        <ele>1212.67</ele>
        <time>2021-11-19T11:00:57.000Z</time>
      </trkpt>
      <trkpt lat="44.6508" lon="3.10639">
        <ele>1191.05</ele>
        <time>2021-11-19T11:01:07.000Z</time>
      </trkpt>
      <trkpt lat="44.65085" lon="3.10648">
        <ele>1217.61</ele>
        <time>2021-11-19T11:01:17.000Z</time>
      </trkpt>
      <trkpt lat="44.65084" lon="3.10647">
        <ele>1217.12</ele>
        <time>2021-11-19T11:01:27.000Z</time>
      </trkpt>
      <trkpt lat="44.65084" lon="3.10649">
        <ele>1199.89</ele>
        <time>2021-11-19T11:01:38.000Z</time>
      </trkpt>
      <trkpt lat="44.65085" lon="3.1065">
        <ele>1213.23</ele>
        <time>2021-11-19T11:01:56.000Z</time>
      </trkpt>
      <trkpt lat="44.6509" lon="3.10657">
        <ele>1218.29</ele>
        <time>2021-11-19T11:02:06.000Z</time>
      </trkpt>
      <trkpt lat="44.6509" lon="3.10658">
        <ele>1211.49</ele>
        <time>2021-11-19T11:02:16.000Z</time>
      </trkpt>
      <trkpt lat="44.6509" lon="3.1066">
        <ele>1198.58</ele>
        <time>2021-11-19T11:02:26.000Z</time>
      </trkpt>
      <trkpt lat="44.6509" lon="3.10657">
        <ele>1185.61</ele>
        <time>2021-11-19T11:02:37.000Z</time>
      </trkpt>
      <trkpt lat="44.65089" lon="3.10656">
        <ele>1196.49</ele>
        <time>2021-11-19T11:02:47.000Z</time>
      </trkpt>
      <trkpt lat="44.65089" lon="3.10649">
        <ele>1209.68</ele>
        <time>2021-11-19T11:02:57.000Z</time>
      </trkpt>
      <trkpt lat="44.65083" lon="3.10643">
        <ele>1191.08</ele>
        <time>2021-11-19T11:03:07.000Z</time>
      </trkpt>
      <trkpt lat="44.65078" lon="3.10638">
        <ele>1197.74</ele>
        <time>2021-11-19T11:03:17.000Z</time>
      </trkpt>
      <trkpt lat="44.65068" lon="3.10635">
        <ele>1217.76</ele>
        <time>2021-11-19T11:03:27.000Z</time>
      </trkpt>
      <trkpt lat="44.65056" lon="3.10629">
        <ele>1199.61</ele>
        <time>2021-11-19T11:03:37.000Z</time>
      </trkpt>
      <trkpt lat="44.65047" lon="3.10626">
        <ele>1209.38</ele>
        <time>2021-11-19T11:03:47.000Z</time>
      </trkpt>
      <trkpt lat="44.65048" lon="3.10627">
        <ele>1201.39</ele>
        <time>2021-11-19T11:03:57.000Z</time>
      </trkpt>
      <trkpt lat="44.65043" lon="3.1062">
        <ele>1194.97</ele>
        <time>2021-11-19T11:04:07.000Z</time>
      </trkpt>
      <trkpt lat="44.6504" lon="3.10621">
        <ele>1207.08</ele>
        <time>2021-11-19T11:04:17.000Z</time>
      </trkpt>
      <trkpt lat="44.65032" lon="3.10624">
        <ele>1199.22</ele>
        <time>2021-11-19T11:04:27.000Z</time>
      </trkpt>
      <trkpt lat="44.65025" lon="3.10629">
        <ele>1197.77</ele>
        <time>2021-11-19T11:04:37.000Z</time>
      </trkpt>
      <trkpt lat="44.65023" lon="3.10632">
        <ele>1185.12</ele>
        <time>2021-11-19T11:04:47.000Z</time>
      </trkpt>
      <trkpt lat="44.65022" lon="3.10626">
        <ele>1208.44</ele>
        <time>2021-11-19T11:04:57.000Z</time>
      </trkpt>
      <trkpt lat="44.6502" lon="3.10625">
        <ele>1221.79</ele>
        <time>2021-11-19T11:05:07.000Z</time>
      </trkpt>
      <trkpt lat="44.65016" lon="3.10625">
        <ele>1223.4</ele>
        <time>2021-11-19T11:05:17.000Z</time>
      </trkpt>
      <trkpt lat="44.6501" lon="3.10623">
        <ele>1200.51</ele>
        <time>2021-11-19T11:05:27.000Z</time>
      </trkpt>
      <trkpt lat="44.65005" lon="3.10621">
        <ele>1214.34</ele>
        <time>2021-11-19T11:05:37.000Z</time>
      </trkpt>
      <trkpt lat="44.65007" lon="3.10623">
        <ele>1218.41</ele>
        <time>2021-11-19T11:05:47.000Z</time>
      </trkpt>
      <trkpt lat="44.65005" lon="3.10623">
        <ele>1209.91</ele>
        <time>2021-11-19T11:05:57.000Z</time>
      </trkpt>
      <trkpt lat="44.65006" lon="3.10624">
        <ele>1193.27</ele>
        <time>2021-11-19T11:06:07.000Z</time>
      </trkpt>
      <trkpt lat="44.65007" lon="3.10622">
        <ele>1204.32</ele>
        <time>2021-11-19T11:06:17.000Z</time>
      </trkpt>
      <trkpt lat="44.65006" lon="3.10622">
        <ele>1211.33</ele>
        <time>2021-11-19T11:06:32.000Z</time>
      </trkpt>
      <trkpt lat="44.65011" lon="3.1062">
        <ele>1203.39</ele>
        <time>2021-11-19T11:06:42.000Z</time>
      </trkpt>
      <trkpt lat="44.65008" lon="3.1062">
        <ele>1197.54</ele>
        <time>2021-11-19T11:06:52.000Z</time>
      </trkpt>
      <trkpt lat="44.65007" lon="3.10619">
        <ele>1212.45</ele>
        <time>2021-11-19T11:07:04.000Z</time>
      </trkpt>
      <trkpt lat="44.65008" lon="3.10611">
        <ele>1187.85</ele>
        <time>2021-11-19T11:07:14.000Z</time>
      </trkpt>
      <trkpt lat="44.65007" lon="3.10612">
        <ele>1190.9</ele>
        <time>2021-11-19T11:07:25.000Z</time>
      </trkpt>
      <trkpt lat="44.65005" lon="3.10616">
        <ele>1194.13</ele>
        <time>2021-11-19T11:07:35.000Z</time>
      </trkpt>
      <trkpt lat="44.6501" lon="3.1061">
        <ele>1205.4</ele>
        <time>2021-11-19T11:07:45.000Z</time>
      </trkpt>
      <trkpt lat="44.65002" lon="3.10612">
        <ele>1210.43</ele>
        <time>2021-11-19T11:07:55.000Z</time>
      </trkpt>
      <trkpt lat="44.6499" lon="3.10605">
        <ele>1211.47</ele>
        <time>2021-11-19T11:08:05.000Z</time>
      </trkpt>
      <trkpt lat="44.64981" lon="3.10605">
        <ele>1207.84</ele>
        <time>2021-11-19T11:08:15.000Z</time>
      </trkpt>
      <trkpt lat="44.6497" lon="3.10597">
        <ele>1220.1</ele>
        <time>2021-11-19T11:08:25.000Z</time>
      </trkpt>
      <trkpt lat="44.64969" lon="3.10597">
        <ele>1214.39</ele>
        <time>2021-11-19T11:08:35.000Z</time>
      </trkpt>
      <trkpt lat="44.64958" lon="3.10589">
        <ele>1201.55</ele>
        <time>2021-11-19T11:08:45.000Z</time>
      </trkpt>
      <trkpt lat="44.64949" lon="3.10584">
        <ele>1198.16</ele>
        <time>2021-11-19T11:08:55.000Z</time>
      </trkpt>
      <trkpt lat="44.64941" lon="3.1058">
        <ele>1198.8</ele>
        <time>2021-11-19T11:09:05.000Z</time>
      </trkpt>
      <trkpt lat="44.64931" lon="3.10575">
        <ele>1208.89</ele>
        <time>2021-11-19T11:09:15.000Z</time>
      </trkpt>
      <trkpt lat="44.6492" lon="3.10574">
        <ele>1193.06</ele>
        <time>2021-11-19T11:09:25.000Z</time>
      </trkpt>
      <trkpt lat="44.6492" lon="3.10573">
        <ele>1181.93</ele>
        <time>2021-11-19T11:09:48.000Z</time>
      </trkpt>
      <trkpt lat="44.64905" lon="3.1057">
        <ele>1207.93</ele>
        <time>2021-11-19T11:09:58.000Z</time>
      </trkpt>
      <trkpt lat="44.64898" lon="3.10566">
        <ele>1209.3</ele>
        <time>2021-11-19T11:10:08.000Z</time>
      </trkpt>
      <trkpt lat="44.64887" lon="3.10566">
        <ele>1201.13</ele>
        <time>2021-11-19T11:10:18.000Z</time>
      </trkpt>
      <trkpt lat="44.6488" lon="3.10567">
        <ele>1204.09</ele>
        <time>2021-11-19T11:10:28.000Z</time>
      </trkpt>
      <trkpt lat="44.6487" lon="3.10571">
        <ele>1187.91</ele>
        <time>2021-11-19T11:10:38.000Z</time>
      </trkpt>
      <trkpt lat="44.64859" lon="3.10569">
        <ele>1195.84</ele>
        <time>2021-11-19T11:10:48.000Z</time>
      </trkpt>
      <trkpt lat="44.6485" lon="3.10567">
        <ele>1202.19</ele>
        <time>2021-11-19T11:10:58.000Z</time>
      </trkpt>
      <trkpt lat="44.6485" lon="3.10566">
        <ele>1188.61</ele>
        <time>2021-11-19T11:11:08.000Z</time>
      </trkpt>
      <trkpt lat="44.64847" lon="3.10562">
        <ele>1195.99</ele>
        <time>2021-11-19T11:11:18.000Z</time>
      </trkpt>
      <trkpt lat="44.64846" lon="3.10563">
        <ele>1180.83</ele>
        <time>2021-11-19T11:11:28.000Z</time>
      </trkpt>
      <trkpt lat="44.64845" lon="3.10574">
        <ele>1197.74</ele>
        <time>2021-11-19T11:11:38.000Z</time>
      </trkpt>
      <trkpt lat="44.64847" lon="3.1057">
        <ele>1191.82</ele>
        <time>2021-11-19T11:11:48.000Z</time>
      </trkpt>
      <trkpt lat="44.64847" lon="3.10566">
        <ele>1192.71</ele>
        <time>2021-11-19T11:11:58.000Z</time>
      </trkpt>
      <trkpt lat="44.64848" lon="3.10565">
        <ele>1182.14</ele>
        <time>2021-11-19T11:12:08.000Z</time>
      </trkpt>
      <trkpt lat="44.64849" lon="3.10562">
        <ele>1179.08</ele>
        <time>2021-11-19T11:12:18.000Z</time>
      </trkpt>
      <trkpt lat="44.64847" lon="3.10561">
        <ele>1186.84</ele>
        <time>2021-11-19T11:12:28.000Z</time>
      </trkpt>
      <trkpt lat="44.64848" lon="3.10565">
        <ele>1189.63</ele>
        <time>2021-11-19T11:12:38.000Z</time>
      </trkpt>
      <trkpt lat="44.64849" lon="3.10564">
        <ele>1176.75</ele>
        <time>2021-11-19T11:13:05.000Z</time>
      </trkpt>
      <trkpt lat="44.64851" lon="3.10564">
        <ele>1182.93</ele>
        <time>2021-11-19T11:13:15.000Z</time>
      </trkpt>
      <trkpt lat="44.6485" lon="3.10565">
        <ele>1182.42</ele>
        <time>2021-11-19T11:13:51.000Z</time>
      </trkpt>
      <trkpt lat="44.64852" lon="3.10567">
        <ele>1183.51</ele>
        <time>2021-11-19T11:14:01.000Z</time>
      </trkpt>
      <trkpt lat="44.64853" lon="3.10566">
        <ele>1179.91</ele>
        <time>2021-11-19T11:14:29.000Z</time>
      </trkpt>
      <trkpt lat="44.64851" lon="3.10567">
        <ele>1190.85</ele>
        <time>2021-11-19T11:16:22.000Z</time>
      </trkpt>
      <trkpt lat="44.64845" lon="3.10566">
        <ele>1169.95</ele>
        <time>2021-11-19T11:16:32.000Z</time>
      </trkpt>
      <trkpt lat="44.64846" lon="3.10564">
        <ele>1183.58</ele>
        <time>2021-11-19T11:17:25.000Z</time>
      </trkpt>
      <trkpt lat="44.64846" lon="3.10563">
        <ele>1186.81</ele>
        <time>2021-11-19T11:17:35.000Z</time>
      </trkpt>
      <trkpt lat="44.64844" lon="3.10564">
        <ele>1171.69</ele>
        <time>2021-11-19T11:18:10.000Z</time>
      </trkpt>
      <trkpt lat="44.64843" lon="3.10566">
        <ele>1190.55</ele>
        <time>2021-11-19T11:18:20.000Z</time>
      </trkpt>
      <trkpt lat="44.64844" lon="3.10566">
        <ele>1189.11</ele>
        <time>2021-11-19T11:21:08.000Z</time>
      </trkpt>
      <trkpt lat="44.64848" lon="3.10563">
        <ele>1178.61</ele>
        <time>2021-11-19T11:21:18.000Z</time>
      </trkpt>
      <trkpt lat="44.6485" lon="3.10563">
        <ele>1209.19</ele>
        <time>2021-11-19T11:21:45.000Z</time>
      </trkpt>
      <trkpt lat="44.64852" lon="3.10563">
        <ele>1180.23</ele>
        <time>2021-11-19T11:21:55.000Z</time>
      </trkpt>
      <trkpt lat="44.6485" lon="3.10564">
        <ele>1170.64</ele>
        <time>2021-11-19T11:22:21.000Z</time>
      </trkpt>
      <trkpt lat="44.64848" lon="3.10564">
        <ele>1176.75</ele>
        <time>2021-11-19T11:22:31.000Z</time>
      </trkpt>
      <trkpt lat="44.64848" lon="3.10566">
        <ele>1185.77</ele>
        <time>2021-11-19T11:22:47.000Z</time>
      </trkpt>
      <trkpt lat="44.64846" lon="3.10565">
        <ele>1192.62</ele>
        <time>2021-11-19T11:22:57.000Z</time>
      </trkpt>
      <trkpt lat="44.64847" lon="3.10564">
        <ele>1201.24</ele>
        <time>2021-11-19T11:23:22.000Z</time>
      </trkpt>
      <trkpt lat="44.64848" lon="3.10563">
        <ele>1192.95</ele>
        <time>2021-11-19T11:24:28.000Z</time>
      </trkpt>
      <trkpt lat="44.64848" lon="3.10563">
        <ele>1187.55</ele>
        <time>2021-11-19T11:25:16.000Z</time>
      </trkpt>
      <trkpt lat="44.64849" lon="3.10563">
        <ele>1199.96</ele>
        <time>2021-11-19T11:28:08.000Z</time>
      </trkpt>
      <trkpt lat="44.64847" lon="3.10564">
        <ele>1209.85</ele>
        <time>2021-11-19T11:28:21.305Z</time>
      </trkpt>
      <trkpt lat="44.64846" lon="3.10566">
        <ele>1196.31</ele>
        <time>2021-11-19T11:28:32.000Z</time>
      </trkpt>
      <trkpt lat="44.64844" lon="3.10568">
        <ele>1217.31</ele>
        <time>2021-11-19T11:28:42.000Z</time>
      </trkpt>
      <trkpt lat="44.64843" lon="3.10569">
        <ele>1187.72</ele>
        <time>2021-11-19T11:28:52.000Z</time>
      </trkpt>
      <trkpt lat="44.6484" lon="3.1057">
        <ele>1198.01</ele>
        <time>2021-11-19T11:29:03.266Z</time>
      </trkpt>
      <trkpt lat="44.6483" lon="3.10567">
        <ele>1181.32</ele>
        <time>2021-11-19T11:29:13.106Z</time>
      </trkpt>
      <trkpt lat="44.64828" lon="3.10566">
        <ele>1191.79</ele>
        <time>2021-11-19T11:29:23.000Z</time>
      </trkpt>
      <trkpt lat="44.64827" lon="3.10566">
        <ele>1210.67</ele>
        <time>2021-11-19T11:29:36.405Z</time>
      </trkpt>
      <trkpt lat="44.64818" lon="3.10562">
        <ele>1197.76</ele>
        <time>2021-11-19T11:29:46.006Z</time>
      </trkpt>
      <trkpt lat="44.64807" lon="3.10559">
        <ele>1198.26</ele>
        <time>2021-11-19T11:29:57.000Z</time>
      </trkpt>
      <trkpt lat="44.64795" lon="3.10554">
        <ele>1199.02</ele>
        <time>2021-11-19T11:30:06.145Z</time>
      </trkpt>
      <trkpt lat="44.64781" lon="3.10551">
        <ele>1202.12</ele>
        <time>2021-11-19T11:30:16.026Z</time>
      </trkpt>
      <trkpt lat="44.64767" lon="3.10547">
        <ele>1211.27</ele>
        <time>2021-11-19T11:30:26.086Z</time>
      </trkpt>
      <trkpt lat="44.64755" lon="3.10546">
        <ele>1201.91</ele>
        <time>2021-11-19T11:30:36.086Z</time>
      </trkpt>
      <trkpt lat="44.64745" lon="3.10547">
        <ele>1188.56</ele>
        <time>2021-11-19T11:30:46.066Z</time>
      </trkpt>
      <trkpt lat="44.64732" lon="3.10546">
        <ele>1184.69</ele>
        <time>2021-11-19T11:30:56.125Z</time>
      </trkpt>
      <trkpt lat="44.64719" lon="3.10545">
        <ele>1182.6</ele>
        <time>2021-11-19T11:31:07.000Z</time>
      </trkpt>
      <trkpt lat="44.64704" lon="3.1054">
        <ele>1171.6</ele>
        <time>2021-11-19T11:31:16.298Z</time>
      </trkpt>
      <trkpt lat="44.64691" lon="3.10534">
        <ele>1194.97</ele>
        <time>2021-11-19T11:31:25.858Z</time>
      </trkpt>
      <trkpt lat="44.64681" lon="3.10531">
        <ele>1191.08</ele>
        <time>2021-11-19T11:31:35.000Z</time>
      </trkpt>
      <trkpt lat="44.64677" lon="3.10531">
        <ele>1193.71</ele>
        <time>2021-11-19T11:31:45.000Z</time>
      </trkpt>
      <trkpt lat="44.64673" lon="3.10537">
        <ele>1188.45</ele>
        <time>2021-11-19T11:31:55.000Z</time>
      </trkpt>
      <trkpt lat="44.64648" lon="3.1053">
        <ele>1195.71</ele>
        <time>2021-11-19T11:32:05.018Z</time>
      </trkpt>
      <trkpt lat="44.64639" lon="3.10525">
        <ele>1203.01</ele>
        <time>2021-11-19T11:32:14.023Z</time>
      </trkpt>
      <trkpt lat="44.64635" lon="3.10515">
        <ele>1192.81</ele>
        <time>2021-11-19T11:32:23.103Z</time>
      </trkpt>
      <trkpt lat="44.64625" lon="3.10508">
        <ele>1184.21</ele>
        <time>2021-11-19T11:32:32.163Z</time>
      </trkpt>
      <trkpt lat="44.64617" lon="3.10503">
        <ele>1189.25</ele>
        <time>2021-11-19T11:32:41.243Z</time>
      </trkpt>
      <trkpt lat="44.64611" lon="3.10498">
        <ele>1178.13</ele>
        <time>2021-11-19T11:32:50.804Z</time>
      </trkpt>
      <trkpt lat="44.64596" lon="3.10489">
        <ele>1165.88</ele>
        <time>2021-11-19T11:33:00.364Z</time>
      </trkpt>
      <trkpt lat="44.64583" lon="3.1048">
        <ele>1166.44</ele>
        <time>2021-11-19T11:33:09.956Z</time>
      </trkpt>
      <trkpt lat="44.64571" lon="3.10472">
        <ele>1179.42</ele>
        <time>2021-11-19T11:33:20.084Z</time>
      </trkpt>
      <trkpt lat="44.6456" lon="3.10465">
        <ele>1193.57</ele>
        <time>2021-11-19T11:33:29.595Z</time>
      </trkpt>
      <trkpt lat="44.6455" lon="3.10451">
        <ele>1189.68</ele>
        <time>2021-11-19T11:33:39.176Z</time>
      </trkpt>
      <trkpt lat="44.64538" lon="3.10444">
        <ele>1180.3</ele>
        <time>2021-11-19T11:33:50.000Z</time>
      </trkpt>
      <trkpt lat="44.64523" lon="3.10437">
        <ele>1188.05</ele>
        <time>2021-11-19T11:34:00.077Z</time>
      </trkpt>
      <trkpt lat="44.64516" lon="3.10427">
        <ele>1179.68</ele>
        <time>2021-11-19T11:34:09.237Z</time>
      </trkpt>
      <trkpt lat="44.64506" lon="3.1042">
        <ele>1178.28</ele>
        <time>2021-11-19T11:34:19.060Z</time>
      </trkpt>
      <trkpt lat="44.64496" lon="3.1041">
        <ele>1182.3</ele>
        <time>2021-11-19T11:34:28.239Z</time>
      </trkpt>
      <trkpt lat="44.64486" lon="3.10398">
        <ele>1168.6</ele>
        <time>2021-11-19T11:34:38.037Z</time>
      </trkpt>
      <trkpt lat="44.64477" lon="3.1039">
        <ele>1180.45</ele>
        <time>2021-11-19T11:34:47.298Z</time>
      </trkpt>
      <trkpt lat="44.64467" lon="3.10383">
        <ele>1180.73</ele>
        <time>2021-11-19T11:34:56.470Z</time>
      </trkpt>
      <trkpt lat="44.64457" lon="3.10377">
        <ele>1175.72</ele>
        <time>2021-11-19T11:35:06.138Z</time>
      </trkpt>
      <trkpt lat="44.64447" lon="3.10369">
        <ele>1167.11</ele>
        <time>2021-11-19T11:35:15.280Z</time>
      </trkpt>
      <trkpt lat="44.64437" lon="3.10358">
        <ele>1158.67</ele>
        <time>2021-11-19T11:35:24.340Z</time>
      </trkpt>
      <trkpt lat="44.64428" lon="3.10349">
        <ele>1172.4</ele>
        <time>2021-11-19T11:35:33.398Z</time>
      </trkpt>
      <trkpt lat="44.64419" lon="3.1034">
        <ele>1159.69</ele>
        <time>2021-11-19T11:35:43.058Z</time>
      </trkpt>
      <trkpt lat="44.6441" lon="3.10333">
        <ele>1175.99</ele>
        <time>2021-11-19T11:35:52.078Z</time>
      </trkpt>
      <trkpt lat="44.644" lon="3.10326">
        <ele>1195.59</ele>
        <time>2021-11-19T11:36:01.138Z</time>
      </trkpt>
      <trkpt lat="44.6439" lon="3.10318">
        <ele>1173.35</ele>
        <time>2021-11-19T11:36:10.300Z</time>
      </trkpt>
      <trkpt lat="44.6438" lon="3.1031">
        <ele>1177.06</ele>
        <time>2021-11-19T11:36:19.398Z</time>
      </trkpt>
      <trkpt lat="44.6437" lon="3.10301">
        <ele>1161.88</ele>
        <time>2021-11-19T11:36:28.465Z</time>
      </trkpt>
      <trkpt lat="44.64361" lon="3.10292">
        <ele>1177.14</ele>
        <time>2021-11-19T11:36:37.558Z</time>
      </trkpt>
      <trkpt lat="44.64352" lon="3.10282">
        <ele>1172.4</ele>
        <time>2021-11-19T11:36:47.278Z</time>
      </trkpt>
      <trkpt lat="44.64344" lon="3.10272">
        <ele>1176.86</ele>
        <time>2021-11-19T11:36:56.360Z</time>
      </trkpt>
      <trkpt lat="44.64335" lon="3.10262">
        <ele>1172.98</ele>
        <time>2021-11-19T11:37:06.218Z</time>
      </trkpt>
      <trkpt lat="44.64326" lon="3.10251">
        <ele>1177.84</ele>
        <time>2021-11-19T11:37:18.000Z</time>
      </trkpt>
      <trkpt lat="44.64326" lon="3.10253">
        <ele>1175.91</ele>
        <time>2021-11-19T11:37:28.000Z</time>
      </trkpt>
      <trkpt lat="44.64325" lon="3.10253">
        <ele>1174.59</ele>
        <time>2021-11-19T11:37:40.000Z</time>
      </trkpt>
      <trkpt lat="44.64313" lon="3.10243">
        <ele>1176.26</ele>
        <time>2021-11-19T11:37:49.078Z</time>
      </trkpt>
      <trkpt lat="44.64304" lon="3.10235">
        <ele>1173.55</ele>
        <time>2021-11-19T11:37:59.000Z</time>
      </trkpt>
      <trkpt lat="44.64292" lon="3.10229">
        <ele>1166.75</ele>
        <time>2021-11-19T11:38:08.341Z</time>
      </trkpt>
      <trkpt lat="44.64281" lon="3.10222">
        <ele>1162.41</ele>
        <time>2021-11-19T11:38:19.000Z</time>
      </trkpt>
      <trkpt lat="44.64272" lon="3.10209">
        <ele>1188.39</ele>
        <time>2021-11-19T11:38:28.318Z</time>
      </trkpt>
      <trkpt lat="44.64263" lon="3.102">
        <ele>1177.22</ele>
        <time>2021-11-19T11:38:37.860Z</time>
      </trkpt>
      <trkpt lat="44.64253" lon="3.1019">
        <ele>1176.94</ele>
        <time>2021-11-19T11:38:47.465Z</time>
      </trkpt>
      <trkpt lat="44.64244" lon="3.10181">
        <ele>1181.32</ele>
        <time>2021-11-19T11:38:56.899Z</time>
      </trkpt>
      <trkpt lat="44.64235" lon="3.10171">
        <ele>1173.94</ele>
        <time>2021-11-19T11:39:06.140Z</time>
      </trkpt>
      <trkpt lat="44.64226" lon="3.10162">
        <ele>1172.3</ele>
        <time>2021-11-19T11:39:15.462Z</time>
      </trkpt>
      <trkpt lat="44.64217" lon="3.10152">
        <ele>1196.4</ele>
        <time>2021-11-19T11:39:24.819Z</time>
      </trkpt>
      <trkpt lat="44.64207" lon="3.10142">
        <ele>1180.88</ele>
        <time>2021-11-19T11:39:34.060Z</time>
      </trkpt>
      <trkpt lat="44.64199" lon="3.10133">
        <ele>1179.87</ele>
        <time>2021-11-19T11:39:43.139Z</time>
      </trkpt>
      <trkpt lat="44.6419" lon="3.10123">
        <ele>1169.51</ele>
        <time>2021-11-19T11:39:52.397Z</time>
      </trkpt>
      <trkpt lat="44.64181" lon="3.10118">
        <ele>1163.38</ele>
        <time>2021-11-19T11:40:02.000Z</time>
      </trkpt>
      <trkpt lat="44.64167" lon="3.10121">
        <ele>1175.32</ele>
        <time>2021-11-19T11:40:12.120Z</time>
      </trkpt>
      <trkpt lat="44.64156" lon="3.10126">
        <ele>1182.4</ele>
        <time>2021-11-19T11:40:23.000Z</time>
      </trkpt>
      <trkpt lat="44.64143" lon="3.1013">
        <ele>1170.31</ele>
        <time>2021-11-19T11:40:32.238Z</time>
      </trkpt>
      <trkpt lat="44.64133" lon="3.10133">
        <ele>1167.83</ele>
        <time>2021-11-19T11:40:42.000Z</time>
      </trkpt>
      <trkpt lat="44.6412" lon="3.10138">
        <ele>1171.13</ele>
        <time>2021-11-19T11:40:51.509Z</time>
      </trkpt>
      <trkpt lat="44.64109" lon="3.10142">
        <ele>1186.02</ele>
        <time>2021-11-19T11:41:00.899Z</time>
      </trkpt>
      <trkpt lat="44.64097" lon="3.10146">
        <ele>1175.46</ele>
        <time>2021-11-19T11:41:10.138Z</time>
      </trkpt>
      <trkpt lat="44.64087" lon="3.10153">
        <ele>1167.7</ele>
        <time>2021-11-19T11:41:19.338Z</time>
      </trkpt>
      <trkpt lat="44.64075" lon="3.10155">
        <ele>1181.21</ele>
        <time>2021-11-19T11:41:29.118Z</time>
      </trkpt>
      <trkpt lat="44.64064" lon="3.10159">
        <ele>1178.35</ele>
        <time>2021-11-19T11:41:38.278Z</time>
      </trkpt>
      <trkpt lat="44.64053" lon="3.10162">
        <ele>1177.74</ele>
        <time>2021-11-19T11:41:47.445Z</time>
      </trkpt>
      <trkpt lat="44.64043" lon="3.10157">
        <ele>1155.89</ele>
        <time>2021-11-19T11:41:57.217Z</time>
      </trkpt>
      <trkpt lat="44.64036" lon="3.10144">
        <ele>1170.93</ele>
        <time>2021-11-19T11:42:07.177Z</time>
      </trkpt>
      <trkpt lat="44.64028" lon="3.10132">
        <ele>1182.84</ele>
        <time>2021-11-19T11:42:17.098Z</time>
      </trkpt>
      <trkpt lat="44.64019" lon="3.10123">
        <ele>1175.78</ele>
        <time>2021-11-19T11:42:26.398Z</time>
      </trkpt>
      <trkpt lat="44.64014" lon="3.10112">
        <ele>1178.03</ele>
        <time>2021-11-19T11:42:36.000Z</time>
      </trkpt>
      <trkpt lat="44.64013" lon="3.10111">
        <ele>1164.89</ele>
        <time>2021-11-19T11:42:56.200Z</time>
      </trkpt>
      <trkpt lat="44.64004" lon="3.10098">
        <ele>1178.51</ele>
        <time>2021-11-19T11:43:06.000Z</time>
      </trkpt>
      <trkpt lat="44.63993" lon="3.10087">
        <ele>1184.64</ele>
        <time>2021-11-19T11:43:15.437Z</time>
      </trkpt>
      <trkpt lat="44.63983" lon="3.10081">
        <ele>1177.91</ele>
        <time>2021-11-19T11:43:25.058Z</time>
      </trkpt>
      <trkpt lat="44.63973" lon="3.10081">
        <ele>1173.73</ele>
        <time>2021-11-19T11:43:35.000Z</time>
      </trkpt>
      <trkpt lat="44.63959" lon="3.1008">
        <ele>1184.87</ele>
        <time>2021-11-19T11:43:44.179Z</time>
      </trkpt>
      <trkpt lat="44.63949" lon="3.10081">
        <ele>1175.61</ele>
        <time>2021-11-19T11:43:54.000Z</time>
      </trkpt>
      <trkpt lat="44.63935" lon="3.10079">
        <ele>1176.54</ele>
        <time>2021-11-19T11:44:03.338Z</time>
      </trkpt>
      <trkpt lat="44.63925" lon="3.10074">
        <ele>1178.99</ele>
        <time>2021-11-19T11:44:12.800Z</time>
      </trkpt>
      <trkpt lat="44.63916" lon="3.10068">
        <ele>1184.17</ele>
        <time>2021-11-19T11:44:22.320Z</time>
      </trkpt>
      <trkpt lat="44.63906" lon="3.10061">
        <ele>1178.48</ele>
        <time>2021-11-19T11:44:31.920Z</time>
      </trkpt>
      <trkpt lat="44.63895" lon="3.10056">
        <ele>1199.03</ele>
        <time>2021-11-19T11:44:43.000Z</time>
      </trkpt>
      <trkpt lat="44.63884" lon="3.10048">
        <ele>1183.22</ele>
        <time>2021-11-19T11:44:52.218Z</time>
      </trkpt>
      <trkpt lat="44.63873" lon="3.10044">
        <ele>1187.06</ele>
        <time>2021-11-19T11:45:01.743Z</time>
      </trkpt>
      <trkpt lat="44.63863" lon="3.10038">
        <ele>1186.4</ele>
        <time>2021-11-19T11:45:11.260Z</time>
      </trkpt>
      <trkpt lat="44.63852" lon="3.10033">
        <ele>1185.33</ele>
        <time>2021-11-19T11:45:20.760Z</time>
      </trkpt>
      <trkpt lat="44.63844" lon="3.10029">
        <ele>1187.78</ele>
        <time>2021-11-19T11:45:30.000Z</time>
      </trkpt>
      <trkpt lat="44.63831" lon="3.10022">
        <ele>1180.67</ele>
        <time>2021-11-19T11:45:41.000Z</time>
      </trkpt>
      <trkpt lat="44.63818" lon="3.10015">
        <ele>1185.45</ele>
        <time>2021-11-19T11:45:51.121Z</time>
      </trkpt>
      <trkpt lat="44.63807" lon="3.10009">
        <ele>1185.67</ele>
        <time>2021-11-19T11:46:01.137Z</time>
      </trkpt>
      <trkpt lat="44.63796" lon="3.10005">
        <ele>1178.31</ele>
        <time>2021-11-19T11:46:11.098Z</time>
      </trkpt>
      <trkpt lat="44.63788" lon="3.10001">
        <ele>1190.8</ele>
        <time>2021-11-19T11:46:21.000Z</time>
      </trkpt>
      <trkpt lat="44.63789" lon="3.10002">
        <ele>1172.35</ele>
        <time>2021-11-19T11:46:31.000Z</time>
      </trkpt>
      <trkpt lat="44.63778" lon="3.09996">
        <ele>1184.97</ele>
        <time>2021-11-19T11:46:41.160Z</time>
      </trkpt>
      <trkpt lat="44.63766" lon="3.09994">
        <ele>1198.15</ele>
        <time>2021-11-19T11:46:52.000Z</time>
      </trkpt>
      <trkpt lat="44.63753" lon="3.09994">
        <ele>1185.69</ele>
        <time>2021-11-19T11:47:01.160Z</time>
      </trkpt>
      <trkpt lat="44.63742" lon="3.0999">
        <ele>1200.77</ele>
        <time>2021-11-19T11:47:11.085Z</time>
      </trkpt>
      <trkpt lat="44.63733" lon="3.09978">
        <ele>1208.85</ele>
        <time>2021-11-19T11:47:21.099Z</time>
      </trkpt>
      <trkpt lat="44.63729" lon="3.09972">
        <ele>1189.2</ele>
        <time>2021-11-19T11:47:31.000Z</time>
      </trkpt>
      <trkpt lat="44.63729" lon="3.09974">
        <ele>1192.28</ele>
        <time>2021-11-19T11:47:41.000Z</time>
      </trkpt>
      <trkpt lat="44.63728" lon="3.09974">
        <ele>1191.15</ele>
        <time>2021-11-19T11:51:28.000Z</time>
      </trkpt>
      <trkpt lat="44.63718" lon="3.09963">
        <ele>1191.98</ele>
        <time>2021-11-19T11:51:37.398Z</time>
      </trkpt>
      <trkpt lat="44.63704" lon="3.09957">
        <ele>1194.31</ele>
        <time>2021-11-19T11:51:47.139Z</time>
      </trkpt>
      <trkpt lat="44.63693" lon="3.09951">
        <ele>1185.15</ele>
        <time>2021-11-19T11:51:56.818Z</time>
      </trkpt>
      <trkpt lat="44.63681" lon="3.09945">
        <ele>1188.62</ele>
        <time>2021-11-19T11:52:05.881Z</time>
      </trkpt>
      <trkpt lat="44.63669" lon="3.09939">
        <ele>1193.62</ele>
        <time>2021-11-19T11:52:15.280Z</time>
      </trkpt>
      <trkpt lat="44.63656" lon="3.09931">
        <ele>1191.73</ele>
        <time>2021-11-19T11:52:25.280Z</time>
      </trkpt>
      <trkpt lat="44.63644" lon="3.09923">
        <ele>1203.12</ele>
        <time>2021-11-19T11:52:34.758Z</time>
      </trkpt>
      <trkpt lat="44.63633" lon="3.09918">
        <ele>1188.8</ele>
        <time>2021-11-19T11:52:44.000Z</time>
      </trkpt>
      <trkpt lat="44.6362" lon="3.09909">
        <ele>1187.44</ele>
        <time>2021-11-19T11:52:53.420Z</time>
      </trkpt>
      <trkpt lat="44.63608" lon="3.09903">
        <ele>1199.94</ele>
        <time>2021-11-19T11:53:02.678Z</time>
      </trkpt>
      <trkpt lat="44.63596" lon="3.09897">
        <ele>1199.06</ele>
        <time>2021-11-19T11:53:11.801Z</time>
      </trkpt>
      <trkpt lat="44.63581" lon="3.0989">
        <ele>1191.79</ele>
        <time>2021-11-19T11:53:20.918Z</time>
      </trkpt>
      <trkpt lat="44.63569" lon="3.09883">
        <ele>1200.5</ele>
        <time>2021-11-19T11:53:31.000Z</time>
      </trkpt>
      <trkpt lat="44.63557" lon="3.09875">
        <ele>1187.89</ele>
        <time>2021-11-19T11:53:41.000Z</time>
      </trkpt>
      <trkpt lat="44.63538" lon="3.09867">
        <ele>1179.36</ele>
        <time>2021-11-19T11:53:52.000Z</time>
      </trkpt>
      <trkpt lat="44.63522" lon="3.09857">
        <ele>1188.07</ele>
        <time>2021-11-19T11:54:01.313Z</time>
      </trkpt>
      <trkpt lat="44.63509" lon="3.09849">
        <ele>1189.11</ele>
        <time>2021-11-19T11:54:10.632Z</time>
      </trkpt>
      <trkpt lat="44.63496" lon="3.09842">
        <ele>1184.77</ele>
        <time>2021-11-19T11:54:19.928Z</time>
      </trkpt>
      <trkpt lat="44.63484" lon="3.09834">
        <ele>1198.53</ele>
        <time>2021-11-19T11:54:29.176Z</time>
      </trkpt>
      <trkpt lat="44.63472" lon="3.09827">
        <ele>1200.34</ele>
        <time>2021-11-19T11:54:38.523Z</time>
      </trkpt>
      <trkpt lat="44.63458" lon="3.09819">
        <ele>1215.06</ele>
        <time>2021-11-19T11:54:48.198Z</time>
      </trkpt>
      <trkpt lat="44.63445" lon="3.09811">
        <ele>1206.16</ele>
        <time>2021-11-19T11:54:57.357Z</time>
      </trkpt>
      <trkpt lat="44.63431" lon="3.09802">
        <ele>1212.45</ele>
        <time>2021-11-19T11:55:07.276Z</time>
      </trkpt>
      <trkpt lat="44.63417" lon="3.09793">
        <ele>1219.91</ele>
        <time>2021-11-19T11:55:17.055Z</time>
      </trkpt>
      <trkpt lat="44.63404" lon="3.09787">
        <ele>1185.67</ele>
        <time>2021-11-19T11:55:26.277Z</time>
      </trkpt>
      <trkpt lat="44.63391" lon="3.09776">
        <ele>1199.62</ele>
        <time>2021-11-19T11:55:35.361Z</time>
      </trkpt>
      <trkpt lat="44.63386" lon="3.09773">
        <ele>1211.87</ele>
        <time>2021-11-19T11:55:45.000Z</time>
      </trkpt>
      <trkpt lat="44.63379" lon="3.09773">
        <ele>1217.44</ele>
        <time>2021-11-19T11:55:54.056Z</time>
      </trkpt>
      <trkpt lat="44.63368" lon="3.09762">
        <ele>1212.97</ele>
        <time>2021-11-19T11:56:03.057Z</time>
      </trkpt>
      <trkpt lat="44.63358" lon="3.09755">
        <ele>1206.49</ele>
        <time>2021-11-19T11:56:12.256Z</time>
      </trkpt>
      <trkpt lat="44.63349" lon="3.09748">
        <ele>1210.8</ele>
        <time>2021-11-19T11:56:22.000Z</time>
      </trkpt>
      <trkpt lat="44.63336" lon="3.09742">
        <ele>1199.7</ele>
        <time>2021-11-19T11:56:31.237Z</time>
      </trkpt>
      <trkpt lat="44.63326" lon="3.09734">
        <ele>1206.46</ele>
        <time>2021-11-19T11:56:40.398Z</time>
      </trkpt>
      <trkpt lat="44.63318" lon="3.09728">
        <ele>1213.99</ele>
        <time>2021-11-19T11:56:50.000Z</time>
      </trkpt>
      <trkpt lat="44.63309" lon="3.09722">
        <ele>1213.25</ele>
        <time>2021-11-19T11:57:00.000Z</time>
      </trkpt>
      <trkpt lat="44.63305" lon="3.0972">
        <ele>1216.67</ele>
        <time>2021-11-19T11:57:10.000Z</time>
      </trkpt>
      <trkpt lat="44.63302" lon="3.09717">
        <ele>1226.55</ele>
        <time>2021-11-19T11:57:20.000Z</time>
      </trkpt>
      <trkpt lat="44.63301" lon="3.09717">
        <ele>1220.81</ele>
        <time>2021-11-19T11:57:41.000Z</time>
      </trkpt>
      <trkpt lat="44.633" lon="3.09716">
        <ele>1229.62</ele>
        <time>2021-11-19T11:58:08.000Z</time>
      </trkpt>
      <trkpt lat="44.6329" lon="3.0971">
        <ele>1210</ele>
        <time>2021-11-19T11:58:18.000Z</time>
      </trkpt>
      <trkpt lat="44.63279" lon="3.09718">
        <ele>1226.7</ele>
        <time>2021-11-19T11:58:28.000Z</time>
      </trkpt>
      <trkpt lat="44.63274" lon="3.0973">
        <ele>1213.14</ele>
        <time>2021-11-19T11:58:38.000Z</time>
      </trkpt>
      <trkpt lat="44.63268" lon="3.09745">
        <ele>1226.56</ele>
        <time>2021-11-19T11:58:47.096Z</time>
      </trkpt>
      <trkpt lat="44.6326" lon="3.09756">
        <ele>1229.46</ele>
        <time>2021-11-19T11:58:56.315Z</time>
      </trkpt>
      <trkpt lat="44.63255" lon="3.09767">
        <ele>1218.76</ele>
        <time>2021-11-19T11:59:05.356Z</time>
      </trkpt>
      <trkpt lat="44.63251" lon="3.09778">
        <ele>1215.02</ele>
        <time>2021-11-19T11:59:15.000Z</time>
      </trkpt>
      <trkpt lat="44.6325" lon="3.0978">
        <ele>1229.65</ele>
        <time>2021-11-19T11:59:25.000Z</time>
      </trkpt>
      <trkpt lat="44.63249" lon="3.09781">
        <ele>1221.75</ele>
        <time>2021-11-19T11:59:50.000Z</time>
      </trkpt>
      <trkpt lat="44.63244" lon="3.09778">
        <ele>1221.33</ele>
        <time>2021-11-19T11:59:59.236Z</time>
      </trkpt>
      <trkpt lat="44.6324" lon="3.09773">
        <ele>1227.84</ele>
        <time>2021-11-19T12:00:09.000Z</time>
      </trkpt>
      <trkpt lat="44.63228" lon="3.09763">
        <ele>1220.6</ele>
        <time>2021-11-19T12:00:18.435Z</time>
      </trkpt>
      <trkpt lat="44.63218" lon="3.09757">
        <ele>1223.53</ele>
        <time>2021-11-19T12:00:28.238Z</time>
      </trkpt>
      <trkpt lat="44.63208" lon="3.09749">
        <ele>1209.22</ele>
        <time>2021-11-19T12:00:37.297Z</time>
      </trkpt>
      <trkpt lat="44.63198" lon="3.09742">
        <ele>1234.25</ele>
        <time>2021-11-19T12:00:46.876Z</time>
      </trkpt>
      <trkpt lat="44.63187" lon="3.09736">
        <ele>1227.22</ele>
        <time>2021-11-19T12:00:55.936Z</time>
      </trkpt>
      <trkpt lat="44.63176" lon="3.09731">
        <ele>1232.07</ele>
        <time>2021-11-19T12:01:04.996Z</time>
      </trkpt>
      <trkpt lat="44.63168" lon="3.09723">
        <ele>1217.18</ele>
        <time>2021-11-19T12:01:14.000Z</time>
      </trkpt>
      <trkpt lat="44.63157" lon="3.09715">
        <ele>1227.87</ele>
        <time>2021-11-19T12:01:23.355Z</time>
      </trkpt>
      <trkpt lat="44.63149" lon="3.09706">
        <ele>1228.63</ele>
        <time>2021-11-19T12:01:34.000Z</time>
      </trkpt>
      <trkpt lat="44.63151" lon="3.09706">
        <ele>1242.58</ele>
        <time>2021-11-19T12:01:44.000Z</time>
      </trkpt>
      <trkpt lat="44.6315" lon="3.09706">
        <ele>1225.17</ele>
        <time>2021-11-19T12:02:14.000Z</time>
      </trkpt>
      <trkpt lat="44.63139" lon="3.09692">
        <ele>1239.71</ele>
        <time>2021-11-19T12:02:23.240Z</time>
      </trkpt>
      <trkpt lat="44.63137" lon="3.09689">
        <ele>1223.9</ele>
        <time>2021-11-19T12:02:33.000Z</time>
      </trkpt>
      <trkpt lat="44.63136" lon="3.09689">
        <ele>1220.11</ele>
        <time>2021-11-19T12:02:49.000Z</time>
      </trkpt>
      <trkpt lat="44.63126" lon="3.09672">
        <ele>1238.73</ele>
        <time>2021-11-19T12:02:58.921Z</time>
      </trkpt>
      <trkpt lat="44.63118" lon="3.09659">
        <ele>1218.65</ele>
        <time>2021-11-19T12:03:08.023Z</time>
      </trkpt>
      <trkpt lat="44.63109" lon="3.09645">
        <ele>1215.06</ele>
        <time>2021-11-19T12:03:17.849Z</time>
      </trkpt>
      <trkpt lat="44.63105" lon="3.09633">
        <ele>1231.31</ele>
        <time>2021-11-19T12:03:27.000Z</time>
      </trkpt>
      <trkpt lat="44.63099" lon="3.09621">
        <ele>1229.31</ele>
        <time>2021-11-19T12:03:36.327Z</time>
      </trkpt>
      <trkpt lat="44.6309" lon="3.09602">
        <ele>1233.07</ele>
        <time>2021-11-19T12:03:46.085Z</time>
      </trkpt>
      <trkpt lat="44.63079" lon="3.0959">
        <ele>1238.67</ele>
        <time>2021-11-19T12:03:55.237Z</time>
      </trkpt>
      <trkpt lat="44.6307" lon="3.09579">
        <ele>1230.34</ele>
        <time>2021-11-19T12:04:04.346Z</time>
      </trkpt>
      <trkpt lat="44.63062" lon="3.09567">
        <ele>1224.57</ele>
        <time>2021-11-19T12:04:13.727Z</time>
      </trkpt>
      <trkpt lat="44.63053" lon="3.09555">
        <ele>1206.5</ele>
        <time>2021-11-19T12:04:22.886Z</time>
      </trkpt>
      <trkpt lat="44.63046" lon="3.09546">
        <ele>1232.03</ele>
        <time>2021-11-19T12:04:34.000Z</time>
      </trkpt>
      <trkpt lat="44.63037" lon="3.09532">
        <ele>1239.29</ele>
        <time>2021-11-19T12:04:43.146Z</time>
      </trkpt>
      <trkpt lat="44.63031" lon="3.09523">
        <ele>1229.12</ele>
        <time>2021-11-19T12:04:52.205Z</time>
      </trkpt>
      <trkpt lat="44.63024" lon="3.09518">
        <ele>1230.71</ele>
        <time>2021-11-19T12:05:01.705Z</time>
      </trkpt>
      <trkpt lat="44.63018" lon="3.09513">
        <ele>1221.4</ele>
        <time>2021-11-19T12:05:11.000Z</time>
      </trkpt>
      <trkpt lat="44.6301" lon="3.0951">
        <ele>1235.08</ele>
        <time>2021-11-19T12:05:21.000Z</time>
      </trkpt>
      <trkpt lat="44.63013" lon="3.09493">
        <ele>1228.94</ele>
        <time>2021-11-19T12:05:30.426Z</time>
      </trkpt>
      <trkpt lat="44.63015" lon="3.09486">
        <ele>1213.04</ele>
        <time>2021-11-19T12:05:40.000Z</time>
      </trkpt>
      <trkpt lat="44.63015" lon="3.09487">
        <ele>1225.37</ele>
        <time>2021-11-19T12:05:50.000Z</time>
      </trkpt>
      <trkpt lat="44.63014" lon="3.09489">
        <ele>1212.94</ele>
        <time>2021-11-19T12:06:04.000Z</time>
      </trkpt>
      <trkpt lat="44.6301" lon="3.09489">
        <ele>1212.57</ele>
        <time>2021-11-19T12:06:16.000Z</time>
      </trkpt>
      <trkpt lat="44.63005" lon="3.09492">
        <ele>1219.89</ele>
        <time>2021-11-19T12:06:25.065Z</time>
      </trkpt>
      <trkpt lat="44.62997" lon="3.09494">
        <ele>1225.61</ele>
        <time>2021-11-19T12:06:35.000Z</time>
      </trkpt>
      <trkpt lat="44.62997" lon="3.09493">
        <ele>1218.88</ele>
        <time>2021-11-19T12:06:57.000Z</time>
      </trkpt>
      <trkpt lat="44.62999" lon="3.09494">
        <ele>1220.26</ele>
        <time>2021-11-19T12:07:36.000Z</time>
      </trkpt>
      <trkpt lat="44.62997" lon="3.09498">
        <ele>1207.96</ele>
        <time>2021-11-19T12:07:46.000Z</time>
      </trkpt>
      <trkpt lat="44.62997" lon="3.09496">
        <ele>1204.46</ele>
        <time>2021-11-19T12:08:10.000Z</time>
      </trkpt>
      <trkpt lat="44.62995" lon="3.09493">
        <ele>1219.88</ele>
        <time>2021-11-19T12:08:20.000Z</time>
      </trkpt>
      <trkpt lat="44.62991" lon="3.09501">
        <ele>1218.74</ele>
        <time>2021-11-19T12:08:30.000Z</time>
      </trkpt>
      <trkpt lat="44.62983" lon="3.0951">
        <ele>1238.87</ele>
        <time>2021-11-19T12:08:40.000Z</time>
      </trkpt>
      <trkpt lat="44.62974" lon="3.09521">
        <ele>1229.72</ele>
        <time>2021-11-19T12:08:50.000Z</time>
      </trkpt>
      <trkpt lat="44.62961" lon="3.09524">
        <ele>1221.87</ele>
        <time>2021-11-19T12:09:00.000Z</time>
      </trkpt>
      <trkpt lat="44.62955" lon="3.0954">
        <ele>1244.82</ele>
        <time>2021-11-19T12:09:10.000Z</time>
      </trkpt>
      <trkpt lat="44.6295" lon="3.09551">
        <ele>1235.3</ele>
        <time>2021-11-19T12:09:20.000Z</time>
      </trkpt>
      <trkpt lat="44.62943" lon="3.09568">
        <ele>1219.85</ele>
        <time>2021-11-19T12:09:30.000Z</time>
      </trkpt>
      <trkpt lat="44.62937" lon="3.09581">
        <ele>1206.96</ele>
        <time>2021-11-19T12:09:40.000Z</time>
      </trkpt>
      <trkpt lat="44.6293" lon="3.09589">
        <ele>1233.32</ele>
        <time>2021-11-19T12:09:50.000Z</time>
      </trkpt>
      <trkpt lat="44.62937" lon="3.09592">
        <ele>1220.58</ele>
        <time>2021-11-19T12:10:00.000Z</time>
      </trkpt>
      <trkpt lat="44.62944" lon="3.09599">
        <ele>1223.26</ele>
        <time>2021-11-19T12:10:10.000Z</time>
      </trkpt>
      <trkpt lat="44.62941" lon="3.0961">
        <ele>1215.31</ele>
        <time>2021-11-19T12:10:21.000Z</time>
      </trkpt>
      <trkpt lat="44.62936" lon="3.09617">
        <ele>1227.75</ele>
        <time>2021-11-19T12:10:32.000Z</time>
      </trkpt>
      <trkpt lat="44.62937" lon="3.09625">
        <ele>1210.68</ele>
        <time>2021-11-19T12:10:42.000Z</time>
      </trkpt>
      <trkpt lat="44.62928" lon="3.09636">
        <ele>1219.04</ele>
        <time>2021-11-19T12:10:52.202Z</time>
      </trkpt>
      <trkpt lat="44.62921" lon="3.09643">
        <ele>1218.8</ele>
        <time>2021-11-19T12:11:02.000Z</time>
      </trkpt>
      <trkpt lat="44.6291" lon="3.09648">
        <ele>1218.44</ele>
        <time>2021-11-19T12:11:12.000Z</time>
      </trkpt>
      <trkpt lat="44.62902" lon="3.09653">
        <ele>1219.05</ele>
        <time>2021-11-19T12:11:22.000Z</time>
      </trkpt>
      <trkpt lat="44.62894" lon="3.09656">
        <ele>1237.27</ele>
        <time>2021-11-19T12:11:32.000Z</time>
      </trkpt>
      <trkpt lat="44.62888" lon="3.09656">
        <ele>1221.91</ele>
        <time>2021-11-19T12:11:42.000Z</time>
      </trkpt>
      <trkpt lat="44.62889" lon="3.09656">
        <ele>1220.32</ele>
        <time>2021-11-19T12:12:03.000Z</time>
      </trkpt>
      <trkpt lat="44.62877" lon="3.0966">
        <ele>1221.47</ele>
        <time>2021-11-19T12:12:14.000Z</time>
      </trkpt>
      <trkpt lat="44.62865" lon="3.09664">
        <ele>1226.76</ele>
        <time>2021-11-19T12:12:25.000Z</time>
      </trkpt>
      <trkpt lat="44.62853" lon="3.0967">
        <ele>1231.33</ele>
        <time>2021-11-19T12:12:34.156Z</time>
      </trkpt>
      <trkpt lat="44.62846" lon="3.09677">
        <ele>1232.74</ele>
        <time>2021-11-19T12:12:44.000Z</time>
      </trkpt>
      <trkpt lat="44.62843" lon="3.09682">
        <ele>1222.82</ele>
        <time>2021-11-19T12:12:54.000Z</time>
      </trkpt>
      <trkpt lat="44.62837" lon="3.09688">
        <ele>1230.88</ele>
        <time>2021-11-19T12:13:05.000Z</time>
      </trkpt>
      <trkpt lat="44.62836" lon="3.09691">
        <ele>1233.06</ele>
        <time>2021-11-19T12:13:15.000Z</time>
      </trkpt>
      <trkpt lat="44.62835" lon="3.0969">
        <ele>1239.37</ele>
        <time>2021-11-19T12:13:25.045Z</time>
      </trkpt>
      <trkpt lat="44.62834" lon="3.09691">
        <ele>1226.19</ele>
        <time>2021-11-19T12:13:35.000Z</time>
      </trkpt>
      <trkpt lat="44.62834" lon="3.09692">
        <ele>1237.65</ele>
        <time>2021-11-19T12:13:45.000Z</time>
      </trkpt>
      <trkpt lat="44.62835" lon="3.09694">
        <ele>1231.26</ele>
        <time>2021-11-19T12:14:25.000Z</time>
      </trkpt>
      <trkpt lat="44.62833" lon="3.09692">
        <ele>1218.95</ele>
        <time>2021-11-19T12:14:35.000Z</time>
      </trkpt>
      <trkpt lat="44.62831" lon="3.09691">
        <ele>1240.5</ele>
        <time>2021-11-19T12:15:07.000Z</time>
      </trkpt>
      <trkpt lat="44.62833" lon="3.09693">
        <ele>1212.62</ele>
        <time>2021-11-19T12:15:17.000Z</time>
      </trkpt>
      <trkpt lat="44.62834" lon="3.09692">
        <ele>1214.47</ele>
        <time>2021-11-19T12:15:27.000Z</time>
      </trkpt>
      <trkpt lat="44.62835" lon="3.09693">
        <ele>1222.66</ele>
        <time>2021-11-19T12:15:42.000Z</time>
      </trkpt>
      <trkpt lat="44.62835" lon="3.09694">
        <ele>1227.31</ele>
        <time>2021-11-19T12:15:52.000Z</time>
      </trkpt>
      <trkpt lat="44.62834" lon="3.09694">
        <ele>1218.23</ele>
        <time>2021-11-19T12:16:06.000Z</time>
      </trkpt>
      <trkpt lat="44.62832" lon="3.0969">
        <ele>1240.02</ele>
        <time>2021-11-19T12:16:16.000Z</time>
      </trkpt>
      <trkpt lat="44.62836" lon="3.09689">
        <ele>1208.98</ele>
        <time>2021-11-19T12:16:26.000Z</time>
      </trkpt>
      <trkpt lat="44.62834" lon="3.09688">
        <ele>1207.95</ele>
        <time>2021-11-19T12:18:23.000Z</time>
      </trkpt>
      <trkpt lat="44.6282" lon="3.09691">
        <ele>1217.8</ele>
        <time>2021-11-19T12:18:32.186Z</time>
      </trkpt>
      <trkpt lat="44.62808" lon="3.09692">
        <ele>1225.66</ele>
        <time>2021-11-19T12:18:43.000Z</time>
      </trkpt>
      <trkpt lat="44.62795" lon="3.09688">
        <ele>1222.64</ele>
        <time>2021-11-19T12:18:54.000Z</time>
      </trkpt>
      <trkpt lat="44.62783" lon="3.09688">
        <ele>1205.71</ele>
        <time>2021-11-19T12:19:03.426Z</time>
      </trkpt>
      <trkpt lat="44.62771" lon="3.09687">
        <ele>1232.86</ele>
        <time>2021-11-19T12:19:12.531Z</time>
      </trkpt>
      <trkpt lat="44.62754" lon="3.09686">
        <ele>1214.37</ele>
        <time>2021-11-19T12:19:21.861Z</time>
      </trkpt>
      <trkpt lat="44.62745" lon="3.09689">
        <ele>1229.8</ele>
        <time>2021-11-19T12:19:32.000Z</time>
      </trkpt>
      <trkpt lat="44.62735" lon="3.09685">
        <ele>1249.17</ele>
        <time>2021-11-19T12:19:43.000Z</time>
      </trkpt>
      <trkpt lat="44.62723" lon="3.09686">
        <ele>1232.07</ele>
        <time>2021-11-19T12:19:52.290Z</time>
      </trkpt>
      <trkpt lat="44.62711" lon="3.0969">
        <ele>1235.45</ele>
        <time>2021-11-19T12:20:02.259Z</time>
      </trkpt>
      <trkpt lat="44.62698" lon="3.09689">
        <ele>1242.19</ele>
        <time>2021-11-19T12:20:12.206Z</time>
      </trkpt>
      <trkpt lat="44.62687" lon="3.09686">
        <ele>1237.4</ele>
        <time>2021-11-19T12:20:22.000Z</time>
      </trkpt>
      <trkpt lat="44.62678" lon="3.09687">
        <ele>1232.2</ele>
        <time>2021-11-19T12:20:32.000Z</time>
      </trkpt>
      <trkpt lat="44.62668" lon="3.09683">
        <ele>1241.35</ele>
        <time>2021-11-19T12:20:42.000Z</time>
      </trkpt>
      <trkpt lat="44.62656" lon="3.09684">
        <ele>1228.4</ele>
        <time>2021-11-19T12:20:51.524Z</time>
      </trkpt>
      <trkpt lat="44.62644" lon="3.09683">
        <ele>1230.06</ele>
        <time>2021-11-19T12:21:00.816Z</time>
      </trkpt>
      <trkpt lat="44.62637" lon="3.09684">
        <ele>1241.1</ele>
        <time>2021-11-19T12:21:09.957Z</time>
      </trkpt>
      <trkpt lat="44.62629" lon="3.09681">
        <ele>1237.77</ele>
        <time>2021-11-19T12:21:20.000Z</time>
      </trkpt>
      <trkpt lat="44.62619" lon="3.09678">
        <ele>1237.57</ele>
        <time>2021-11-19T12:21:29.361Z</time>
      </trkpt>
      <trkpt lat="44.6261" lon="3.09677">
        <ele>1233.55</ele>
        <time>2021-11-19T12:21:39.278Z</time>
      </trkpt>
      <trkpt lat="44.62601" lon="3.09672">
        <ele>1235.78</ele>
        <time>2021-11-19T12:21:49.014Z</time>
      </trkpt>
      <trkpt lat="44.62593" lon="3.09671">
        <ele>1230.54</ele>
        <time>2021-11-19T12:21:59.000Z</time>
      </trkpt>
      <trkpt lat="44.62587" lon="3.09671">
        <ele>1246.82</ele>
        <time>2021-11-19T12:22:08.775Z</time>
      </trkpt>
      <trkpt lat="44.6258" lon="3.09673">
        <ele>1249.91</ele>
        <time>2021-11-19T12:22:19.000Z</time>
      </trkpt>
      <trkpt lat="44.62579" lon="3.09674">
        <ele>1233.09</ele>
        <time>2021-11-19T12:22:29.000Z</time>
      </trkpt>
      <trkpt lat="44.62578" lon="3.09676">
        <ele>1253.9</ele>
        <time>2021-11-19T12:22:39.734Z</time>
      </trkpt>
      <trkpt lat="44.62574" lon="3.09684">
        <ele>1229.82</ele>
        <time>2021-11-19T12:22:49.000Z</time>
      </trkpt>
      <trkpt lat="44.62562" lon="3.09687">
        <ele>1204.01</ele>
        <time>2021-11-19T12:22:58.358Z</time>
      </trkpt>
      <trkpt lat="44.62553" lon="3.09688">
        <ele>1237.58</ele>
        <time>2021-11-19T12:23:07.915Z</time>
      </trkpt>
      <trkpt lat="44.62541" lon="3.09685">
        <ele>1238.09</ele>
        <time>2021-11-19T12:23:17.136Z</time>
      </trkpt>
      <trkpt lat="44.62535" lon="3.09678">
        <ele>1249.95</ele>
        <time>2021-11-19T12:23:26.235Z</time>
      </trkpt>
      <trkpt lat="44.62526" lon="3.09676">
        <ele>1238.84</ele>
        <time>2021-11-19T12:23:35.254Z</time>
      </trkpt>
      <trkpt lat="44.62517" lon="3.09668">
        <ele>1252.36</ele>
        <time>2021-11-19T12:23:44.394Z</time>
      </trkpt>
      <trkpt lat="44.62509" lon="3.09663">
        <ele>1249.63</ele>
        <time>2021-11-19T12:23:54.000Z</time>
      </trkpt>
      <trkpt lat="44.62502" lon="3.09664">
        <ele>1234.86</ele>
        <time>2021-11-19T12:24:04.000Z</time>
      </trkpt>
      <trkpt lat="44.62493" lon="3.09661">
        <ele>1235.37</ele>
        <time>2021-11-19T12:24:14.000Z</time>
      </trkpt>
      <trkpt lat="44.62485" lon="3.09661">
        <ele>1259.59</ele>
        <time>2021-11-19T12:24:24.000Z</time>
      </trkpt>
      <trkpt lat="44.62484" lon="3.09659">
        <ele>1249.72</ele>
        <time>2021-11-19T12:24:58.000Z</time>
      </trkpt>
      <trkpt lat="44.62483" lon="3.09658">
        <ele>1252.3</ele>
        <time>2021-11-19T12:25:08.000Z</time>
      </trkpt>
      <trkpt lat="44.62478" lon="3.09663">
        <ele>1256.79</ele>
        <time>2021-11-19T12:25:18.149Z</time>
      </trkpt>
      <trkpt lat="44.62472" lon="3.09658">
        <ele>1235.53</ele>
        <time>2021-11-19T12:25:28.000Z</time>
      </trkpt>
      <trkpt lat="44.62471" lon="3.09659">
        <ele>1235.21</ele>
        <time>2021-11-19T12:25:38.000Z</time>
      </trkpt>
      <trkpt lat="44.62478" lon="3.09655">
        <ele>1249.97</ele>
        <time>2021-11-19T12:25:49.000Z</time>
      </trkpt>
      <trkpt lat="44.62484" lon="3.0965">
        <ele>1260.04</ele>
        <time>2021-11-19T12:25:59.000Z</time>
      </trkpt>
      <trkpt lat="44.62483" lon="3.09649">
        <ele>1260.09</ele>
        <time>2021-11-19T12:26:09.000Z</time>
      </trkpt>
      <trkpt lat="44.62485" lon="3.09644">
        <ele>1233.4</ele>
        <time>2021-11-19T12:26:19.000Z</time>
      </trkpt>
      <trkpt lat="44.62484" lon="3.09644">
        <ele>1245.36</ele>
        <time>2021-11-19T12:27:29.000Z</time>
      </trkpt>
      <trkpt lat="44.62484" lon="3.09646">
        <ele>1235.79</ele>
        <time>2021-11-19T12:46:03.000Z</time>
      </trkpt>
      <trkpt lat="44.62484" lon="3.09647">
        <ele>1253.01</ele>
        <time>2021-11-19T12:55:53.000Z</time>
      </trkpt>
      <trkpt lat="44.62484" lon="3.09648">
        <ele>1253.37</ele>
        <time>2021-11-19T12:56:13.000Z</time>
      </trkpt>
      <trkpt lat="44.62483" lon="3.09649">
        <ele>1246.72</ele>
        <time>2021-11-19T12:59:32.000Z</time>
      </trkpt>
      <trkpt lat="44.62482" lon="3.09648">
        <ele>1244.24</ele>
        <time>2021-11-19T13:00:16.000Z</time>
      </trkpt>
      <trkpt lat="44.6248" lon="3.09649">
        <ele>1245.25</ele>
        <time>2021-11-19T13:00:26.000Z</time>
      </trkpt>
      <trkpt lat="44.62481" lon="3.09647">
        <ele>1243.53</ele>
        <time>2021-11-19T13:01:03.000Z</time>
      </trkpt>
      <trkpt lat="44.62481" lon="3.09649">
        <ele>1242.44</ele>
        <time>2021-11-19T13:02:12.000Z</time>
      </trkpt>
      <trkpt lat="44.62481" lon="3.09651">
        <ele>1244.46</ele>
        <time>2021-11-19T13:02:22.000Z</time>
      </trkpt>
      <trkpt lat="44.62482" lon="3.09651">
        <ele>1231.63</ele>
        <time>2021-11-19T13:02:34.000Z</time>
      </trkpt>
      <trkpt lat="44.62478" lon="3.0965">
        <ele>1258.6</ele>
        <time>2021-11-19T13:04:48.982Z</time>
      </trkpt>
      <trkpt lat="44.62478" lon="3.09654">
        <ele>1246.12</ele>
        <time>2021-11-19T13:04:58.000Z</time>
      </trkpt>
      <trkpt lat="44.62483" lon="3.09656">
        <ele>1258.16</ele>
        <time>2021-11-19T13:05:07.272Z</time>
      </trkpt>
      <trkpt lat="44.62474" lon="3.09658">
        <ele>1255.03</ele>
        <time>2021-11-19T13:05:16.321Z</time>
      </trkpt>
      <trkpt lat="44.62469" lon="3.09657">
        <ele>1240.2</ele>
        <time>2021-11-19T13:05:25.322Z</time>
      </trkpt>
      <trkpt lat="44.62463" lon="3.09659">
        <ele>1251.42</ele>
        <time>2021-11-19T13:05:36.000Z</time>
      </trkpt>
      <trkpt lat="44.62456" lon="3.09659">
        <ele>1250.72</ele>
        <time>2021-11-19T13:05:46.000Z</time>
      </trkpt>
      <trkpt lat="44.62454" lon="3.09661">
        <ele>1253.02</ele>
        <time>2021-11-19T13:05:56.000Z</time>
      </trkpt>
      <trkpt lat="44.62455" lon="3.09661">
        <ele>1241.14</ele>
        <time>2021-11-19T13:06:10.000Z</time>
      </trkpt>
      <trkpt lat="44.62456" lon="3.09659">
        <ele>1253.67</ele>
        <time>2021-11-19T13:06:20.000Z</time>
      </trkpt>
      <trkpt lat="44.62457" lon="3.09661">
        <ele>1239.26</ele>
        <time>2021-11-19T13:06:30.000Z</time>
      </trkpt>
      <trkpt lat="44.62447" lon="3.09664">
        <ele>1253.32</ele>
        <time>2021-11-19T13:06:41.000Z</time>
      </trkpt>
      <trkpt lat="44.62437" lon="3.0967">
        <ele>1249.68</ele>
        <time>2021-11-19T13:06:51.158Z</time>
      </trkpt>
      <trkpt lat="44.62436" lon="3.09665">
        <ele>1261.55</ele>
        <time>2021-11-19T13:07:01.000Z</time>
      </trkpt>
      <trkpt lat="44.62435" lon="3.09666">
        <ele>1250.03</ele>
        <time>2021-11-19T13:07:13.565Z</time>
      </trkpt>
      <trkpt lat="44.62427" lon="3.09671">
        <ele>1266.16</ele>
        <time>2021-11-19T13:07:23.000Z</time>
      </trkpt>
      <trkpt lat="44.62416" lon="3.09675">
        <ele>1253.85</ele>
        <time>2021-11-19T13:07:32.687Z</time>
      </trkpt>
      <trkpt lat="44.62408" lon="3.09674">
        <ele>1269.47</ele>
        <time>2021-11-19T13:07:44.000Z</time>
      </trkpt>
      <trkpt lat="44.62398" lon="3.09676">
        <ele>1255.87</ele>
        <time>2021-11-19T13:07:53.072Z</time>
      </trkpt>
      <trkpt lat="44.62395" lon="3.09674">
        <ele>1250.57</ele>
        <time>2021-11-19T13:08:03.000Z</time>
      </trkpt>
      <trkpt lat="44.62395" lon="3.09669">
        <ele>1239.47</ele>
        <time>2021-11-19T13:08:13.000Z</time>
      </trkpt>
      <trkpt lat="44.62397" lon="3.09673">
        <ele>1249.71</ele>
        <time>2021-11-19T13:08:23.000Z</time>
      </trkpt>
      <trkpt lat="44.62396" lon="3.09672">
        <ele>1256.96</ele>
        <time>2021-11-19T13:08:33.000Z</time>
      </trkpt>
      <trkpt lat="44.62396" lon="3.09674">
        <ele>1245.31</ele>
        <time>2021-11-19T13:08:43.000Z</time>
      </trkpt>
      <trkpt lat="44.62392" lon="3.09674">
        <ele>1257.29</ele>
        <time>2021-11-19T13:08:54.000Z</time>
      </trkpt>
      <trkpt lat="44.6238" lon="3.09679">
        <ele>1232.35</ele>
        <time>2021-11-19T13:09:03.255Z</time>
      </trkpt>
      <trkpt lat="44.62368" lon="3.09679">
        <ele>1244.75</ele>
        <time>2021-11-19T13:09:12.396Z</time>
      </trkpt>
      <trkpt lat="44.6236" lon="3.09681">
        <ele>1248.15</ele>
        <time>2021-11-19T13:09:21.676Z</time>
      </trkpt>
      <trkpt lat="44.6235" lon="3.09682">
        <ele>1241.86</ele>
        <time>2021-11-19T13:09:32.000Z</time>
      </trkpt>
      <trkpt lat="44.62343" lon="3.09688">
        <ele>1257.38</ele>
        <time>2021-11-19T13:09:42.000Z</time>
      </trkpt>
      <trkpt lat="44.62333" lon="3.09689">
        <ele>1251.47</ele>
        <time>2021-11-19T13:09:52.000Z</time>
      </trkpt>
      <trkpt lat="44.62324" lon="3.09692">
        <ele>1255.64</ele>
        <time>2021-11-19T13:10:01.115Z</time>
      </trkpt>
      <trkpt lat="44.62318" lon="3.09692">
        <ele>1253.34</ele>
        <time>2021-11-19T13:10:11.000Z</time>
      </trkpt>
      <trkpt lat="44.62307" lon="3.0969">
        <ele>1250.68</ele>
        <time>2021-11-19T13:10:20.215Z</time>
      </trkpt>
      <trkpt lat="44.62299" lon="3.0969">
        <ele>1248.41</ele>
        <time>2021-11-19T13:10:31.000Z</time>
      </trkpt>
      <trkpt lat="44.62289" lon="3.09688">
        <ele>1252.83</ele>
        <time>2021-11-19T13:10:42.000Z</time>
      </trkpt>
      <trkpt lat="44.62278" lon="3.09688">
        <ele>1259.77</ele>
        <time>2021-11-19T13:10:52.216Z</time>
      </trkpt>
      <trkpt lat="44.62268" lon="3.09687">
        <ele>1252.91</ele>
        <time>2021-11-19T13:11:01.535Z</time>
      </trkpt>
      <trkpt lat="44.6226" lon="3.09688">
        <ele>1252.85</ele>
        <time>2021-11-19T13:11:11.236Z</time>
      </trkpt>
      <trkpt lat="44.62252" lon="3.09685">
        <ele>1245.17</ele>
        <time>2021-11-19T13:11:20.895Z</time>
      </trkpt>
      <trkpt lat="44.62245" lon="3.09686">
        <ele>1256.26</ele>
        <time>2021-11-19T13:11:30.000Z</time>
      </trkpt>
      <trkpt lat="44.62236" lon="3.09683">
        <ele>1262.35</ele>
        <time>2021-11-19T13:11:39.175Z</time>
      </trkpt>
      <trkpt lat="44.62228" lon="3.09684">
        <ele>1248.78</ele>
        <time>2021-11-19T13:11:49.000Z</time>
      </trkpt>
      <trkpt lat="44.62219" lon="3.09682">
        <ele>1245.19</ele>
        <time>2021-11-19T13:11:59.000Z</time>
      </trkpt>
      <trkpt lat="44.62209" lon="3.0968">
        <ele>1241.5</ele>
        <time>2021-11-19T13:12:09.000Z</time>
      </trkpt>
      <trkpt lat="44.62205" lon="3.09679">
        <ele>1243.11</ele>
        <time>2021-11-19T13:12:19.000Z</time>
      </trkpt>
      <trkpt lat="44.62207" lon="3.0968">
        <ele>1256.09</ele>
        <time>2021-11-19T13:12:56.000Z</time>
      </trkpt>
      <trkpt lat="44.62198" lon="3.09679">
        <ele>1243.04</ele>
        <time>2021-11-19T13:13:06.206Z</time>
      </trkpt>
      <trkpt lat="44.62188" lon="3.09678">
        <ele>1247.89</ele>
        <time>2021-11-19T13:13:16.000Z</time>
      </trkpt>
      <trkpt lat="44.62178" lon="3.09675">
        <ele>1264.05</ele>
        <time>2021-11-19T13:13:25.306Z</time>
      </trkpt>
      <trkpt lat="44.62174" lon="3.09672">
        <ele>1252.54</ele>
        <time>2021-11-19T13:13:35.000Z</time>
      </trkpt>
      <trkpt lat="44.6217" lon="3.09669">
        <ele>1257</ele>
        <time>2021-11-19T13:13:45.000Z</time>
      </trkpt>
      <trkpt lat="44.6216" lon="3.09663">
        <ele>1263.65</ele>
        <time>2021-11-19T13:13:54.558Z</time>
      </trkpt>
      <trkpt lat="44.62151" lon="3.09656">
        <ele>1255.78</ele>
        <time>2021-11-19T13:14:04.048Z</time>
      </trkpt>
      <trkpt lat="44.62145" lon="3.09647">
        <ele>1245.08</ele>
        <time>2021-11-19T13:14:15.000Z</time>
      </trkpt>
      <trkpt lat="44.62136" lon="3.09643">
        <ele>1253</ele>
        <time>2021-11-19T13:14:24.269Z</time>
      </trkpt>
      <trkpt lat="44.62127" lon="3.09635">
        <ele>1245.51</ele>
        <time>2021-11-19T13:14:33.588Z</time>
      </trkpt>
      <trkpt lat="44.62117" lon="3.09633">
        <ele>1260.58</ele>
        <time>2021-11-19T13:14:45.000Z</time>
      </trkpt>
      <trkpt lat="44.62109" lon="3.09623">
        <ele>1256.58</ele>
        <time>2021-11-19T13:14:56.000Z</time>
      </trkpt>
      <trkpt lat="44.62102" lon="3.09611">
        <ele>1244.06</ele>
        <time>2021-11-19T13:15:05.505Z</time>
      </trkpt>
      <trkpt lat="44.62096" lon="3.09605">
        <ele>1239.41</ele>
        <time>2021-11-19T13:15:15.000Z</time>
      </trkpt>
      <trkpt lat="44.6209" lon="3.09597">
        <ele>1261.94</ele>
        <time>2021-11-19T13:15:25.000Z</time>
      </trkpt>
      <trkpt lat="44.6208" lon="3.09589">
        <ele>1234.94</ele>
        <time>2021-11-19T13:15:36.000Z</time>
      </trkpt>
      <trkpt lat="44.62074" lon="3.09578">
        <ele>1257.12</ele>
        <time>2021-11-19T13:15:45.273Z</time>
      </trkpt>
      <trkpt lat="44.62067" lon="3.09568">
        <ele>1257.85</ele>
        <time>2021-11-19T13:15:55.071Z</time>
      </trkpt>
      <trkpt lat="44.62062" lon="3.09556">
        <ele>1258.13</ele>
        <time>2021-11-19T13:16:04.338Z</time>
      </trkpt>
      <trkpt lat="44.62058" lon="3.09544">
        <ele>1255.2</ele>
        <time>2021-11-19T13:16:15.000Z</time>
      </trkpt>
      <trkpt lat="44.62055" lon="3.09533">
        <ele>1239.66</ele>
        <time>2021-11-19T13:16:25.000Z</time>
      </trkpt>
      <trkpt lat="44.62049" lon="3.0952">
        <ele>1243.23</ele>
        <time>2021-11-19T13:16:34.212Z</time>
      </trkpt>
      <trkpt lat="44.62044" lon="3.09508">
        <ele>1244.71</ele>
        <time>2021-11-19T13:16:44.000Z</time>
      </trkpt>
      <trkpt lat="44.6204" lon="3.09494">
        <ele>1260.5</ele>
        <time>2021-11-19T13:16:55.000Z</time>
      </trkpt>
      <trkpt lat="44.62034" lon="3.09482">
        <ele>1261.29</ele>
        <time>2021-11-19T13:17:06.000Z</time>
      </trkpt>
      <trkpt lat="44.6203" lon="3.09468">
        <ele>1254.69</ele>
        <time>2021-11-19T13:17:17.000Z</time>
      </trkpt>
      <trkpt lat="44.62025" lon="3.09457">
        <ele>1253.77</ele>
        <time>2021-11-19T13:17:26.206Z</time>
      </trkpt>
      <trkpt lat="44.6202" lon="3.09447">
        <ele>1254.28</ele>
        <time>2021-11-19T13:17:36.000Z</time>
      </trkpt>
      <trkpt lat="44.62014" lon="3.09435">
        <ele>1259.04</ele>
        <time>2021-11-19T13:17:45.156Z</time>
      </trkpt>
      <trkpt lat="44.62012" lon="3.09423">
        <ele>1257.29</ele>
        <time>2021-11-19T13:17:54.185Z</time>
      </trkpt>
      <trkpt lat="44.62008" lon="3.09413">
        <ele>1272.86</ele>
        <time>2021-11-19T13:18:03.606Z</time>
      </trkpt>
      <trkpt lat="44.62005" lon="3.09405">
        <ele>1266.21</ele>
        <time>2021-11-19T13:18:13.000Z</time>
      </trkpt>
      <trkpt lat="44.62001" lon="3.09395">
        <ele>1265.67</ele>
        <time>2021-11-19T13:18:22.863Z</time>
      </trkpt>
      <trkpt lat="44.61998" lon="3.09387">
        <ele>1245.59</ele>
        <time>2021-11-19T13:18:33.000Z</time>
      </trkpt>
      <trkpt lat="44.61997" lon="3.09384">
        <ele>1248.76</ele>
        <time>2021-11-19T13:19:00.000Z</time>
      </trkpt>
      <trkpt lat="44.6199" lon="3.09375">
        <ele>1242.83</ele>
        <time>2021-11-19T13:19:09.585Z</time>
      </trkpt>
      <trkpt lat="44.61985" lon="3.09371">
        <ele>1266.23</ele>
        <time>2021-11-19T13:19:20.000Z</time>
      </trkpt>
      <trkpt lat="44.61982" lon="3.09365">
        <ele>1265.41</ele>
        <time>2021-11-19T13:19:30.000Z</time>
      </trkpt>
      <trkpt lat="44.6198" lon="3.09366">
        <ele>1258.76</ele>
        <time>2021-11-19T13:19:41.000Z</time>
      </trkpt>
      <trkpt lat="44.61977" lon="3.09357">
        <ele>1267.5</ele>
        <time>2021-11-19T13:19:51.000Z</time>
      </trkpt>
      <trkpt lat="44.61974" lon="3.09343">
        <ele>1248.41</ele>
        <time>2021-11-19T13:20:00.747Z</time>
      </trkpt>
      <trkpt lat="44.61968" lon="3.09336">
        <ele>1259.77</ele>
        <time>2021-11-19T13:20:10.379Z</time>
      </trkpt>
      <trkpt lat="44.61964" lon="3.09327">
        <ele>1258.29</ele>
        <time>2021-11-19T13:20:20.000Z</time>
      </trkpt>
      <trkpt lat="44.61958" lon="3.09313">
        <ele>1249.45</ele>
        <time>2021-11-19T13:20:29.506Z</time>
      </trkpt>
      <trkpt lat="44.61953" lon="3.09305">
        <ele>1257.41</ele>
        <time>2021-11-19T13:20:39.275Z</time>
      </trkpt>
      <trkpt lat="44.61946" lon="3.09298">
        <ele>1251.83</ele>
        <time>2021-11-19T13:20:48.946Z</time>
      </trkpt>
      <trkpt lat="44.61938" lon="3.09292">
        <ele>1265.41</ele>
        <time>2021-11-19T13:20:58.026Z</time>
      </trkpt>
      <trkpt lat="44.61931" lon="3.09286">
        <ele>1254.84</ele>
        <time>2021-11-19T13:21:07.927Z</time>
      </trkpt>
      <trkpt lat="44.61928" lon="3.09277">
        <ele>1249.02</ele>
        <time>2021-11-19T13:21:18.000Z</time>
      </trkpt>
      <trkpt lat="44.61925" lon="3.09264">
        <ele>1278.9</ele>
        <time>2021-11-19T13:21:28.000Z</time>
      </trkpt>
      <trkpt lat="44.61922" lon="3.09249">
        <ele>1251.18</ele>
        <time>2021-11-19T13:21:40.000Z</time>
      </trkpt>
      <trkpt lat="44.61919" lon="3.09244">
        <ele>1256.05</ele>
        <time>2021-11-19T13:21:50.000Z</time>
      </trkpt>
      <trkpt lat="44.61913" lon="3.09235">
        <ele>1247.06</ele>
        <time>2021-11-19T13:22:01.000Z</time>
      </trkpt>
      <trkpt lat="44.61912" lon="3.09233">
        <ele>1253.01</ele>
        <time>2021-11-19T13:22:11.000Z</time>
      </trkpt>
      <trkpt lat="44.61913" lon="3.09232">
        <ele>1267.67</ele>
        <time>2021-11-19T13:23:17.000Z</time>
      </trkpt>
      <trkpt lat="44.61913" lon="3.09233">
        <ele>1258.47</ele>
        <time>2021-11-19T13:23:35.000Z</time>
      </trkpt>
      <trkpt lat="44.61907" lon="3.09228">
        <ele>1257.16</ele>
        <time>2021-11-19T13:23:45.000Z</time>
      </trkpt>
      <trkpt lat="44.61894" lon="3.09224">
        <ele>1259.07</ele>
        <time>2021-11-19T13:23:54.191Z</time>
      </trkpt>
      <trkpt lat="44.61884" lon="3.0922">
        <ele>1251.28</ele>
        <time>2021-11-19T13:24:03.771Z</time>
      </trkpt>
      <trkpt lat="44.61878" lon="3.09211">
        <ele>1264.99</ele>
        <time>2021-11-19T13:24:12.891Z</time>
      </trkpt>
      <trkpt lat="44.61869" lon="3.09203">
        <ele>1262.86</ele>
        <time>2021-11-19T13:24:22.231Z</time>
      </trkpt>
      <trkpt lat="44.61861" lon="3.0919">
        <ele>1261.93</ele>
        <time>2021-11-19T13:24:31.811Z</time>
      </trkpt>
      <trkpt lat="44.61853" lon="3.09185">
        <ele>1274.9</ele>
        <time>2021-11-19T13:24:42.000Z</time>
      </trkpt>
      <trkpt lat="44.61844" lon="3.09175">
        <ele>1266.2</ele>
        <time>2021-11-19T13:24:53.000Z</time>
      </trkpt>
      <trkpt lat="44.61836" lon="3.09167">
        <ele>1265.56</ele>
        <time>2021-11-19T13:25:03.000Z</time>
      </trkpt>
      <trkpt lat="44.61827" lon="3.09157">
        <ele>1247.03</ele>
        <time>2021-11-19T13:25:14.000Z</time>
      </trkpt>
      <trkpt lat="44.6182" lon="3.09145">
        <ele>1266.76</ele>
        <time>2021-11-19T13:25:24.000Z</time>
      </trkpt>
      <trkpt lat="44.61812" lon="3.09134">
        <ele>1263.63</ele>
        <time>2021-11-19T13:25:33.211Z</time>
      </trkpt>
      <trkpt lat="44.61807" lon="3.09122">
        <ele>1255.82</ele>
        <time>2021-11-19T13:25:42.357Z</time>
      </trkpt>
      <trkpt lat="44.61802" lon="3.09109">
        <ele>1263.67</ele>
        <time>2021-11-19T13:25:51.951Z</time>
      </trkpt>
      <trkpt lat="44.618" lon="3.09095">
        <ele>1266.75</ele>
        <time>2021-11-19T13:26:01.692Z</time>
      </trkpt>
      <trkpt lat="44.61797" lon="3.09083">
        <ele>1259.79</ele>
        <time>2021-11-19T13:26:11.311Z</time>
      </trkpt>
      <trkpt lat="44.61797" lon="3.09079">
        <ele>1260.23</ele>
        <time>2021-11-19T13:26:21.000Z</time>
      </trkpt>
      <trkpt lat="44.61794" lon="3.09068">
        <ele>1263.32</ele>
        <time>2021-11-19T13:26:31.000Z</time>
      </trkpt>
      <trkpt lat="44.61793" lon="3.09052">
        <ele>1269.58</ele>
        <time>2021-11-19T13:26:42.000Z</time>
      </trkpt>
      <trkpt lat="44.61792" lon="3.09034">
        <ele>1246.91</ele>
        <time>2021-11-19T13:26:51.731Z</time>
      </trkpt>
      <trkpt lat="44.61792" lon="3.09019">
        <ele>1273.25</ele>
        <time>2021-11-19T13:27:03.000Z</time>
      </trkpt>
      <trkpt lat="44.6179" lon="3.09003">
        <ele>1267.97</ele>
        <time>2021-11-19T13:27:12.011Z</time>
      </trkpt>
      <trkpt lat="44.61788" lon="3.08992">
        <ele>1259</ele>
        <time>2021-11-19T13:27:22.000Z</time>
      </trkpt>
      <trkpt lat="44.61784" lon="3.08982">
        <ele>1258.83</ele>
        <time>2021-11-19T13:27:33.000Z</time>
      </trkpt>
      <trkpt lat="44.61784" lon="3.08981">
        <ele>1266.54</ele>
        <time>2021-11-19T13:27:43.000Z</time>
      </trkpt>
      <trkpt lat="44.61784" lon="3.0898">
        <ele>1260.07</ele>
        <time>2021-11-19T13:28:20.000Z</time>
      </trkpt>
      <trkpt lat="44.61784" lon="3.08977">
        <ele>1265.32</ele>
        <time>2021-11-19T13:28:30.000Z</time>
      </trkpt>
      <trkpt lat="44.61784" lon="3.08975">
        <ele>1252.87</ele>
        <time>2021-11-19T13:29:08.000Z</time>
      </trkpt>
      <trkpt lat="44.61783" lon="3.08961">
        <ele>1263.3</ele>
        <time>2021-11-19T13:29:18.000Z</time>
      </trkpt>
      <trkpt lat="44.61782" lon="3.08948">
        <ele>1268.64</ele>
        <time>2021-11-19T13:29:28.000Z</time>
      </trkpt>
      <trkpt lat="44.61781" lon="3.08935">
        <ele>1253.31</ele>
        <time>2021-11-19T13:29:38.000Z</time>
      </trkpt>
      <trkpt lat="44.61781" lon="3.0892">
        <ele>1259.36</ele>
        <time>2021-11-19T13:29:48.000Z</time>
      </trkpt>
      <trkpt lat="44.61777" lon="3.08899">
        <ele>1278.17</ele>
        <time>2021-11-19T13:29:58.154Z</time>
      </trkpt>
      <trkpt lat="44.61774" lon="3.08882">
        <ele>1258.62</ele>
        <time>2021-11-19T13:30:08.094Z</time>
      </trkpt>
      <trkpt lat="44.61772" lon="3.08867">
        <ele>1258.99</ele>
        <time>2021-11-19T13:30:17.334Z</time>
      </trkpt>
      <trkpt lat="44.6177" lon="3.0885">
        <ele>1263.31</ele>
        <time>2021-11-19T13:30:29.000Z</time>
      </trkpt>
      <trkpt lat="44.61767" lon="3.08835">
        <ele>1258.19</ele>
        <time>2021-11-19T13:30:39.374Z</time>
      </trkpt>
      <trkpt lat="44.61764" lon="3.08833">
        <ele>1257.59</ele>
        <time>2021-11-19T13:30:49.000Z</time>
      </trkpt>
      <trkpt lat="44.61764" lon="3.08832">
        <ele>1254.38</ele>
        <time>2021-11-19T13:31:04.000Z</time>
      </trkpt>
      <trkpt lat="44.61759" lon="3.08813">
        <ele>1252.52</ele>
        <time>2021-11-19T13:31:13.504Z</time>
      </trkpt>
      <trkpt lat="44.61753" lon="3.08799">
        <ele>1266.33</ele>
        <time>2021-11-19T13:31:22.933Z</time>
      </trkpt>
      <trkpt lat="44.6175" lon="3.08785">
        <ele>1256.66</ele>
        <time>2021-11-19T13:31:32.334Z</time>
      </trkpt>
      <trkpt lat="44.61744" lon="3.08772">
        <ele>1270.53</ele>
        <time>2021-11-19T13:31:42.074Z</time>
      </trkpt>
      <trkpt lat="44.61742" lon="3.08759">
        <ele>1245.32</ele>
        <time>2021-11-19T13:31:51.313Z</time>
      </trkpt>
      <trkpt lat="44.61739" lon="3.08747">
        <ele>1252.68</ele>
        <time>2021-11-19T13:32:00.714Z</time>
      </trkpt>
      <trkpt lat="44.61734" lon="3.08737">
        <ele>1251.4</ele>
        <time>2021-11-19T13:32:11.000Z</time>
      </trkpt>
      <trkpt lat="44.61729" lon="3.08725">
        <ele>1249.13</ele>
        <time>2021-11-19T13:32:21.000Z</time>
      </trkpt>
      <trkpt lat="44.61722" lon="3.08713">
        <ele>1255.67</ele>
        <time>2021-11-19T13:32:30.274Z</time>
      </trkpt>
      <trkpt lat="44.61718" lon="3.08701">
        <ele>1243.87</ele>
        <time>2021-11-19T13:32:39.313Z</time>
      </trkpt>
      <trkpt lat="44.61713" lon="3.08684">
        <ele>1242.14</ele>
        <time>2021-11-19T13:32:49.334Z</time>
      </trkpt>
      <trkpt lat="44.6171" lon="3.0867">
        <ele>1247.28</ele>
        <time>2021-11-19T13:32:58.994Z</time>
      </trkpt>
      <trkpt lat="44.61707" lon="3.08659">
        <ele>1250.93</ele>
        <time>2021-11-19T13:33:08.113Z</time>
      </trkpt>
      <trkpt lat="44.61703" lon="3.08648">
        <ele>1243.62</ele>
        <time>2021-11-19T13:33:17.214Z</time>
      </trkpt>
      <trkpt lat="44.61699" lon="3.08636">
        <ele>1243.2</ele>
        <time>2021-11-19T13:33:26.374Z</time>
      </trkpt>
      <trkpt lat="44.61695" lon="3.08622">
        <ele>1232.79</ele>
        <time>2021-11-19T13:33:36.000Z</time>
      </trkpt>
      <trkpt lat="44.61688" lon="3.08607">
        <ele>1235.5</ele>
        <time>2021-11-19T13:33:47.000Z</time>
      </trkpt>
      <trkpt lat="44.61684" lon="3.0859">
        <ele>1249.31</ele>
        <time>2021-11-19T13:33:56.294Z</time>
      </trkpt>
      <trkpt lat="44.6168" lon="3.08576">
        <ele>1251.11</ele>
        <time>2021-11-19T13:34:05.873Z</time>
      </trkpt>
      <trkpt lat="44.61679" lon="3.08562">
        <ele>1234.17</ele>
        <time>2021-11-19T13:34:16.000Z</time>
      </trkpt>
      <trkpt lat="44.61675" lon="3.08547">
        <ele>1245.19</ele>
        <time>2021-11-19T13:34:25.314Z</time>
      </trkpt>
      <trkpt lat="44.6167" lon="3.08536">
        <ele>1249.9</ele>
        <time>2021-11-19T13:34:34.774Z</time>
      </trkpt>
      <trkpt lat="44.61665" lon="3.08525">
        <ele>1254.48</ele>
        <time>2021-11-19T13:34:46.000Z</time>
      </trkpt>
      <trkpt lat="44.61659" lon="3.08511">
        <ele>1251.41</ele>
        <time>2021-11-19T13:34:55.374Z</time>
      </trkpt>
      <trkpt lat="44.61657" lon="3.08496">
        <ele>1244.16</ele>
        <time>2021-11-19T13:35:04.854Z</time>
      </trkpt>
      <trkpt lat="44.61654" lon="3.08483">
        <ele>1235.15</ele>
        <time>2021-11-19T13:35:14.094Z</time>
      </trkpt>
      <trkpt lat="44.6165" lon="3.08474">
        <ele>1244.79</ele>
        <time>2021-11-19T13:35:25.000Z</time>
      </trkpt>
      <trkpt lat="44.61644" lon="3.08461">
        <ele>1245.43</ele>
        <time>2021-11-19T13:35:34.513Z</time>
      </trkpt>
      <trkpt lat="44.61638" lon="3.08454">
        <ele>1261.37</ele>
        <time>2021-11-19T13:35:45.000Z</time>
      </trkpt>
      <trkpt lat="44.61632" lon="3.08444">
        <ele>1249.79</ele>
        <time>2021-11-19T13:35:54.174Z</time>
      </trkpt>
      <trkpt lat="44.61623" lon="3.08439">
        <ele>1271.14</ele>
        <time>2021-11-19T13:36:03.686Z</time>
      </trkpt>
      <trkpt lat="44.61618" lon="3.08429">
        <ele>1255.93</ele>
        <time>2021-11-19T13:36:13.195Z</time>
      </trkpt>
      <trkpt lat="44.61617" lon="3.0843">
        <ele>1249.24</ele>
        <time>2021-11-19T13:36:23.000Z</time>
      </trkpt>
      <trkpt lat="44.61617" lon="3.08432">
        <ele>1239.86</ele>
        <time>2021-11-19T13:36:33.000Z</time>
      </trkpt>
      <trkpt lat="44.61618" lon="3.08433">
        <ele>1247.96</ele>
        <time>2021-11-19T13:36:44.000Z</time>
      </trkpt>
      <trkpt lat="44.61617" lon="3.08431">
        <ele>1264.43</ele>
        <time>2021-11-19T13:37:06.000Z</time>
      </trkpt>
      <trkpt lat="44.61614" lon="3.08429">
        <ele>1252.42</ele>
        <time>2021-11-19T13:37:16.000Z</time>
      </trkpt>
      <trkpt lat="44.6161" lon="3.0843">
        <ele>1246.21</ele>
        <time>2021-11-19T13:37:26.000Z</time>
      </trkpt>
      <trkpt lat="44.61611" lon="3.08429">
        <ele>1254.49</ele>
        <time>2021-11-19T13:37:44.000Z</time>
      </trkpt>
      <trkpt lat="44.6162" lon="3.08429">
        <ele>1237.82</ele>
        <time>2021-11-19T13:37:54.000Z</time>
      </trkpt>
      <trkpt lat="44.61625" lon="3.08428">
        <ele>1258.88</ele>
        <time>2021-11-19T13:38:04.000Z</time>
      </trkpt>
      <trkpt lat="44.61624" lon="3.08428">
        <ele>1242.17</ele>
        <time>2021-11-19T13:38:21.000Z</time>
      </trkpt>
      <trkpt lat="44.61623" lon="3.08427">
        <ele>1262.68</ele>
        <time>2021-11-19T13:38:35.000Z</time>
      </trkpt>
      <trkpt lat="44.61613" lon="3.08428">
        <ele>1254.27</ele>
        <time>2021-11-19T13:38:44.503Z</time>
      </trkpt>
      <trkpt lat="44.61613" lon="3.08426">
        <ele>1241.28</ele>
        <time>2021-11-19T13:38:54.000Z</time>
      </trkpt>
      <trkpt lat="44.61609" lon="3.08423">
        <ele>1266.28</ele>
        <time>2021-11-19T13:39:03.109Z</time>
      </trkpt>
      <trkpt lat="44.61611" lon="3.08418">
        <ele>1245.66</ele>
        <time>2021-11-19T13:39:13.000Z</time>
      </trkpt>
      <trkpt lat="44.61612" lon="3.08417">
        <ele>1248.15</ele>
        <time>2021-11-19T13:39:29.000Z</time>
      </trkpt>
      <trkpt lat="44.61608" lon="3.08409">
        <ele>1238.87</ele>
        <time>2021-11-19T13:39:38.636Z</time>
      </trkpt>
      <trkpt lat="44.61606" lon="3.08402">
        <ele>1252.2</ele>
        <time>2021-11-19T13:39:50.000Z</time>
      </trkpt>
      <trkpt lat="44.61607" lon="3.08402">
        <ele>1242.24</ele>
        <time>2021-11-19T13:40:02.000Z</time>
      </trkpt>
      <trkpt lat="44.61607" lon="3.084">
        <ele>1251.77</ele>
        <time>2021-11-19T13:40:17.000Z</time>
      </trkpt>
      <trkpt lat="44.61606" lon="3.08396">
        <ele>1242.84</ele>
        <time>2021-11-19T13:40:27.000Z</time>
      </trkpt>
      <trkpt lat="44.61605" lon="3.08393">
        <ele>1256.7</ele>
        <time>2021-11-19T13:40:37.000Z</time>
      </trkpt>
      <trkpt lat="44.61603" lon="3.08383">
        <ele>1242.06</ele>
        <time>2021-11-19T13:40:46.316Z</time>
      </trkpt>
      <trkpt lat="44.61602" lon="3.08375">
        <ele>1239.94</ele>
        <time>2021-11-19T13:40:57.000Z</time>
      </trkpt>
      <trkpt lat="44.61602" lon="3.08369">
        <ele>1243.56</ele>
        <time>2021-11-19T13:41:07.000Z</time>
      </trkpt>
      <trkpt lat="44.61601" lon="3.08367">
        <ele>1251.13</ele>
        <time>2021-11-19T13:41:58.000Z</time>
      </trkpt>
      <trkpt lat="44.61598" lon="3.08352">
        <ele>1247.95</ele>
        <time>2021-11-19T13:42:08.037Z</time>
      </trkpt>
      <trkpt lat="44.61595" lon="3.08338">
        <ele>1243.28</ele>
        <time>2021-11-19T13:42:18.000Z</time>
      </trkpt>
      <trkpt lat="44.61593" lon="3.08333">
        <ele>1242.11</ele>
        <time>2021-11-19T13:42:28.000Z</time>
      </trkpt>
      <trkpt lat="44.61592" lon="3.0833">
        <ele>1254.2</ele>
        <time>2021-11-19T13:42:38.000Z</time>
      </trkpt>
      <trkpt lat="44.61592" lon="3.08332">
        <ele>1234.86</ele>
        <time>2021-11-19T13:42:54.000Z</time>
      </trkpt>
      <trkpt lat="44.61589" lon="3.08324">
        <ele>1243.07</ele>
        <time>2021-11-19T13:43:03.553Z</time>
      </trkpt>
      <trkpt lat="44.6159" lon="3.08313">
        <ele>1249.15</ele>
        <time>2021-11-19T13:43:14.000Z</time>
      </trkpt>
      <trkpt lat="44.61589" lon="3.08297">
        <ele>1245.78</ele>
        <time>2021-11-19T13:43:23.853Z</time>
      </trkpt>
      <trkpt lat="44.61585" lon="3.08284">
        <ele>1240.78</ele>
        <time>2021-11-19T13:43:32.893Z</time>
      </trkpt>
      <trkpt lat="44.61583" lon="3.08271">
        <ele>1248.94</ele>
        <time>2021-11-19T13:43:43.000Z</time>
      </trkpt>
      <trkpt lat="44.61581" lon="3.08253">
        <ele>1262.15</ele>
        <time>2021-11-19T13:43:52.213Z</time>
      </trkpt>
      <trkpt lat="44.61579" lon="3.0824">
        <ele>1235.21</ele>
        <time>2021-11-19T13:44:01.335Z</time>
      </trkpt>
      <trkpt lat="44.61577" lon="3.08229">
        <ele>1254.17</ele>
        <time>2021-11-19T13:44:11.000Z</time>
      </trkpt>
      <trkpt lat="44.61577" lon="3.08226">
        <ele>1227.77</ele>
        <time>2021-11-19T13:44:21.000Z</time>
      </trkpt>
      <trkpt lat="44.61577" lon="3.08224">
        <ele>1243.96</ele>
        <time>2021-11-19T13:45:10.000Z</time>
      </trkpt>
      <trkpt lat="44.61575" lon="3.0821">
        <ele>1237.18</ele>
        <time>2021-11-19T13:45:20.000Z</time>
      </trkpt>
      <trkpt lat="44.61573" lon="3.08197">
        <ele>1242.07</ele>
        <time>2021-11-19T13:45:30.000Z</time>
      </trkpt>
      <trkpt lat="44.61568" lon="3.08178">
        <ele>1244.62</ele>
        <time>2021-11-19T13:45:39.373Z</time>
      </trkpt>
      <trkpt lat="44.61567" lon="3.08162">
        <ele>1238.98</ele>
        <time>2021-11-19T13:45:49.273Z</time>
      </trkpt>
      <trkpt lat="44.61567" lon="3.08148">
        <ele>1244.01</ele>
        <time>2021-11-19T13:46:00.000Z</time>
      </trkpt>
      <trkpt lat="44.61563" lon="3.08131">
        <ele>1228.26</ele>
        <time>2021-11-19T13:46:09.272Z</time>
      </trkpt>
      <trkpt lat="44.61561" lon="3.08116">
        <ele>1241.55</ele>
        <time>2021-11-19T13:46:18.334Z</time>
      </trkpt>
      <trkpt lat="44.6156" lon="3.08102">
        <ele>1230.41</ele>
        <time>2021-11-19T13:46:29.000Z</time>
      </trkpt>
      <trkpt lat="44.61559" lon="3.08086">
        <ele>1236.12</ele>
        <time>2021-11-19T13:46:39.000Z</time>
      </trkpt>
      <trkpt lat="44.6156" lon="3.08086">
        <ele>1244.48</ele>
        <time>2021-11-19T13:47:01.000Z</time>
      </trkpt>
      <trkpt lat="44.61557" lon="3.08066">
        <ele>1244.26</ele>
        <time>2021-11-19T13:47:10.796Z</time>
      </trkpt>
      <trkpt lat="44.61556" lon="3.08051">
        <ele>1241.7</ele>
        <time>2021-11-19T13:47:22.000Z</time>
      </trkpt>
      <trkpt lat="44.61552" lon="3.08034">
        <ele>1241.97</ele>
        <time>2021-11-19T13:47:31.211Z</time>
      </trkpt>
      <trkpt lat="44.6155" lon="3.08021">
        <ele>1237.35</ele>
        <time>2021-11-19T13:47:40.331Z</time>
      </trkpt>
      <trkpt lat="44.61549" lon="3.08005">
        <ele>1238.44</ele>
        <time>2021-11-19T13:47:50.287Z</time>
      </trkpt>
      <trkpt lat="44.61547" lon="3.0799">
        <ele>1249.68</ele>
        <time>2021-11-19T13:47:59.766Z</time>
      </trkpt>
      <trkpt lat="44.61547" lon="3.07979">
        <ele>1251.22</ele>
        <time>2021-11-19T13:48:08.890Z</time>
      </trkpt>
      <trkpt lat="44.61547" lon="3.07964">
        <ele>1233.37</ele>
        <time>2021-11-19T13:48:18.335Z</time>
      </trkpt>
      <trkpt lat="44.61544" lon="3.0795">
        <ele>1240.01</ele>
        <time>2021-11-19T13:48:28.146Z</time>
      </trkpt>
      <trkpt lat="44.61541" lon="3.07941">
        <ele>1236.47</ele>
        <time>2021-11-19T13:48:37.806Z</time>
      </trkpt>
      <trkpt lat="44.61539" lon="3.07924">
        <ele>1255.27</ele>
        <time>2021-11-19T13:48:47.152Z</time>
      </trkpt>
      <trkpt lat="44.61539" lon="3.0791">
        <ele>1251.1</ele>
        <time>2021-11-19T13:48:56.191Z</time>
      </trkpt>
      <trkpt lat="44.61537" lon="3.07896">
        <ele>1253.35</ele>
        <time>2021-11-19T13:49:05.731Z</time>
      </trkpt>
      <trkpt lat="44.61536" lon="3.07881">
        <ele>1254.53</ele>
        <time>2021-11-19T13:49:17.000Z</time>
      </trkpt>
      <trkpt lat="44.61534" lon="3.07864">
        <ele>1232.61</ele>
        <time>2021-11-19T13:49:26.170Z</time>
      </trkpt>
      <trkpt lat="44.61536" lon="3.07847">
        <ele>1245.87</ele>
        <time>2021-11-19T13:49:36.358Z</time>
      </trkpt>
      <trkpt lat="44.6154" lon="3.07833">
        <ele>1249.96</ele>
        <time>2021-11-19T13:49:45.930Z</time>
      </trkpt>
      <trkpt lat="44.61546" lon="3.07817">
        <ele>1251.45</ele>
        <time>2021-11-19T13:49:56.035Z</time>
      </trkpt>
      <trkpt lat="44.61549" lon="3.07811">
        <ele>1245.56</ele>
        <time>2021-11-19T13:50:06.000Z</time>
      </trkpt>
      <trkpt lat="44.61548" lon="3.07813">
        <ele>1248.74</ele>
        <time>2021-11-19T13:50:16.000Z</time>
      </trkpt>
      <trkpt lat="44.61548" lon="3.07811">
        <ele>1250.55</ele>
        <time>2021-11-19T13:50:46.000Z</time>
      </trkpt>
      <trkpt lat="44.61549" lon="3.0781">
        <ele>1247.63</ele>
        <time>2021-11-19T13:51:05.000Z</time>
      </trkpt>
      <trkpt lat="44.61549" lon="3.07809">
        <ele>1229.85</ele>
        <time>2021-11-19T13:51:50.000Z</time>
      </trkpt>
      <trkpt lat="44.61553" lon="3.07793">
        <ele>1256.72</ele>
        <time>2021-11-19T13:52:00.000Z</time>
      </trkpt>
      <trkpt lat="44.61556" lon="3.07774">
        <ele>1241.43</ele>
        <time>2021-11-19T13:52:09.236Z</time>
      </trkpt>
      <trkpt lat="44.6156" lon="3.07758">
        <ele>1243.16</ele>
        <time>2021-11-19T13:52:19.116Z</time>
      </trkpt>
      <trkpt lat="44.61564" lon="3.07742">
        <ele>1252.67</ele>
        <time>2021-11-19T13:52:28.316Z</time>
      </trkpt>
      <trkpt lat="44.61567" lon="3.0773">
        <ele>1246.65</ele>
        <time>2021-11-19T13:52:38.000Z</time>
      </trkpt>
      <trkpt lat="44.61572" lon="3.07714">
        <ele>1232.83</ele>
        <time>2021-11-19T13:52:47.377Z</time>
      </trkpt>
      <trkpt lat="44.61574" lon="3.07699">
        <ele>1251.85</ele>
        <time>2021-11-19T13:52:56.795Z</time>
      </trkpt>
      <trkpt lat="44.61577" lon="3.07684">
        <ele>1255</ele>
        <time>2021-11-19T13:53:06.137Z</time>
      </trkpt>
      <trkpt lat="44.61583" lon="3.07669">
        <ele>1247.65</ele>
        <time>2021-11-19T13:53:16.076Z</time>
      </trkpt>
      <trkpt lat="44.61587" lon="3.07653">
        <ele>1233.07</ele>
        <time>2021-11-19T13:53:26.036Z</time>
      </trkpt>
      <trkpt lat="44.6159" lon="3.07636">
        <ele>1252.81</ele>
        <time>2021-11-19T13:53:36.036Z</time>
      </trkpt>
      <trkpt lat="44.61596" lon="3.07622">
        <ele>1236.6</ele>
        <time>2021-11-19T13:53:45.436Z</time>
      </trkpt>
      <trkpt lat="44.61601" lon="3.07609">
        <ele>1258.43</ele>
        <time>2021-11-19T13:53:54.936Z</time>
      </trkpt>
      <trkpt lat="44.61606" lon="3.07597">
        <ele>1249</ele>
        <time>2021-11-19T13:54:04.336Z</time>
      </trkpt>
      <trkpt lat="44.61614" lon="3.07589">
        <ele>1247.2</ele>
        <time>2021-11-19T13:54:14.376Z</time>
      </trkpt>
      <trkpt lat="44.61622" lon="3.07578">
        <ele>1248.42</ele>
        <time>2021-11-19T13:54:24.402Z</time>
      </trkpt>
      <trkpt lat="44.61631" lon="3.07568">
        <ele>1233.7</ele>
        <time>2021-11-19T13:54:33.717Z</time>
      </trkpt>
      <trkpt lat="44.61638" lon="3.07557">
        <ele>1234.52</ele>
        <time>2021-11-19T13:54:43.095Z</time>
      </trkpt>
      <trkpt lat="44.61647" lon="3.07548">
        <ele>1239.22</ele>
        <time>2021-11-19T13:54:52.556Z</time>
      </trkpt>
      <trkpt lat="44.61656" lon="3.07539">
        <ele>1243.88</ele>
        <time>2021-11-19T13:55:03.000Z</time>
      </trkpt>
      <trkpt lat="44.61667" lon="3.07531">
        <ele>1237.13</ele>
        <time>2021-11-19T13:55:12.116Z</time>
      </trkpt>
      <trkpt lat="44.61677" lon="3.07525">
        <ele>1249.37</ele>
        <time>2021-11-19T13:55:21.636Z</time>
      </trkpt>
      <trkpt lat="44.61686" lon="3.07518">
        <ele>1246.4</ele>
        <time>2021-11-19T13:55:33.000Z</time>
      </trkpt>
      <trkpt lat="44.61697" lon="3.0751">
        <ele>1233.04</ele>
        <time>2021-11-19T13:55:43.115Z</time>
      </trkpt>
      <trkpt lat="44.61704" lon="3.07506">
        <ele>1234.95</ele>
        <time>2021-11-19T13:55:53.000Z</time>
      </trkpt>
      <trkpt lat="44.61712" lon="3.07497">
        <ele>1251.61</ele>
        <time>2021-11-19T13:56:02.235Z</time>
      </trkpt>
      <trkpt lat="44.61719" lon="3.0749">
        <ele>1238.08</ele>
        <time>2021-11-19T13:56:13.000Z</time>
      </trkpt>
      <trkpt lat="44.61726" lon="3.07479">
        <ele>1248.08</ele>
        <time>2021-11-19T13:56:22.175Z</time>
      </trkpt>
      <trkpt lat="44.61731" lon="3.07471">
        <ele>1233.41</ele>
        <time>2021-11-19T13:56:32.000Z</time>
      </trkpt>
      <trkpt lat="44.61735" lon="3.0746">
        <ele>1255.91</ele>
        <time>2021-11-19T13:56:41.256Z</time>
      </trkpt>
      <trkpt lat="44.6174" lon="3.07449">
        <ele>1239.54</ele>
        <time>2021-11-19T13:56:51.295Z</time>
      </trkpt>
      <trkpt lat="44.61742" lon="3.07448">
        <ele>1245.26</ele>
        <time>2021-11-19T13:57:01.000Z</time>
      </trkpt>
      <trkpt lat="44.61744" lon="3.07446">
        <ele>1243.84</ele>
        <time>2021-11-19T13:57:11.000Z</time>
      </trkpt>
      <trkpt lat="44.61746" lon="3.07445">
        <ele>1248.54</ele>
        <time>2021-11-19T13:57:21.000Z</time>
      </trkpt>
      <trkpt lat="44.61751" lon="3.07434">
        <ele>1242.18</ele>
        <time>2021-11-19T13:57:30.047Z</time>
      </trkpt>
      <trkpt lat="44.61753" lon="3.07429">
        <ele>1236.68</ele>
        <time>2021-11-19T13:57:40.000Z</time>
      </trkpt>
      <trkpt lat="44.61753" lon="3.07426">
        <ele>1244.23</ele>
        <time>2021-11-19T13:57:53.094Z</time>
      </trkpt>
      <trkpt lat="44.61757" lon="3.07412">
        <ele>1251.02</ele>
        <time>2021-11-19T13:58:04.000Z</time>
      </trkpt>
      <trkpt lat="44.61755" lon="3.07406">
        <ele>1243.47</ele>
        <time>2021-11-19T13:58:14.000Z</time>
      </trkpt>
      <trkpt lat="44.61755" lon="3.07405">
        <ele>1244.35</ele>
        <time>2021-11-19T13:58:27.613Z</time>
      </trkpt>
      <trkpt lat="44.61752" lon="3.07391">
        <ele>1232.35</ele>
        <time>2021-11-19T13:58:36.633Z</time>
      </trkpt>
      <trkpt lat="44.61749" lon="3.07378">
        <ele>1244.31</ele>
        <time>2021-11-19T13:58:46.254Z</time>
      </trkpt>
      <trkpt lat="44.61745" lon="3.07363">
        <ele>1244.86</ele>
        <time>2021-11-19T13:58:56.094Z</time>
      </trkpt>
      <trkpt lat="44.6174" lon="3.07355">
        <ele>1238.58</ele>
        <time>2021-11-19T13:59:06.000Z</time>
      </trkpt>
      <trkpt lat="44.61731" lon="3.07343">
        <ele>1233.72</ele>
        <time>2021-11-19T13:59:15.094Z</time>
      </trkpt>
      <trkpt lat="44.61725" lon="3.0733">
        <ele>1227.41</ele>
        <time>2021-11-19T13:59:25.114Z</time>
      </trkpt>
      <trkpt lat="44.61718" lon="3.07319">
        <ele>1239.77</ele>
        <time>2021-11-19T13:59:34.373Z</time>
      </trkpt>
      <trkpt lat="44.61711" lon="3.07309">
        <ele>1235.26</ele>
        <time>2021-11-19T13:59:43.754Z</time>
      </trkpt>
      <trkpt lat="44.61705" lon="3.07297">
        <ele>1221.15</ele>
        <time>2021-11-19T13:59:53.054Z</time>
      </trkpt>
      <trkpt lat="44.61698" lon="3.07286">
        <ele>1222.79</ele>
        <time>2021-11-19T14:00:02.374Z</time>
      </trkpt>
      <trkpt lat="44.61692" lon="3.07276">
        <ele>1227.18</ele>
        <time>2021-11-19T14:00:12.000Z</time>
      </trkpt>
      <trkpt lat="44.61689" lon="3.07261">
        <ele>1238.71</ele>
        <time>2021-11-19T14:00:21.336Z</time>
      </trkpt>
      <trkpt lat="44.61696" lon="3.07249">
        <ele>1238.8</ele>
        <time>2021-11-19T14:00:30.674Z</time>
      </trkpt>
      <trkpt lat="44.61707" lon="3.07242">
        <ele>1226.73</ele>
        <time>2021-11-19T14:00:39.884Z</time>
      </trkpt>
      <trkpt lat="44.61719" lon="3.07233">
        <ele>1224.1</ele>
        <time>2021-11-19T14:00:49.215Z</time>
      </trkpt>
      <trkpt lat="44.6173" lon="3.07226">
        <ele>1208.57</ele>
        <time>2021-11-19T14:00:58.994Z</time>
      </trkpt>
      <trkpt lat="44.6174" lon="3.0722">
        <ele>1232.32</ele>
        <time>2021-11-19T14:01:08.273Z</time>
      </trkpt>
      <trkpt lat="44.6175" lon="3.07213">
        <ele>1228.7</ele>
        <time>2021-11-19T14:01:17.594Z</time>
      </trkpt>
      <trkpt lat="44.6176" lon="3.07206">
        <ele>1234.95</ele>
        <time>2021-11-19T14:01:26.874Z</time>
      </trkpt>
      <trkpt lat="44.61769" lon="3.072">
        <ele>1231.56</ele>
        <time>2021-11-19T14:01:36.000Z</time>
      </trkpt>
      <trkpt lat="44.61781" lon="3.07191">
        <ele>1219.48</ele>
        <time>2021-11-19T14:01:46.014Z</time>
      </trkpt>
      <trkpt lat="44.61791" lon="3.07183">
        <ele>1242.41</ele>
        <time>2021-11-19T14:01:55.953Z</time>
      </trkpt>
      <trkpt lat="44.61801" lon="3.07176">
        <ele>1218.48</ele>
        <time>2021-11-19T14:02:05.295Z</time>
      </trkpt>
      <trkpt lat="44.6181" lon="3.07168">
        <ele>1229.71</ele>
        <time>2021-11-19T14:02:14.980Z</time>
      </trkpt>
      <trkpt lat="44.61819" lon="3.07162">
        <ele>1234.67</ele>
        <time>2021-11-19T14:02:24.114Z</time>
      </trkpt>
      <trkpt lat="44.61831" lon="3.07157">
        <ele>1219.38</ele>
        <time>2021-11-19T14:02:33.354Z</time>
      </trkpt>
      <trkpt lat="44.61842" lon="3.07156">
        <ele>1235.31</ele>
        <time>2021-11-19T14:02:42.674Z</time>
      </trkpt>
      <trkpt lat="44.61854" lon="3.07154">
        <ele>1235.06</ele>
        <time>2021-11-19T14:02:54.000Z</time>
      </trkpt>
      <trkpt lat="44.61868" lon="3.07149">
        <ele>1227.43</ele>
        <time>2021-11-19T14:03:03.507Z</time>
      </trkpt>
      <trkpt lat="44.61881" lon="3.07149">
        <ele>1242.67</ele>
        <time>2021-11-19T14:03:12.873Z</time>
      </trkpt>
      <trkpt lat="44.61891" lon="3.07153">
        <ele>1238.3</ele>
        <time>2021-11-19T14:03:22.215Z</time>
      </trkpt>
      <trkpt lat="44.61901" lon="3.07155">
        <ele>1227.94</ele>
        <time>2021-11-19T14:03:32.000Z</time>
      </trkpt>
      <trkpt lat="44.61912" lon="3.07157">
        <ele>1221.29</ele>
        <time>2021-11-19T14:03:42.000Z</time>
      </trkpt>
      <trkpt lat="44.61916" lon="3.07157">
        <ele>1220.56</ele>
        <time>2021-11-19T14:03:52.257Z</time>
      </trkpt>
      <trkpt lat="44.61929" lon="3.07157">
        <ele>1239.3</ele>
        <time>2021-11-19T14:04:01.976Z</time>
      </trkpt>
      <trkpt lat="44.61941" lon="3.07159">
        <ele>1229.32</ele>
        <time>2021-11-19T14:04:11.166Z</time>
      </trkpt>
      <trkpt lat="44.61951" lon="3.07161">
        <ele>1224.13</ele>
        <time>2021-11-19T14:04:21.000Z</time>
      </trkpt>
      <trkpt lat="44.61963" lon="3.07165">
        <ele>1247.38</ele>
        <time>2021-11-19T14:04:30.487Z</time>
      </trkpt>
      <trkpt lat="44.61975" lon="3.07166">
        <ele>1231.43</ele>
        <time>2021-11-19T14:04:42.000Z</time>
      </trkpt>
      <trkpt lat="44.61986" lon="3.07166">
        <ele>1229.54</ele>
        <time>2021-11-19T14:04:52.000Z</time>
      </trkpt>
      <trkpt lat="44.61999" lon="3.0717">
        <ele>1228.89</ele>
        <time>2021-11-19T14:05:01.079Z</time>
      </trkpt>
      <trkpt lat="44.62009" lon="3.07172">
        <ele>1222.36</ele>
        <time>2021-11-19T14:05:11.000Z</time>
      </trkpt>
      <trkpt lat="44.62022" lon="3.07175">
        <ele>1238.85</ele>
        <time>2021-11-19T14:05:20.099Z</time>
      </trkpt>
      <trkpt lat="44.62033" lon="3.07176">
        <ele>1240.85</ele>
        <time>2021-11-19T14:05:29.539Z</time>
      </trkpt>
      <trkpt lat="44.62044" lon="3.07177">
        <ele>1230.74</ele>
        <time>2021-11-19T14:05:38.899Z</time>
      </trkpt>
      <trkpt lat="44.62056" lon="3.07179">
        <ele>1240.2</ele>
        <time>2021-11-19T14:05:48.199Z</time>
      </trkpt>
      <trkpt lat="44.62065" lon="3.0718">
        <ele>1249.54</ele>
        <time>2021-11-19T14:05:58.000Z</time>
      </trkpt>
      <trkpt lat="44.62078" lon="3.07181">
        <ele>1246.92</ele>
        <time>2021-11-19T14:06:07.537Z</time>
      </trkpt>
      <trkpt lat="44.62087" lon="3.07183">
        <ele>1211.75</ele>
        <time>2021-11-19T14:06:17.117Z</time>
      </trkpt>
      <trkpt lat="44.62097" lon="3.07184">
        <ele>1238.57</ele>
        <time>2021-11-19T14:06:26.618Z</time>
      </trkpt>
      <trkpt lat="44.62107" lon="3.07184">
        <ele>1219.39</ele>
        <time>2021-11-19T14:06:37.000Z</time>
      </trkpt>
      <trkpt lat="44.62119" lon="3.07186">
        <ele>1224.22</ele>
        <time>2021-11-19T14:06:47.099Z</time>
      </trkpt>
      <trkpt lat="44.6213" lon="3.07186">
        <ele>1225.6</ele>
        <time>2021-11-19T14:06:56.379Z</time>
      </trkpt>
      <trkpt lat="44.62141" lon="3.07185">
        <ele>1213.71</ele>
        <time>2021-11-19T14:07:06.039Z</time>
      </trkpt>
      <trkpt lat="44.62153" lon="3.07183">
        <ele>1226.67</ele>
        <time>2021-11-19T14:07:15.119Z</time>
      </trkpt>
      <trkpt lat="44.62164" lon="3.07181">
        <ele>1223.8</ele>
        <time>2021-11-19T14:07:24.279Z</time>
      </trkpt>
      <trkpt lat="44.62176" lon="3.0718">
        <ele>1234.53</ele>
        <time>2021-11-19T14:07:33.999Z</time>
      </trkpt>
      <trkpt lat="44.62188" lon="3.07177">
        <ele>1231.88</ele>
        <time>2021-11-19T14:07:43.139Z</time>
      </trkpt>
      <trkpt lat="44.62199" lon="3.07175">
        <ele>1225.04</ele>
        <time>2021-11-19T14:07:52.300Z</time>
      </trkpt>
      <trkpt lat="44.62209" lon="3.07171">
        <ele>1224.42</ele>
        <time>2021-11-19T14:08:01.506Z</time>
      </trkpt>
      <trkpt lat="44.6222" lon="3.07168">
        <ele>1224.08</ele>
        <time>2021-11-19T14:08:10.919Z</time>
      </trkpt>
      <trkpt lat="44.6223" lon="3.07163">
        <ele>1213.71</ele>
        <time>2021-11-19T14:08:20.224Z</time>
      </trkpt>
      <trkpt lat="44.62239" lon="3.07155">
        <ele>1232.08</ele>
        <time>2021-11-19T14:08:30.178Z</time>
      </trkpt>
      <trkpt lat="44.62248" lon="3.07145">
        <ele>1223.99</ele>
        <time>2021-11-19T14:08:40.039Z</time>
      </trkpt>
      <trkpt lat="44.62252" lon="3.07132">
        <ele>1222.83</ele>
        <time>2021-11-19T14:08:50.119Z</time>
      </trkpt>
      <trkpt lat="44.62253" lon="3.07125">
        <ele>1220.06</ele>
        <time>2021-11-19T14:09:00.000Z</time>
      </trkpt>
      <trkpt lat="44.62257" lon="3.07119">
        <ele>1230.11</ele>
        <time>2021-11-19T14:09:10.000Z</time>
      </trkpt>
      <trkpt lat="44.62264" lon="3.07103">
        <ele>1231.72</ele>
        <time>2021-11-19T14:09:19.459Z</time>
      </trkpt>
      <trkpt lat="44.6227" lon="3.07089">
        <ele>1232.92</ele>
        <time>2021-11-19T14:09:28.879Z</time>
      </trkpt>
      <trkpt lat="44.62277" lon="3.07078">
        <ele>1225.08</ele>
        <time>2021-11-19T14:09:38.300Z</time>
      </trkpt>
      <trkpt lat="44.62285" lon="3.07068">
        <ele>1227.51</ele>
        <time>2021-11-19T14:09:48.259Z</time>
      </trkpt>
      <trkpt lat="44.62295" lon="3.07059">
        <ele>1246.36</ele>
        <time>2021-11-19T14:09:58.077Z</time>
      </trkpt>
      <trkpt lat="44.62304" lon="3.07051">
        <ele>1230.57</ele>
        <time>2021-11-19T14:10:08.078Z</time>
      </trkpt>
      <trkpt lat="44.62312" lon="3.07045">
        <ele>1239.14</ele>
        <time>2021-11-19T14:10:18.000Z</time>
      </trkpt>
      <trkpt lat="44.62323" lon="3.07036">
        <ele>1217.76</ele>
        <time>2021-11-19T14:10:27.159Z</time>
      </trkpt>
      <trkpt lat="44.6233" lon="3.07026">
        <ele>1217.81</ele>
        <time>2021-11-19T14:10:38.000Z</time>
      </trkpt>
      <trkpt lat="44.62331" lon="3.07022">
        <ele>1210.76</ele>
        <time>2021-11-19T14:10:48.000Z</time>
      </trkpt>
      <trkpt lat="44.6233" lon="3.0702">
        <ele>1214.71</ele>
        <time>2021-11-19T14:11:06.000Z</time>
      </trkpt>
      <trkpt lat="44.6233" lon="3.07002">
        <ele>1233.68</ele>
        <time>2021-11-19T14:11:15.458Z</time>
      </trkpt>
      <trkpt lat="44.62329" lon="3.06986">
        <ele>1215.18</ele>
        <time>2021-11-19T14:11:24.799Z</time>
      </trkpt>
      <trkpt lat="44.62327" lon="3.06969">
        <ele>1239.07</ele>
        <time>2021-11-19T14:11:34.219Z</time>
      </trkpt>
      <trkpt lat="44.62321" lon="3.06955">
        <ele>1211.2</ele>
        <time>2021-11-19T14:11:43.479Z</time>
      </trkpt>
      <trkpt lat="44.62315" lon="3.0694">
        <ele>1217.12</ele>
        <time>2021-11-19T14:11:53.319Z</time>
      </trkpt>
      <trkpt lat="44.62311" lon="3.06926">
        <ele>1238.95</ele>
        <time>2021-11-19T14:12:03.000Z</time>
      </trkpt>
      <trkpt lat="44.62307" lon="3.06906">
        <ele>1237.38</ele>
        <time>2021-11-19T14:12:13.077Z</time>
      </trkpt>
      <trkpt lat="44.62304" lon="3.0689">
        <ele>1235.59</ele>
        <time>2021-11-19T14:12:22.278Z</time>
      </trkpt>
      <trkpt lat="44.62302" lon="3.06877">
        <ele>1220.7</ele>
        <time>2021-11-19T14:12:34.000Z</time>
      </trkpt>
      <trkpt lat="44.62302" lon="3.06866">
        <ele>1226.33</ele>
        <time>2021-11-19T14:12:44.160Z</time>
      </trkpt>
      <trkpt lat="44.62296" lon="3.06851">
        <ele>1231.7</ele>
        <time>2021-11-19T14:12:54.261Z</time>
      </trkpt>
      <trkpt lat="44.6229" lon="3.06837">
        <ele>1234.54</ele>
        <time>2021-11-19T14:13:04.139Z</time>
      </trkpt>
      <trkpt lat="44.62286" lon="3.06821">
        <ele>1225.78</ele>
        <time>2021-11-19T14:13:13.725Z</time>
      </trkpt>
      <trkpt lat="44.62282" lon="3.06806">
        <ele>1220.01</ele>
        <time>2021-11-19T14:13:23.119Z</time>
      </trkpt>
      <trkpt lat="44.62281" lon="3.06788">
        <ele>1226.55</ele>
        <time>2021-11-19T14:13:33.039Z</time>
      </trkpt>
      <trkpt lat="44.62285" lon="3.06771">
        <ele>1217.13</ele>
        <time>2021-11-19T14:13:43.159Z</time>
      </trkpt>
      <trkpt lat="44.62291" lon="3.06758">
        <ele>1223.07</ele>
        <time>2021-11-19T14:13:53.019Z</time>
      </trkpt>
      <trkpt lat="44.62299" lon="3.06748">
        <ele>1237.32</ele>
        <time>2021-11-19T14:14:02.259Z</time>
      </trkpt>
      <trkpt lat="44.62307" lon="3.06738">
        <ele>1224.34</ele>
        <time>2021-11-19T14:14:11.342Z</time>
      </trkpt>
      <trkpt lat="44.62317" lon="3.06731">
        <ele>1226.12</ele>
        <time>2021-11-19T14:14:20.899Z</time>
      </trkpt>
      <trkpt lat="44.62327" lon="3.06725">
        <ele>1235.14</ele>
        <time>2021-11-19T14:14:30.178Z</time>
      </trkpt>
      <trkpt lat="44.62328" lon="3.06727">
        <ele>1213.05</ele>
        <time>2021-11-19T14:14:40.000Z</time>
      </trkpt>
      <trkpt lat="44.6233" lon="3.06725">
        <ele>1245.38</ele>
        <time>2021-11-19T14:14:49.318Z</time>
      </trkpt>
      <trkpt lat="44.62342" lon="3.0672">
        <ele>1228.49</ele>
        <time>2021-11-19T14:14:59.079Z</time>
      </trkpt>
      <trkpt lat="44.62352" lon="3.06714">
        <ele>1226.13</ele>
        <time>2021-11-19T14:15:08.939Z</time>
      </trkpt>
      <trkpt lat="44.62358" lon="3.06709">
        <ele>1224.79</ele>
        <time>2021-11-19T14:15:18.000Z</time>
      </trkpt>
      <trkpt lat="44.62362" lon="3.06701">
        <ele>1219.83</ele>
        <time>2021-11-19T14:15:27.218Z</time>
      </trkpt>
      <trkpt lat="44.6237" lon="3.06698">
        <ele>1235.57</ele>
        <time>2021-11-19T14:15:36.779Z</time>
      </trkpt>
      <trkpt lat="44.62378" lon="3.06693">
        <ele>1233.03</ele>
        <time>2021-11-19T14:15:46.000Z</time>
      </trkpt>
      <trkpt lat="44.62391" lon="3.0669">
        <ele>1232.59</ele>
        <time>2021-11-19T14:15:55.959Z</time>
      </trkpt>
      <trkpt lat="44.62402" lon="3.06691">
        <ele>1226.16</ele>
        <time>2021-11-19T14:16:05.059Z</time>
      </trkpt>
      <trkpt lat="44.62413" lon="3.06692">
        <ele>1223.78</ele>
        <time>2021-11-19T14:16:14.099Z</time>
      </trkpt>
      <trkpt lat="44.62425" lon="3.06692">
        <ele>1224.59</ele>
        <time>2021-11-19T14:16:23.999Z</time>
      </trkpt>
      <trkpt lat="44.62437" lon="3.06694">
        <ele>1227.49</ele>
        <time>2021-11-19T14:16:33.179Z</time>
      </trkpt>
      <trkpt lat="44.62448" lon="3.06695">
        <ele>1250.09</ele>
        <time>2021-11-19T14:16:42.259Z</time>
      </trkpt>
      <trkpt lat="44.6246" lon="3.06692">
        <ele>1226.97</ele>
        <time>2021-11-19T14:16:52.119Z</time>
      </trkpt>
      <trkpt lat="44.6247" lon="3.06685">
        <ele>1222.67</ele>
        <time>2021-11-19T14:17:01.219Z</time>
      </trkpt>
      <trkpt lat="44.62477" lon="3.06671">
        <ele>1220.61</ele>
        <time>2021-11-19T14:17:10.852Z</time>
      </trkpt>
      <trkpt lat="44.6248" lon="3.06659">
        <ele>1215.25</ele>
        <time>2021-11-19T14:17:20.000Z</time>
      </trkpt>
      <trkpt lat="44.62483" lon="3.06641">
        <ele>1226.81</ele>
        <time>2021-11-19T14:17:29.092Z</time>
      </trkpt>
      <trkpt lat="44.62486" lon="3.06629">
        <ele>1222.72</ele>
        <time>2021-11-19T14:17:39.000Z</time>
      </trkpt>
      <trkpt lat="44.62486" lon="3.06627">
        <ele>1228.36</ele>
        <time>2021-11-19T14:17:50.756Z</time>
      </trkpt>
      <trkpt lat="44.62491" lon="3.06602">
        <ele>1230.21</ele>
        <time>2021-11-19T14:18:00.276Z</time>
      </trkpt>
      <trkpt lat="44.62497" lon="3.06586">
        <ele>1209.3</ele>
        <time>2021-11-19T14:18:09.295Z</time>
      </trkpt>
      <trkpt lat="44.62503" lon="3.06574">
        <ele>1230.81</ele>
        <time>2021-11-19T14:18:18.376Z</time>
      </trkpt>
      <trkpt lat="44.62512" lon="3.06561">
        <ele>1236.75</ele>
        <time>2021-11-19T14:18:27.576Z</time>
      </trkpt>
      <trkpt lat="44.6252" lon="3.06549">
        <ele>1226.07</ele>
        <time>2021-11-19T14:18:36.797Z</time>
      </trkpt>
      <trkpt lat="44.62529" lon="3.06539">
        <ele>1238.71</ele>
        <time>2021-11-19T14:18:46.037Z</time>
      </trkpt>
      <trkpt lat="44.62537" lon="3.06528">
        <ele>1214.21</ele>
        <time>2021-11-19T14:18:55.256Z</time>
      </trkpt>
      <trkpt lat="44.62544" lon="3.06514">
        <ele>1234.29</ele>
        <time>2021-11-19T14:19:05.036Z</time>
      </trkpt>
      <trkpt lat="44.6255" lon="3.06499">
        <ele>1227.85</ele>
        <time>2021-11-19T14:19:14.347Z</time>
      </trkpt>
      <trkpt lat="44.62553" lon="3.06484">
        <ele>1218.6</ele>
        <time>2021-11-19T14:19:23.555Z</time>
      </trkpt>
      <trkpt lat="44.62556" lon="3.06468">
        <ele>1233.49</ele>
        <time>2021-11-19T14:19:32.796Z</time>
      </trkpt>
      <trkpt lat="44.62559" lon="3.06453">
        <ele>1230.56</ele>
        <time>2021-11-19T14:19:42.016Z</time>
      </trkpt>
      <trkpt lat="44.62563" lon="3.06439">
        <ele>1222.62</ele>
        <time>2021-11-19T14:19:51.236Z</time>
      </trkpt>
      <trkpt lat="44.6257" lon="3.06426">
        <ele>1211.45</ele>
        <time>2021-11-19T14:20:01.135Z</time>
      </trkpt>
      <trkpt lat="44.62579" lon="3.06416">
        <ele>1206.48</ele>
        <time>2021-11-19T14:20:11.015Z</time>
      </trkpt>
      <trkpt lat="44.62588" lon="3.06406">
        <ele>1216.53</ele>
        <time>2021-11-19T14:20:21.076Z</time>
      </trkpt>
      <trkpt lat="44.62597" lon="3.06397">
        <ele>1215.95</ele>
        <time>2021-11-19T14:20:30.558Z</time>
      </trkpt>
      <trkpt lat="44.62606" lon="3.06385">
        <ele>1223.25</ele>
        <time>2021-11-19T14:20:39.896Z</time>
      </trkpt>
      <trkpt lat="44.62614" lon="3.06373">
        <ele>1216.01</ele>
        <time>2021-11-19T14:20:49.116Z</time>
      </trkpt>
      <trkpt lat="44.62622" lon="3.06362">
        <ele>1222.35</ele>
        <time>2021-11-19T14:20:58.378Z</time>
      </trkpt>
      <trkpt lat="44.6263" lon="3.0635">
        <ele>1224.09</ele>
        <time>2021-11-19T14:21:07.695Z</time>
      </trkpt>
      <trkpt lat="44.62637" lon="3.06339">
        <ele>1218.79</ele>
        <time>2021-11-19T14:21:18.000Z</time>
      </trkpt>
      <trkpt lat="44.62646" lon="3.06325">
        <ele>1218.98</ele>
        <time>2021-11-19T14:21:29.000Z</time>
      </trkpt>
      <trkpt lat="44.62655" lon="3.06312">
        <ele>1218.43</ele>
        <time>2021-11-19T14:21:38.996Z</time>
      </trkpt>
      <trkpt lat="44.62665" lon="3.06302">
        <ele>1223.54</ele>
        <time>2021-11-19T14:21:48.256Z</time>
      </trkpt>
      <trkpt lat="44.62675" lon="3.06293">
        <ele>1219.31</ele>
        <time>2021-11-19T14:21:57.655Z</time>
      </trkpt>
      <trkpt lat="44.62686" lon="3.06288">
        <ele>1227.86</ele>
        <time>2021-11-19T14:22:07.216Z</time>
      </trkpt>
      <trkpt lat="44.62696" lon="3.06285">
        <ele>1231.22</ele>
        <time>2021-11-19T14:22:17.000Z</time>
      </trkpt>
      <trkpt lat="44.6271" lon="3.06287">
        <ele>1221.3</ele>
        <time>2021-11-19T14:22:28.000Z</time>
      </trkpt>
      <trkpt lat="44.62724" lon="3.06291">
        <ele>1223.15</ele>
        <time>2021-11-19T14:22:37.815Z</time>
      </trkpt>
      <trkpt lat="44.62735" lon="3.06295">
        <ele>1209.74</ele>
        <time>2021-11-19T14:22:47.276Z</time>
      </trkpt>
      <trkpt lat="44.62746" lon="3.06297">
        <ele>1231.38</ele>
        <time>2021-11-19T14:22:56.996Z</time>
      </trkpt>
      <trkpt lat="44.62754" lon="3.06298">
        <ele>1226.43</ele>
        <time>2021-11-19T14:23:06.000Z</time>
      </trkpt>
      <trkpt lat="44.62766" lon="3.06297">
        <ele>1231.99</ele>
        <time>2021-11-19T14:23:15.315Z</time>
      </trkpt>
      <trkpt lat="44.62777" lon="3.06294">
        <ele>1231.06</ele>
        <time>2021-11-19T14:23:25.075Z</time>
      </trkpt>
      <trkpt lat="44.62787" lon="3.06288">
        <ele>1219.25</ele>
        <time>2021-11-19T14:23:34.176Z</time>
      </trkpt>
      <trkpt lat="44.62795" lon="3.06279">
        <ele>1213.09</ele>
        <time>2021-11-19T14:23:43.256Z</time>
      </trkpt>
      <trkpt lat="44.62798" lon="3.06268">
        <ele>1227.46</ele>
        <time>2021-11-19T14:23:52.856Z</time>
      </trkpt>
      <trkpt lat="44.628" lon="3.06253">
        <ele>1232.74</ele>
        <time>2021-11-19T14:24:01.936Z</time>
      </trkpt>
      <trkpt lat="44.62802" lon="3.06237">
        <ele>1223.12</ele>
        <time>2021-11-19T14:24:11.156Z</time>
      </trkpt>
      <trkpt lat="44.62805" lon="3.06222">
        <ele>1230.62</ele>
        <time>2021-11-19T14:24:20.596Z</time>
      </trkpt>
      <trkpt lat="44.62806" lon="3.06207">
        <ele>1242.58</ele>
        <time>2021-11-19T14:24:30.056Z</time>
      </trkpt>
      <trkpt lat="44.62809" lon="3.06194">
        <ele>1232.78</ele>
        <time>2021-11-19T14:24:40.000Z</time>
      </trkpt>
      <trkpt lat="44.62812" lon="3.06174">
        <ele>1239.85</ele>
        <time>2021-11-19T14:24:49.555Z</time>
      </trkpt>
      <trkpt lat="44.6282" lon="3.06164">
        <ele>1223.54</ele>
        <time>2021-11-19T14:24:59.096Z</time>
      </trkpt>
      <trkpt lat="44.62829" lon="3.06159">
        <ele>1238.81</ele>
        <time>2021-11-19T14:25:09.000Z</time>
      </trkpt>
      <trkpt lat="44.62842" lon="3.0615">
        <ele>1226.87</ele>
        <time>2021-11-19T14:25:18.736Z</time>
      </trkpt>
      <trkpt lat="44.62852" lon="3.06143">
        <ele>1232.66</ele>
        <time>2021-11-19T14:25:28.216Z</time>
      </trkpt>
      <trkpt lat="44.62861" lon="3.06136">
        <ele>1220.36</ele>
        <time>2021-11-19T14:25:39.000Z</time>
      </trkpt>
      <trkpt lat="44.62872" lon="3.06126">
        <ele>1239.53</ele>
        <time>2021-11-19T14:25:48.236Z</time>
      </trkpt>
      <trkpt lat="44.62881" lon="3.06117">
        <ele>1222.57</ele>
        <time>2021-11-19T14:25:57.836Z</time>
      </trkpt>
      <trkpt lat="44.62889" lon="3.06107">
        <ele>1236.78</ele>
        <time>2021-11-19T14:26:09.000Z</time>
      </trkpt>
      <trkpt lat="44.62899" lon="3.06096">
        <ele>1228.66</ele>
        <time>2021-11-19T14:26:18.337Z</time>
      </trkpt>
      <trkpt lat="44.62906" lon="3.06087">
        <ele>1231.89</ele>
        <time>2021-11-19T14:26:28.055Z</time>
      </trkpt>
      <trkpt lat="44.62914" lon="3.06079">
        <ele>1236.09</ele>
        <time>2021-11-19T14:26:37.176Z</time>
      </trkpt>
      <trkpt lat="44.62922" lon="3.06069">
        <ele>1242.84</ele>
        <time>2021-11-19T14:26:46.194Z</time>
      </trkpt>
      <trkpt lat="44.6293" lon="3.06058">
        <ele>1233.66</ele>
        <time>2021-11-19T14:26:55.795Z</time>
      </trkpt>
      <trkpt lat="44.62937" lon="3.06049">
        <ele>1247.86</ele>
        <time>2021-11-19T14:27:06.000Z</time>
      </trkpt>
      <trkpt lat="44.62947" lon="3.06039">
        <ele>1247.35</ele>
        <time>2021-11-19T14:27:15.235Z</time>
      </trkpt>
      <trkpt lat="44.62955" lon="3.06032">
        <ele>1237.82</ele>
        <time>2021-11-19T14:27:24.317Z</time>
      </trkpt>
      <trkpt lat="44.62963" lon="3.06021">
        <ele>1241.91</ele>
        <time>2021-11-19T14:27:35.000Z</time>
      </trkpt>
      <trkpt lat="44.6297" lon="3.06008">
        <ele>1256.72</ele>
        <time>2021-11-19T14:27:44.276Z</time>
      </trkpt>
      <trkpt lat="44.62977" lon="3.05997">
        <ele>1230.89</ele>
        <time>2021-11-19T14:27:55.000Z</time>
      </trkpt>
      <trkpt lat="44.6298" lon="3.05982">
        <ele>1239.49</ele>
        <time>2021-11-19T14:28:06.000Z</time>
      </trkpt>
      <trkpt lat="44.62983" lon="3.05965">
        <ele>1240.34</ele>
        <time>2021-11-19T14:28:17.000Z</time>
      </trkpt>
      <trkpt lat="44.62983" lon="3.05948">
        <ele>1237.1</ele>
        <time>2021-11-19T14:28:28.000Z</time>
      </trkpt>
      <trkpt lat="44.62983" lon="3.0593">
        <ele>1225.03</ele>
        <time>2021-11-19T14:28:38.095Z</time>
      </trkpt>
      <trkpt lat="44.62982" lon="3.05916">
        <ele>1232.13</ele>
        <time>2021-11-19T14:28:47.116Z</time>
      </trkpt>
      <trkpt lat="44.6298" lon="3.05904">
        <ele>1228.78</ele>
        <time>2021-11-19T14:28:57.000Z</time>
      </trkpt>
      <trkpt lat="44.62978" lon="3.05888">
        <ele>1233.57</ele>
        <time>2021-11-19T14:29:06.696Z</time>
      </trkpt>
      <trkpt lat="44.6298" lon="3.05883">
        <ele>1242.5</ele>
        <time>2021-11-19T14:29:16.000Z</time>
      </trkpt>
      <trkpt lat="44.6298" lon="3.05884">
        <ele>1227.57</ele>
        <time>2021-11-19T14:29:26.000Z</time>
      </trkpt>
      <trkpt lat="44.62981" lon="3.05881">
        <ele>1238.24</ele>
        <time>2021-11-19T14:29:46.000Z</time>
      </trkpt>
      <trkpt lat="44.62984" lon="3.05862">
        <ele>1231.04</ele>
        <time>2021-11-19T14:29:55.696Z</time>
      </trkpt>
      <trkpt lat="44.6299" lon="3.05848">
        <ele>1236.12</ele>
        <time>2021-11-19T14:30:04.917Z</time>
      </trkpt>
      <trkpt lat="44.62997" lon="3.05837">
        <ele>1226.14</ele>
        <time>2021-11-19T14:30:14.196Z</time>
      </trkpt>
      <trkpt lat="44.63007" lon="3.05829">
        <ele>1234.19</ele>
        <time>2021-11-19T14:30:23.415Z</time>
      </trkpt>
      <trkpt lat="44.6302" lon="3.05824">
        <ele>1229.73</ele>
        <time>2021-11-19T14:30:33.357Z</time>
      </trkpt>
      <trkpt lat="44.63031" lon="3.05825">
        <ele>1229.91</ele>
        <time>2021-11-19T14:30:44.000Z</time>
      </trkpt>
      <trkpt lat="44.63028" lon="3.0583">
        <ele>1245.51</ele>
        <time>2021-11-19T14:30:54.000Z</time>
      </trkpt>
      <trkpt lat="44.63027" lon="3.05829">
        <ele>1225.17</ele>
        <time>2021-11-19T14:31:05.000Z</time>
      </trkpt>
      <trkpt lat="44.63028" lon="3.05828">
        <ele>1243.19</ele>
        <time>2021-11-19T14:31:15.000Z</time>
      </trkpt>
      <trkpt lat="44.63029" lon="3.05828">
        <ele>1242.65</ele>
        <time>2021-11-19T14:33:27.000Z</time>
      </trkpt>
      <trkpt lat="44.63029" lon="3.0583">
        <ele>1229.01</ele>
        <time>2021-11-19T14:33:47.000Z</time>
      </trkpt>
      <trkpt lat="44.6303" lon="3.0583">
        <ele>1219.41</ele>
        <time>2021-11-19T14:34:01.000Z</time>
      </trkpt>
      <trkpt lat="44.6304" lon="3.05822">
        <ele>1227.88</ele>
        <time>2021-11-19T14:34:11.000Z</time>
      </trkpt>
      <trkpt lat="44.63054" lon="3.05821">
        <ele>1233.66</ele>
        <time>2021-11-19T14:34:22.000Z</time>
      </trkpt>
      <trkpt lat="44.63068" lon="3.05822">
        <ele>1235.75</ele>
        <time>2021-11-19T14:34:31.576Z</time>
      </trkpt>
      <trkpt lat="44.6308" lon="3.05824">
        <ele>1225.34</ele>
        <time>2021-11-19T14:34:40.836Z</time>
      </trkpt>
      <trkpt lat="44.63088" lon="3.05827">
        <ele>1242.33</ele>
        <time>2021-11-19T14:34:50.000Z</time>
      </trkpt>
      <trkpt lat="44.63101" lon="3.05829">
        <ele>1223.15</ele>
        <time>2021-11-19T14:35:00.000Z</time>
      </trkpt>
      <trkpt lat="44.63115" lon="3.05832">
        <ele>1227.18</ele>
        <time>2021-11-19T14:35:11.000Z</time>
      </trkpt>
      <trkpt lat="44.63129" lon="3.0584">
        <ele>1243.23</ele>
        <time>2021-11-19T14:35:21.015Z</time>
      </trkpt>
      <trkpt lat="44.6314" lon="3.05846">
        <ele>1243.49</ele>
        <time>2021-11-19T14:35:30.216Z</time>
      </trkpt>
      <trkpt lat="44.63151" lon="3.05853">
        <ele>1237.22</ele>
        <time>2021-11-19T14:35:40.095Z</time>
      </trkpt>
      <trkpt lat="44.6316" lon="3.05862">
        <ele>1229</ele>
        <time>2021-11-19T14:35:50.136Z</time>
      </trkpt>
      <trkpt lat="44.63172" lon="3.05868">
        <ele>1218.18</ele>
        <time>2021-11-19T14:36:00.016Z</time>
      </trkpt>
      <trkpt lat="44.63183" lon="3.05877">
        <ele>1223.6</ele>
        <time>2021-11-19T14:36:11.000Z</time>
      </trkpt>
      <trkpt lat="44.63194" lon="3.05884">
        <ele>1220.33</ele>
        <time>2021-11-19T14:36:20.136Z</time>
      </trkpt>
      <trkpt lat="44.63204" lon="3.05891">
        <ele>1232.02</ele>
        <time>2021-11-19T14:36:30.156Z</time>
      </trkpt>
      <trkpt lat="44.63214" lon="3.05898">
        <ele>1240.66</ele>
        <time>2021-11-19T14:36:40.036Z</time>
      </trkpt>
      <trkpt lat="44.63224" lon="3.05906">
        <ele>1225.18</ele>
        <time>2021-11-19T14:36:49.996Z</time>
      </trkpt>
      <trkpt lat="44.63234" lon="3.05914">
        <ele>1231.09</ele>
        <time>2021-11-19T14:36:59.296Z</time>
      </trkpt>
      <trkpt lat="44.63244" lon="3.0592">
        <ele>1224.09</ele>
        <time>2021-11-19T14:37:08.736Z</time>
      </trkpt>
      <trkpt lat="44.63254" lon="3.05928">
        <ele>1246.03</ele>
        <time>2021-11-19T14:37:18.076Z</time>
      </trkpt>
      <trkpt lat="44.63264" lon="3.05935">
        <ele>1239.25</ele>
        <time>2021-11-19T14:37:27.995Z</time>
      </trkpt>
      <trkpt lat="44.63275" lon="3.05942">
        <ele>1237.45</ele>
        <time>2021-11-19T14:37:40.000Z</time>
      </trkpt>
      <trkpt lat="44.63286" lon="3.05951">
        <ele>1226.77</ele>
        <time>2021-11-19T14:37:49.136Z</time>
      </trkpt>
      <trkpt lat="44.63296" lon="3.05958">
        <ele>1229.68</ele>
        <time>2021-11-19T14:38:00.000Z</time>
      </trkpt>
      <trkpt lat="44.63309" lon="3.05967">
        <ele>1229.71</ele>
        <time>2021-11-19T14:38:09.475Z</time>
      </trkpt>
      <trkpt lat="44.63319" lon="3.05974">
        <ele>1239.63</ele>
        <time>2021-11-19T14:38:21.000Z</time>
      </trkpt>
      <trkpt lat="44.63331" lon="3.05984">
        <ele>1231.93</ele>
        <time>2021-11-19T14:38:31.096Z</time>
      </trkpt>
      <trkpt lat="44.63341" lon="3.05992">
        <ele>1235.56</ele>
        <time>2021-11-19T14:38:41.075Z</time>
      </trkpt>
      <trkpt lat="44.63351" lon="3.05998">
        <ele>1225.59</ele>
        <time>2021-11-19T14:38:50.376Z</time>
      </trkpt>
      <trkpt lat="44.63361" lon="3.06005">
        <ele>1245.06</ele>
        <time>2021-11-19T14:38:59.637Z</time>
      </trkpt>
      <trkpt lat="44.6337" lon="3.06012">
        <ele>1229.49</ele>
        <time>2021-11-19T14:39:09.015Z</time>
      </trkpt>
      <trkpt lat="44.63379" lon="3.0602">
        <ele>1221.74</ele>
        <time>2021-11-19T14:39:18.563Z</time>
      </trkpt>
      <trkpt lat="44.6339" lon="3.06026">
        <ele>1225.22</ele>
        <time>2021-11-19T14:39:27.815Z</time>
      </trkpt>
      <trkpt lat="44.634" lon="3.06034">
        <ele>1228.4</ele>
        <time>2021-11-19T14:39:37.176Z</time>
      </trkpt>
      <trkpt lat="44.6341" lon="3.06041">
        <ele>1231.79</ele>
        <time>2021-11-19T14:39:47.115Z</time>
      </trkpt>
      <trkpt lat="44.63421" lon="3.06048">
        <ele>1244.86</ele>
        <time>2021-11-19T14:39:57.036Z</time>
      </trkpt>
      <trkpt lat="44.63431" lon="3.06055">
        <ele>1210.92</ele>
        <time>2021-11-19T14:40:08.000Z</time>
      </trkpt>
      <trkpt lat="44.63444" lon="3.06064">
        <ele>1235.73</ele>
        <time>2021-11-19T14:40:18.016Z</time>
      </trkpt>
      <trkpt lat="44.63454" lon="3.06071">
        <ele>1226.12</ele>
        <time>2021-11-19T14:40:29.000Z</time>
      </trkpt>
      <trkpt lat="44.63464" lon="3.0608">
        <ele>1233.22</ele>
        <time>2021-11-19T14:40:39.000Z</time>
      </trkpt>
      <trkpt lat="44.63475" lon="3.06089">
        <ele>1225.64</ele>
        <time>2021-11-19T14:40:50.000Z</time>
      </trkpt>
      <trkpt lat="44.63487" lon="3.06097">
        <ele>1227.34</ele>
        <time>2021-11-19T14:41:01.000Z</time>
      </trkpt>
      <trkpt lat="44.63499" lon="3.06106">
        <ele>1229.03</ele>
        <time>2021-11-19T14:41:11.095Z</time>
      </trkpt>
      <trkpt lat="44.63509" lon="3.06113">
        <ele>1235.92</ele>
        <time>2021-11-19T14:41:20.316Z</time>
      </trkpt>
      <trkpt lat="44.63519" lon="3.06119">
        <ele>1215.29</ele>
        <time>2021-11-19T14:41:29.576Z</time>
      </trkpt>
      <trkpt lat="44.63529" lon="3.06127">
        <ele>1219</ele>
        <time>2021-11-19T14:41:38.855Z</time>
      </trkpt>
      <trkpt lat="44.63539" lon="3.06134">
        <ele>1227.16</ele>
        <time>2021-11-19T14:41:48.216Z</time>
      </trkpt>
      <trkpt lat="44.63548" lon="3.0614">
        <ele>1224.82</ele>
        <time>2021-11-19T14:41:57.675Z</time>
      </trkpt>
      <trkpt lat="44.63558" lon="3.06146">
        <ele>1229.65</ele>
        <time>2021-11-19T14:42:07.156Z</time>
      </trkpt>
      <trkpt lat="44.63565" lon="3.06153">
        <ele>1227.73</ele>
        <time>2021-11-19T14:42:18.000Z</time>
      </trkpt>
      <trkpt lat="44.63577" lon="3.06161">
        <ele>1213.82</ele>
        <time>2021-11-19T14:42:27.295Z</time>
      </trkpt>
      <trkpt lat="44.63587" lon="3.0617">
        <ele>1215.48</ele>
        <time>2021-11-19T14:42:36.916Z</time>
      </trkpt>
      <trkpt lat="44.63598" lon="3.06174">
        <ele>1226.58</ele>
        <time>2021-11-19T14:42:48.000Z</time>
      </trkpt>
      <trkpt lat="44.63607" lon="3.0618">
        <ele>1225.32</ele>
        <time>2021-11-19T14:42:57.036Z</time>
      </trkpt>
      <trkpt lat="44.63618" lon="3.06184">
        <ele>1221.27</ele>
        <time>2021-11-19T14:43:06.256Z</time>
      </trkpt>
      <trkpt lat="44.63629" lon="3.06188">
        <ele>1215.72</ele>
        <time>2021-11-19T14:43:15.657Z</time>
      </trkpt>
      <trkpt lat="44.63638" lon="3.06193">
        <ele>1219.62</ele>
        <time>2021-11-19T14:43:24.816Z</time>
      </trkpt>
      <trkpt lat="44.63646" lon="3.06197">
        <ele>1222.23</ele>
        <time>2021-11-19T14:43:34.000Z</time>
      </trkpt>
      <trkpt lat="44.63658" lon="3.06192">
        <ele>1211.58</ele>
        <time>2021-11-19T14:43:43.690Z</time>
      </trkpt>
      <trkpt lat="44.63671" lon="3.06199">
        <ele>1233.94</ele>
        <time>2021-11-19T14:43:52.931Z</time>
      </trkpt>
      <trkpt lat="44.63679" lon="3.06209">
        <ele>1234.04</ele>
        <time>2021-11-19T14:44:03.000Z</time>
      </trkpt>
      <trkpt lat="44.63691" lon="3.06219">
        <ele>1246.21</ele>
        <time>2021-11-19T14:44:12.299Z</time>
      </trkpt>
      <trkpt lat="44.63702" lon="3.06227">
        <ele>1221.76</ele>
        <time>2021-11-19T14:44:22.176Z</time>
      </trkpt>
      <trkpt lat="44.63714" lon="3.06231">
        <ele>1220.14</ele>
        <time>2021-11-19T14:44:32.036Z</time>
      </trkpt>
      <trkpt lat="44.63726" lon="3.06235">
        <ele>1217.12</ele>
        <time>2021-11-19T14:44:41.899Z</time>
      </trkpt>
      <trkpt lat="44.63737" lon="3.06243">
        <ele>1225.34</ele>
        <time>2021-11-19T14:44:53.000Z</time>
      </trkpt>
      <trkpt lat="44.6375" lon="3.06248">
        <ele>1215.91</ele>
        <time>2021-11-19T14:45:02.141Z</time>
      </trkpt>
      <trkpt lat="44.63761" lon="3.06253">
        <ele>1218.47</ele>
        <time>2021-11-19T14:45:11.902Z</time>
      </trkpt>
      <trkpt lat="44.63771" lon="3.06258">
        <ele>1220.99</ele>
        <time>2021-11-19T14:45:22.000Z</time>
      </trkpt>
      <trkpt lat="44.63783" lon="3.06265">
        <ele>1212.48</ele>
        <time>2021-11-19T14:45:31.097Z</time>
      </trkpt>
      <trkpt lat="44.63794" lon="3.06271">
        <ele>1209.51</ele>
        <time>2021-11-19T14:45:40.992Z</time>
      </trkpt>
      <trkpt lat="44.63805" lon="3.06276">
        <ele>1218.39</ele>
        <time>2021-11-19T14:45:50.513Z</time>
      </trkpt>
      <trkpt lat="44.63815" lon="3.06284">
        <ele>1215.11</ele>
        <time>2021-11-19T14:45:59.854Z</time>
      </trkpt>
      <trkpt lat="44.63821" lon="3.06296">
        <ele>1238.4</ele>
        <time>2021-11-19T14:46:09.217Z</time>
      </trkpt>
      <trkpt lat="44.63829" lon="3.06307">
        <ele>1209.6</ele>
        <time>2021-11-19T14:46:18.713Z</time>
      </trkpt>
      <trkpt lat="44.63834" lon="3.06321">
        <ele>1221.12</ele>
        <time>2021-11-19T14:46:27.938Z</time>
      </trkpt>
      <trkpt lat="44.6384" lon="3.06334">
        <ele>1224.23</ele>
        <time>2021-11-19T14:46:39.000Z</time>
      </trkpt>
      <trkpt lat="44.63851" lon="3.06347">
        <ele>1209.05</ele>
        <time>2021-11-19T14:46:48.431Z</time>
      </trkpt>
      <trkpt lat="44.63861" lon="3.06356">
        <ele>1231.15</ele>
        <time>2021-11-19T14:46:57.845Z</time>
      </trkpt>
      <trkpt lat="44.6387" lon="3.0636">
        <ele>1218.42</ele>
        <time>2021-11-19T14:47:09.000Z</time>
      </trkpt>
      <trkpt lat="44.63882" lon="3.06369">
        <ele>1208.42</ele>
        <time>2021-11-19T14:47:18.295Z</time>
      </trkpt>
      <trkpt lat="44.63893" lon="3.06373">
        <ele>1213.02</ele>
        <time>2021-11-19T14:47:27.869Z</time>
      </trkpt>
      <trkpt lat="44.63904" lon="3.0638">
        <ele>1208.2</ele>
        <time>2021-11-19T14:47:38.051Z</time>
      </trkpt>
      <trkpt lat="44.63913" lon="3.06385">
        <ele>1226.85</ele>
        <time>2021-11-19T14:47:48.000Z</time>
      </trkpt>
      <trkpt lat="44.63925" lon="3.06391">
        <ele>1215.02</ele>
        <time>2021-11-19T14:47:57.370Z</time>
      </trkpt>
      <trkpt lat="44.63936" lon="3.06396">
        <ele>1206.43</ele>
        <time>2021-11-19T14:48:06.924Z</time>
      </trkpt>
      <trkpt lat="44.63943" lon="3.064">
        <ele>1232.06</ele>
        <time>2021-11-19T14:48:16.000Z</time>
      </trkpt>
      <trkpt lat="44.63954" lon="3.06402">
        <ele>1206.82</ele>
        <time>2021-11-19T14:48:25.340Z</time>
      </trkpt>
      <trkpt lat="44.63963" lon="3.06406">
        <ele>1218.17</ele>
        <time>2021-11-19T14:48:35.000Z</time>
      </trkpt>
      <trkpt lat="44.63974" lon="3.06413">
        <ele>1207.02</ele>
        <time>2021-11-19T14:48:44.331Z</time>
      </trkpt>
      <trkpt lat="44.63984" lon="3.06419">
        <ele>1213.81</ele>
        <time>2021-11-19T14:48:54.029Z</time>
      </trkpt>
      <trkpt lat="44.63994" lon="3.06426">
        <ele>1212.44</ele>
        <time>2021-11-19T14:49:03.049Z</time>
      </trkpt>
      <trkpt lat="44.64004" lon="3.06434">
        <ele>1212.65</ele>
        <time>2021-11-19T14:49:13.211Z</time>
      </trkpt>
      <trkpt lat="44.64008" lon="3.06438">
        <ele>1211.12</ele>
        <time>2021-11-19T14:49:23.000Z</time>
      </trkpt>
      <trkpt lat="44.64019" lon="3.06447">
        <ele>1203.44</ele>
        <time>2021-11-19T14:49:32.086Z</time>
      </trkpt>
      <trkpt lat="44.64029" lon="3.06455">
        <ele>1219.17</ele>
        <time>2021-11-19T14:49:42.011Z</time>
      </trkpt>
      <trkpt lat="44.64039" lon="3.06463">
        <ele>1213.82</ele>
        <time>2021-11-19T14:49:51.292Z</time>
      </trkpt>
      <trkpt lat="44.64049" lon="3.0647">
        <ele>1211.34</ele>
        <time>2021-11-19T14:50:00.687Z</time>
      </trkpt>
      <trkpt lat="44.64059" lon="3.06475">
        <ele>1210.4</ele>
        <time>2021-11-19T14:50:11.000Z</time>
      </trkpt>
      <trkpt lat="44.64071" lon="3.06479">
        <ele>1220.7</ele>
        <time>2021-11-19T14:50:20.069Z</time>
      </trkpt>
      <trkpt lat="44.64084" lon="3.0648">
        <ele>1213.91</ele>
        <time>2021-11-19T14:50:31.000Z</time>
      </trkpt>
      <trkpt lat="44.64098" lon="3.0648">
        <ele>1214.6</ele>
        <time>2021-11-19T14:50:41.066Z</time>
      </trkpt>
      <trkpt lat="44.6411" lon="3.06481">
        <ele>1233.86</ele>
        <time>2021-11-19T14:50:50.286Z</time>
      </trkpt>
      <trkpt lat="44.6412" lon="3.06483">
        <ele>1220.83</ele>
        <time>2021-11-19T14:51:00.000Z</time>
      </trkpt>
      <trkpt lat="44.64133" lon="3.06482">
        <ele>1200.59</ele>
        <time>2021-11-19T14:51:10.050Z</time>
      </trkpt>
      <trkpt lat="44.64145" lon="3.06483">
        <ele>1220.82</ele>
        <time>2021-11-19T14:51:19.269Z</time>
      </trkpt>
      <trkpt lat="44.64157" lon="3.06481">
        <ele>1213.07</ele>
        <time>2021-11-19T14:51:29.753Z</time>
      </trkpt>
      <trkpt lat="44.64169" lon="3.06479">
        <ele>1222.1</ele>
        <time>2021-11-19T14:51:39.095Z</time>
      </trkpt>
      <trkpt lat="44.64181" lon="3.06479">
        <ele>1212.82</ele>
        <time>2021-11-19T14:51:48.307Z</time>
      </trkpt>
      <trkpt lat="44.64191" lon="3.06475">
        <ele>1213.21</ele>
        <time>2021-11-19T14:51:58.000Z</time>
      </trkpt>
      <trkpt lat="44.64204" lon="3.06471">
        <ele>1225.21</ele>
        <time>2021-11-19T14:52:07.489Z</time>
      </trkpt>
      <trkpt lat="44.64215" lon="3.06467">
        <ele>1219.79</ele>
        <time>2021-11-19T14:52:17.346Z</time>
      </trkpt>
      <trkpt lat="44.64226" lon="3.06463">
        <ele>1200.24</ele>
        <time>2021-11-19T14:52:26.579Z</time>
      </trkpt>
      <trkpt lat="44.64238" lon="3.0646">
        <ele>1217.35</ele>
        <time>2021-11-19T14:52:35.839Z</time>
      </trkpt>
      <trkpt lat="44.6425" lon="3.06458">
        <ele>1220.5</ele>
        <time>2021-11-19T14:52:45.357Z</time>
      </trkpt>
      <trkpt lat="44.6426" lon="3.06456">
        <ele>1217.19</ele>
        <time>2021-11-19T14:52:54.717Z</time>
      </trkpt>
      <trkpt lat="44.64269" lon="3.06454">
        <ele>1211.89</ele>
        <time>2021-11-19T14:53:04.000Z</time>
      </trkpt>
      <trkpt lat="44.64282" lon="3.06448">
        <ele>1212.7</ele>
        <time>2021-11-19T14:53:13.318Z</time>
      </trkpt>
      <trkpt lat="44.64294" lon="3.06444">
        <ele>1217.36</ele>
        <time>2021-11-19T14:53:23.157Z</time>
      </trkpt>
      <trkpt lat="44.64305" lon="3.0644">
        <ele>1219.2</ele>
        <time>2021-11-19T14:53:33.057Z</time>
      </trkpt>
      <trkpt lat="44.64316" lon="3.06438">
        <ele>1220.32</ele>
        <time>2021-11-19T14:53:42.299Z</time>
      </trkpt>
      <trkpt lat="44.64326" lon="3.06436">
        <ele>1206.61</ele>
        <time>2021-11-19T14:53:52.000Z</time>
      </trkpt>
      <trkpt lat="44.64337" lon="3.06434">
        <ele>1227.53</ele>
        <time>2021-11-19T14:54:02.000Z</time>
      </trkpt>
      <trkpt lat="44.64348" lon="3.06435">
        <ele>1222.45</ele>
        <time>2021-11-19T14:54:12.057Z</time>
      </trkpt>
      <trkpt lat="44.64358" lon="3.06433">
        <ele>1205.15</ele>
        <time>2021-11-19T14:54:23.000Z</time>
      </trkpt>
      <trkpt lat="44.64359" lon="3.06426">
        <ele>1228.22</ele>
        <time>2021-11-19T14:54:32.139Z</time>
      </trkpt>
      <trkpt lat="44.64359" lon="3.06424">
        <ele>1209.68</ele>
        <time>2021-11-19T14:54:42.000Z</time>
      </trkpt>
      <trkpt lat="44.64359" lon="3.06426">
        <ele>1226.33</ele>
        <time>2021-11-19T14:55:10.000Z</time>
      </trkpt>
      <trkpt lat="44.64362" lon="3.06435">
        <ele>1234.37</ele>
        <time>2021-11-19T14:55:20.000Z</time>
      </trkpt>
      <trkpt lat="44.64366" lon="3.06435">
        <ele>1214.1</ele>
        <time>2021-11-19T14:55:30.000Z</time>
      </trkpt>
      <trkpt lat="44.6438" lon="3.06433">
        <ele>1222.9</ele>
        <time>2021-11-19T14:55:40.000Z</time>
      </trkpt>
      <trkpt lat="44.64394" lon="3.06434">
        <ele>1215.14</ele>
        <time>2021-11-19T14:55:49.037Z</time>
      </trkpt>
      <trkpt lat="44.64406" lon="3.06435">
        <ele>1211.19</ele>
        <time>2021-11-19T14:56:00.000Z</time>
      </trkpt>
      <trkpt lat="44.64421" lon="3.06437">
        <ele>1204.77</ele>
        <time>2021-11-19T14:56:10.158Z</time>
      </trkpt>
      <trkpt lat="44.64432" lon="3.06438">
        <ele>1220.59</ele>
        <time>2021-11-19T14:56:19.697Z</time>
      </trkpt>
      <trkpt lat="44.64443" lon="3.0644">
        <ele>1206.36</ele>
        <time>2021-11-19T14:56:29.257Z</time>
      </trkpt>
      <trkpt lat="44.64454" lon="3.06444">
        <ele>1224.99</ele>
        <time>2021-11-19T14:56:38.837Z</time>
      </trkpt>
      <trkpt lat="44.64466" lon="3.06445">
        <ele>1210.36</ele>
        <time>2021-11-19T14:56:50.000Z</time>
      </trkpt>
      <trkpt lat="44.64479" lon="3.06446">
        <ele>1240.3</ele>
        <time>2021-11-19T14:56:59.079Z</time>
      </trkpt>
      <trkpt lat="44.6449" lon="3.06445">
        <ele>1213.2</ele>
        <time>2021-11-19T14:57:08.098Z</time>
      </trkpt>
      <trkpt lat="44.64502" lon="3.06444">
        <ele>1218.06</ele>
        <time>2021-11-19T14:57:17.577Z</time>
      </trkpt>
      <trkpt lat="44.64513" lon="3.06444">
        <ele>1218.94</ele>
        <time>2021-11-19T14:57:26.938Z</time>
      </trkpt>
      <trkpt lat="44.64523" lon="3.06445">
        <ele>1216.39</ele>
        <time>2021-11-19T14:57:36.039Z</time>
      </trkpt>
      <trkpt lat="44.64535" lon="3.06443">
        <ele>1220.81</ele>
        <time>2021-11-19T14:57:45.517Z</time>
      </trkpt>
      <trkpt lat="44.64548" lon="3.06443">
        <ele>1221.92</ele>
        <time>2021-11-19T14:57:55.318Z</time>
      </trkpt>
      <trkpt lat="44.6456" lon="3.06447">
        <ele>1220.57</ele>
        <time>2021-11-19T14:58:05.238Z</time>
      </trkpt>
      <trkpt lat="44.64571" lon="3.0645">
        <ele>1229.11</ele>
        <time>2021-11-19T14:58:14.517Z</time>
      </trkpt>
      <trkpt lat="44.64581" lon="3.06455">
        <ele>1216</ele>
        <time>2021-11-19T14:58:24.000Z</time>
      </trkpt>
      <trkpt lat="44.64594" lon="3.0646">
        <ele>1207.36</ele>
        <time>2021-11-19T14:58:33.218Z</time>
      </trkpt>
      <trkpt lat="44.64604" lon="3.06466">
        <ele>1213.44</ele>
        <time>2021-11-19T14:58:44.000Z</time>
      </trkpt>
      <trkpt lat="44.64616" lon="3.06471">
        <ele>1228.15</ele>
        <time>2021-11-19T14:58:54.000Z</time>
      </trkpt>
      <trkpt lat="44.64629" lon="3.06476">
        <ele>1238.59</ele>
        <time>2021-11-19T14:59:03.219Z</time>
      </trkpt>
      <trkpt lat="44.6464" lon="3.06482">
        <ele>1227.07</ele>
        <time>2021-11-19T14:59:12.597Z</time>
      </trkpt>
      <trkpt lat="44.64652" lon="3.06487">
        <ele>1218.68</ele>
        <time>2021-11-19T14:59:21.939Z</time>
      </trkpt>
      <trkpt lat="44.64663" lon="3.06492">
        <ele>1223.04</ele>
        <time>2021-11-19T14:59:31.957Z</time>
      </trkpt>
      <trkpt lat="44.64674" lon="3.06497">
        <ele>1218.88</ele>
        <time>2021-11-19T14:59:41.280Z</time>
      </trkpt>
      <trkpt lat="44.64684" lon="3.06502">
        <ele>1224.21</ele>
        <time>2021-11-19T14:59:50.756Z</time>
      </trkpt>
      <trkpt lat="44.64693" lon="3.06506">
        <ele>1221.28</ele>
        <time>2021-11-19T15:00:00.000Z</time>
      </trkpt>
      <trkpt lat="44.64705" lon="3.06509">
        <ele>1216.99</ele>
        <time>2021-11-19T15:00:10.000Z</time>
      </trkpt>
      <trkpt lat="44.64717" lon="3.065">
        <ele>1227.46</ele>
        <time>2021-11-19T15:00:19.279Z</time>
      </trkpt>
      <trkpt lat="44.64726" lon="3.06495">
        <ele>1204.25</ele>
        <time>2021-11-19T15:00:28.717Z</time>
      </trkpt>
      <trkpt lat="44.64736" lon="3.06495">
        <ele>1216.55</ele>
        <time>2021-11-19T15:00:39.000Z</time>
      </trkpt>
      <trkpt lat="44.64748" lon="3.06494">
        <ele>1207.14</ele>
        <time>2021-11-19T15:00:48.676Z</time>
      </trkpt>
      <trkpt lat="44.64756" lon="3.06495">
        <ele>1221.33</ele>
        <time>2021-11-19T15:00:58.000Z</time>
      </trkpt>
      <trkpt lat="44.64761" lon="3.06498">
        <ele>1216.67</ele>
        <time>2021-11-19T15:01:08.000Z</time>
      </trkpt>
      <trkpt lat="44.64766" lon="3.06496">
        <ele>1221.3</ele>
        <time>2021-11-19T15:01:17.217Z</time>
      </trkpt>
      <trkpt lat="44.64776" lon="3.06498">
        <ele>1224.24</ele>
        <time>2021-11-19T15:01:27.117Z</time>
      </trkpt>
      <trkpt lat="44.64783" lon="3.06501">
        <ele>1223.07</ele>
        <time>2021-11-19T15:01:38.000Z</time>
      </trkpt>
      <trkpt lat="44.64782" lon="3.06501">
        <ele>1205.82</ele>
        <time>2021-11-19T15:01:48.000Z</time>
      </trkpt>
      <trkpt lat="44.64783" lon="3.06502">
        <ele>1220.8</ele>
        <time>2021-11-19T15:02:06.000Z</time>
      </trkpt>
      <trkpt lat="44.64783" lon="3.06504">
        <ele>1210.48</ele>
        <time>2021-11-19T15:02:16.000Z</time>
      </trkpt>
      <trkpt lat="44.64783" lon="3.06506">
        <ele>1227.48</ele>
        <time>2021-11-19T15:02:26.000Z</time>
      </trkpt>
      <trkpt lat="44.64783" lon="3.06502">
        <ele>1217.69</ele>
        <time>2021-11-19T15:03:38.758Z</time>
      </trkpt>
      <trkpt lat="44.64782" lon="3.065">
        <ele>1224.63</ele>
        <time>2021-11-19T15:03:59.000Z</time>
      </trkpt>
      <trkpt lat="44.64783" lon="3.065">
        <ele>1217.4</ele>
        <time>2021-11-19T15:04:09.000Z</time>
      </trkpt>
    </trkseg>
  </trk>
</gpx>